<?xml version="1.0" encoding="UTF-8" standalone="no" ?>
<gpx xmlns="http://www.topografix.com/GPX/1/1" xmlns:xsi="http://www.w3.org/2001/XMLSchema-instance" xsi:schemaLocation="http://www.topografix.com/GPX/1/1 http://www.topografix.com/GPX/1/1/gpx.xsd" version="1.1" creator="VisuGPX - https://www.visugpx.com">
  <metadata>
    <name>La bigue du siron</name>
    <desc><![CDATA[rando au dessus de Digne les Bains à la Bigue du Siron 1651 m]]></desc>
  </metadata>
  <trk>
    <name><![CDATA[18-JAN-15 15:37:33]]></name>
    <trkseg>
      <trkpt lat="44.10656" lon="6.20617">
        <ele>927.33</ele>
        <time>2015-01-18T09:13:22Z</time>
      </trkpt>
      <trkpt lat="44.10654" lon="6.2062">
        <ele>926.37</ele>
        <time>2015-01-18T09:13:23Z</time>
      </trkpt>
      <trkpt lat="44.10654" lon="6.20622">
        <ele>926.85</ele>
        <time>2015-01-18T09:13:40Z</time>
      </trkpt>
      <trkpt lat="44.10652" lon="6.20628">
        <ele>928.29</ele>
        <time>2015-01-18T09:13:58Z</time>
      </trkpt>
      <trkpt lat="44.10651" lon="6.20625">
        <ele>927.33</ele>
        <time>2015-01-18T09:14:25Z</time>
      </trkpt>
      <trkpt lat="44.10652" lon="6.20628">
        <ele>928.29</ele>
        <time>2015-01-18T09:14:41Z</time>
      </trkpt>
      <trkpt lat="44.10655" lon="6.20622">
        <ele>928.29</ele>
        <time>2015-01-18T09:14:52Z</time>
      </trkpt>
      <trkpt lat="44.10658" lon="6.20617">
        <ele>928.77</ele>
        <time>2015-01-18T09:15:07Z</time>
      </trkpt>
      <trkpt lat="44.10655" lon="6.20618">
        <ele>928.77</ele>
        <time>2015-01-18T09:15:17Z</time>
      </trkpt>
      <trkpt lat="44.10651" lon="6.20623">
        <ele>928.77</ele>
        <time>2015-01-18T09:15:30Z</time>
      </trkpt>
      <trkpt lat="44.10651" lon="6.20623">
        <ele>929.25</ele>
        <time>2015-01-18T09:15:50Z</time>
      </trkpt>
      <trkpt lat="44.10653" lon="6.20627">
        <ele>929.25</ele>
        <time>2015-01-18T09:16:07Z</time>
      </trkpt>
      <trkpt lat="44.10651" lon="6.20629">
        <ele>923.48</ele>
        <time>2015-01-18T09:16:20Z</time>
      </trkpt>
      <trkpt lat="44.10651" lon="6.20629">
        <ele>935.5</ele>
        <time>2015-01-18T09:16:21Z</time>
      </trkpt>
      <trkpt lat="44.10651" lon="6.20629">
        <ele>929.25</ele>
        <time>2015-01-18T09:16:22Z</time>
      </trkpt>
      <trkpt lat="44.10651" lon="6.20629">
        <ele>924.93</ele>
        <time>2015-01-18T09:16:23Z</time>
      </trkpt>
      <trkpt lat="44.10651" lon="6.20629">
        <ele>934.54</ele>
        <time>2015-01-18T09:16:24Z</time>
      </trkpt>
      <trkpt lat="44.10651" lon="6.20629">
        <ele>920.6</ele>
        <time>2015-01-18T09:16:25Z</time>
      </trkpt>
      <trkpt lat="44.10651" lon="6.20629">
        <ele>937.42</ele>
        <time>2015-01-18T09:16:26Z</time>
      </trkpt>
      <trkpt lat="44.10651" lon="6.20629">
        <ele>930.69</ele>
        <time>2015-01-18T09:16:27Z</time>
      </trkpt>
      <trkpt lat="44.10652" lon="6.20629">
        <ele>930.21</ele>
        <time>2015-01-18T09:16:45Z</time>
      </trkpt>
      <trkpt lat="44.10652" lon="6.20629">
        <ele>930.69</ele>
        <time>2015-01-18T09:17:11Z</time>
      </trkpt>
      <trkpt lat="44.10651" lon="6.20631">
        <ele>928.29</ele>
        <time>2015-01-18T09:17:27Z</time>
      </trkpt>
      <trkpt lat="44.10653" lon="6.20627">
        <ele>930.21</ele>
        <time>2015-01-18T09:17:41Z</time>
      </trkpt>
      <trkpt lat="44.10654" lon="6.20627">
        <ele>930.21</ele>
        <time>2015-01-18T09:17:51Z</time>
      </trkpt>
      <trkpt lat="44.10658" lon="6.20628">
        <ele>930.69</ele>
        <time>2015-01-18T09:17:56Z</time>
      </trkpt>
      <trkpt lat="44.10655" lon="6.20632">
        <ele>930.69</ele>
        <time>2015-01-18T09:18:03Z</time>
      </trkpt>
      <trkpt lat="44.10657" lon="6.2063">
        <ele>929.73</ele>
        <time>2015-01-18T09:18:05Z</time>
      </trkpt>
      <trkpt lat="44.10664" lon="6.20621">
        <ele>930.69</ele>
        <time>2015-01-18T09:18:14Z</time>
      </trkpt>
      <trkpt lat="44.10667" lon="6.20612">
        <ele>930.21</ele>
        <time>2015-01-18T09:18:22Z</time>
      </trkpt>
      <trkpt lat="44.10666" lon="6.20609">
        <ele>929.25</ele>
        <time>2015-01-18T09:18:24Z</time>
      </trkpt>
      <trkpt lat="44.10668" lon="6.20601">
        <ele>929.25</ele>
        <time>2015-01-18T09:18:32Z</time>
      </trkpt>
      <trkpt lat="44.10669" lon="6.20595">
        <ele>929.25</ele>
        <time>2015-01-18T09:18:36Z</time>
      </trkpt>
      <trkpt lat="44.1068" lon="6.20572">
        <ele>932.62</ele>
        <time>2015-01-18T09:18:55Z</time>
      </trkpt>
      <trkpt lat="44.1068" lon="6.20571">
        <ele>932.62</ele>
        <time>2015-01-18T09:18:56Z</time>
      </trkpt>
      <trkpt lat="44.10684" lon="6.20564">
        <ele>934.54</ele>
        <time>2015-01-18T09:19:10Z</time>
      </trkpt>
      <trkpt lat="44.10694" lon="6.2055">
        <ele>935.98</ele>
        <time>2015-01-18T09:19:25Z</time>
      </trkpt>
      <trkpt lat="44.10695" lon="6.20547">
        <ele>935.98</ele>
        <time>2015-01-18T09:19:27Z</time>
      </trkpt>
      <trkpt lat="44.10698" lon="6.20529">
        <ele>937.42</ele>
        <time>2015-01-18T09:19:42Z</time>
      </trkpt>
      <trkpt lat="44.10702" lon="6.20505">
        <ele>937.9</ele>
        <time>2015-01-18T09:19:59Z</time>
      </trkpt>
      <trkpt lat="44.10704" lon="6.20478">
        <ele>938.38</ele>
        <time>2015-01-18T09:20:16Z</time>
      </trkpt>
      <trkpt lat="44.1071" lon="6.20449">
        <ele>938.38</ele>
        <time>2015-01-18T09:20:34Z</time>
      </trkpt>
      <trkpt lat="44.10722" lon="6.20432">
        <ele>937.9</ele>
        <time>2015-01-18T09:20:48Z</time>
      </trkpt>
      <trkpt lat="44.10725" lon="6.20429">
        <ele>938.86</ele>
        <time>2015-01-18T09:20:51Z</time>
      </trkpt>
      <trkpt lat="44.10729" lon="6.2041">
        <ele>939.35</ele>
        <time>2015-01-18T09:21:07Z</time>
      </trkpt>
      <trkpt lat="44.10729" lon="6.20409">
        <ele>940.31</ele>
        <time>2015-01-18T09:21:08Z</time>
      </trkpt>
      <trkpt lat="44.10726" lon="6.20391">
        <ele>941.27</ele>
        <time>2015-01-18T09:21:20Z</time>
      </trkpt>
      <trkpt lat="44.10722" lon="6.20362">
        <ele>941.75</ele>
        <time>2015-01-18T09:21:38Z</time>
      </trkpt>
      <trkpt lat="44.1073" lon="6.20336">
        <ele>943.67</ele>
        <time>2015-01-18T09:21:57Z</time>
      </trkpt>
      <trkpt lat="44.10735" lon="6.2032">
        <ele>946.56</ele>
        <time>2015-01-18T09:22:12Z</time>
      </trkpt>
      <trkpt lat="44.10737" lon="6.20311">
        <ele>947.52</ele>
        <time>2015-01-18T09:22:19Z</time>
      </trkpt>
      <trkpt lat="44.10738" lon="6.20291">
        <ele>949.92</ele>
        <time>2015-01-18T09:22:35Z</time>
      </trkpt>
      <trkpt lat="44.10738" lon="6.20277">
        <ele>950.4</ele>
        <time>2015-01-18T09:22:46Z</time>
      </trkpt>
      <trkpt lat="44.1074" lon="6.2025">
        <ele>951.36</ele>
        <time>2015-01-18T09:23:04Z</time>
      </trkpt>
      <trkpt lat="44.10741" lon="6.20228">
        <ele>952.32</ele>
        <time>2015-01-18T09:23:19Z</time>
      </trkpt>
      <trkpt lat="44.10742" lon="6.20225">
        <ele>951.84</ele>
        <time>2015-01-18T09:23:21Z</time>
      </trkpt>
      <trkpt lat="44.10746" lon="6.20215">
        <ele>953.77</ele>
        <time>2015-01-18T09:23:29Z</time>
      </trkpt>
      <trkpt lat="44.10755" lon="6.20197">
        <ele>954.73</ele>
        <time>2015-01-18T09:23:44Z</time>
      </trkpt>
      <trkpt lat="44.10757" lon="6.20194">
        <ele>955.69</ele>
        <time>2015-01-18T09:23:49Z</time>
      </trkpt>
      <trkpt lat="44.10758" lon="6.20192">
        <ele>955.69</ele>
        <time>2015-01-18T09:23:51Z</time>
      </trkpt>
      <trkpt lat="44.10769" lon="6.20168">
        <ele>957.13</ele>
        <time>2015-01-18T09:24:10Z</time>
      </trkpt>
      <trkpt lat="44.10781" lon="6.20148">
        <ele>958.57</ele>
        <time>2015-01-18T09:24:29Z</time>
      </trkpt>
      <trkpt lat="44.1079" lon="6.20126">
        <ele>959.53</ele>
        <time>2015-01-18T09:24:46Z</time>
      </trkpt>
      <trkpt lat="44.10791" lon="6.20121">
        <ele>960.01</ele>
        <time>2015-01-18T09:24:50Z</time>
      </trkpt>
      <trkpt lat="44.10798" lon="6.20096">
        <ele>961.46</ele>
        <time>2015-01-18T09:25:09Z</time>
      </trkpt>
      <trkpt lat="44.10803" lon="6.20073">
        <ele>962.9</ele>
        <time>2015-01-18T09:25:25Z</time>
      </trkpt>
      <trkpt lat="44.10814" lon="6.20048">
        <ele>961.94</ele>
        <time>2015-01-18T09:25:44Z</time>
      </trkpt>
      <trkpt lat="44.1083" lon="6.20037">
        <ele>959.53</ele>
        <time>2015-01-18T09:25:59Z</time>
      </trkpt>
      <trkpt lat="44.10831" lon="6.20036">
        <ele>959.53</ele>
        <time>2015-01-18T09:26:00Z</time>
      </trkpt>
      <trkpt lat="44.10834" lon="6.2003">
        <ele>957.61</ele>
        <time>2015-01-18T09:26:05Z</time>
      </trkpt>
      <trkpt lat="44.10837" lon="6.20027">
        <ele>957.61</ele>
        <time>2015-01-18T09:26:09Z</time>
      </trkpt>
      <trkpt lat="44.10851" lon="6.20005">
        <ele>957.61</ele>
        <time>2015-01-18T09:26:26Z</time>
      </trkpt>
      <trkpt lat="44.10858" lon="6.19983">
        <ele>959.53</ele>
        <time>2015-01-18T09:26:43Z</time>
      </trkpt>
      <trkpt lat="44.10865" lon="6.19968">
        <ele>961.94</ele>
        <time>2015-01-18T09:26:57Z</time>
      </trkpt>
      <trkpt lat="44.10868" lon="6.19967">
        <ele>962.9</ele>
        <time>2015-01-18T09:26:59Z</time>
      </trkpt>
      <trkpt lat="44.10881" lon="6.19953">
        <ele>965.3</ele>
        <time>2015-01-18T09:27:17Z</time>
      </trkpt>
      <trkpt lat="44.10886" lon="6.19942">
        <ele>966.74</ele>
        <time>2015-01-18T09:27:33Z</time>
      </trkpt>
      <trkpt lat="44.10895" lon="6.19938">
        <ele>968.67</ele>
        <time>2015-01-18T09:27:47Z</time>
      </trkpt>
      <trkpt lat="44.10896" lon="6.19933">
        <ele>970.11</ele>
        <time>2015-01-18T09:27:53Z</time>
      </trkpt>
      <trkpt lat="44.10905" lon="6.19925">
        <ele>970.59</ele>
        <time>2015-01-18T09:28:05Z</time>
      </trkpt>
      <trkpt lat="44.10907" lon="6.19925">
        <ele>970.59</ele>
        <time>2015-01-18T09:28:07Z</time>
      </trkpt>
      <trkpt lat="44.10918" lon="6.19918">
        <ele>972.99</ele>
        <time>2015-01-18T09:28:22Z</time>
      </trkpt>
      <trkpt lat="44.10925" lon="6.19914">
        <ele>974.91</ele>
        <time>2015-01-18T09:28:35Z</time>
      </trkpt>
      <trkpt lat="44.10934" lon="6.19908">
        <ele>976.84</ele>
        <time>2015-01-18T09:28:50Z</time>
      </trkpt>
      <trkpt lat="44.10943" lon="6.19907">
        <ele>979.72</ele>
        <time>2015-01-18T09:29:05Z</time>
      </trkpt>
      <trkpt lat="44.1095" lon="6.19907">
        <ele>982.12</ele>
        <time>2015-01-18T09:29:21Z</time>
      </trkpt>
      <trkpt lat="44.10952" lon="6.19896">
        <ele>984.05</ele>
        <time>2015-01-18T09:29:36Z</time>
      </trkpt>
      <trkpt lat="44.10954" lon="6.19884">
        <ele>985.97</ele>
        <time>2015-01-18T09:29:51Z</time>
      </trkpt>
      <trkpt lat="44.10957" lon="6.19871">
        <ele>987.89</ele>
        <time>2015-01-18T09:30:05Z</time>
      </trkpt>
      <trkpt lat="44.10967" lon="6.19865">
        <ele>990.3</ele>
        <time>2015-01-18T09:30:19Z</time>
      </trkpt>
      <trkpt lat="44.10973" lon="6.19869">
        <ele>991.74</ele>
        <time>2015-01-18T09:30:32Z</time>
      </trkpt>
      <trkpt lat="44.1098" lon="6.19869">
        <ele>993.18</ele>
        <time>2015-01-18T09:30:44Z</time>
      </trkpt>
      <trkpt lat="44.1099" lon="6.19866">
        <ele>995.58</ele>
        <time>2015-01-18T09:31:00Z</time>
      </trkpt>
      <trkpt lat="44.10998" lon="6.19867">
        <ele>997.99</ele>
        <time>2015-01-18T09:31:15Z</time>
      </trkpt>
      <trkpt lat="44.11006" lon="6.19868">
        <ele>999.43</ele>
        <time>2015-01-18T09:31:29Z</time>
      </trkpt>
      <trkpt lat="44.11012" lon="6.19872">
        <ele>1002.31</ele>
        <time>2015-01-18T09:31:42Z</time>
      </trkpt>
      <trkpt lat="44.11019" lon="6.19872">
        <ele>1003.27</ele>
        <time>2015-01-18T09:31:54Z</time>
      </trkpt>
      <trkpt lat="44.11021" lon="6.19869">
        <ele>1003.75</ele>
        <time>2015-01-18T09:31:58Z</time>
      </trkpt>
      <trkpt lat="44.11026" lon="6.19863">
        <ele>1004.23</ele>
        <time>2015-01-18T09:32:05Z</time>
      </trkpt>
      <trkpt lat="44.11029" lon="6.19859">
        <ele>1004.72</ele>
        <time>2015-01-18T09:32:09Z</time>
      </trkpt>
      <trkpt lat="44.11038" lon="6.19845">
        <ele>1003.75</ele>
        <time>2015-01-18T09:32:23Z</time>
      </trkpt>
      <trkpt lat="44.1104" lon="6.19842">
        <ele>1004.23</ele>
        <time>2015-01-18T09:32:26Z</time>
      </trkpt>
      <trkpt lat="44.11051" lon="6.19824">
        <ele>1003.75</ele>
        <time>2015-01-18T09:32:44Z</time>
      </trkpt>
      <trkpt lat="44.11052" lon="6.19823">
        <ele>1003.75</ele>
        <time>2015-01-18T09:32:48Z</time>
      </trkpt>
      <trkpt lat="44.11055" lon="6.1982">
        <ele>1003.75</ele>
        <time>2015-01-18T09:32:51Z</time>
      </trkpt>
      <trkpt lat="44.11065" lon="6.19801">
        <ele>1004.72</ele>
        <time>2015-01-18T09:33:08Z</time>
      </trkpt>
      <trkpt lat="44.11074" lon="6.19789">
        <ele>1006.64</ele>
        <time>2015-01-18T09:33:23Z</time>
      </trkpt>
      <trkpt lat="44.11081" lon="6.19777">
        <ele>1007.6</ele>
        <time>2015-01-18T09:33:38Z</time>
      </trkpt>
      <trkpt lat="44.11084" lon="6.1977">
        <ele>1008.56</ele>
        <time>2015-01-18T09:33:45Z</time>
      </trkpt>
      <trkpt lat="44.11084" lon="6.19754">
        <ele>1010</ele>
        <time>2015-01-18T09:33:59Z</time>
      </trkpt>
      <trkpt lat="44.11084" lon="6.19735">
        <ele>1011.44</ele>
        <time>2015-01-18T09:34:14Z</time>
      </trkpt>
      <trkpt lat="44.11084" lon="6.19723">
        <ele>1012.41</ele>
        <time>2015-01-18T09:34:24Z</time>
      </trkpt>
      <trkpt lat="44.11081" lon="6.19701">
        <ele>1013.37</ele>
        <time>2015-01-18T09:34:42Z</time>
      </trkpt>
      <trkpt lat="44.11081" lon="6.19687">
        <ele>1015.29</ele>
        <time>2015-01-18T09:34:56Z</time>
      </trkpt>
      <trkpt lat="44.11078" lon="6.19669">
        <ele>1017.21</ele>
        <time>2015-01-18T09:35:12Z</time>
      </trkpt>
      <trkpt lat="44.11077" lon="6.19657">
        <ele>1019.13</ele>
        <time>2015-01-18T09:35:27Z</time>
      </trkpt>
      <trkpt lat="44.11079" lon="6.19641">
        <ele>1022.02</ele>
        <time>2015-01-18T09:35:44Z</time>
      </trkpt>
      <trkpt lat="44.11082" lon="6.19629">
        <ele>1023.46</ele>
        <time>2015-01-18T09:35:57Z</time>
      </trkpt>
      <trkpt lat="44.11088" lon="6.19618">
        <ele>1024.9</ele>
        <time>2015-01-18T09:36:12Z</time>
      </trkpt>
      <trkpt lat="44.11094" lon="6.19619">
        <ele>1026.83</ele>
        <time>2015-01-18T09:36:25Z</time>
      </trkpt>
      <trkpt lat="44.11097" lon="6.19628">
        <ele>1027.79</ele>
        <time>2015-01-18T09:36:39Z</time>
      </trkpt>
      <trkpt lat="44.11105" lon="6.19635">
        <ele>1029.71</ele>
        <time>2015-01-18T09:36:54Z</time>
      </trkpt>
      <trkpt lat="44.1111" lon="6.19627">
        <ele>1032.11</ele>
        <time>2015-01-18T09:37:10Z</time>
      </trkpt>
      <trkpt lat="44.11119" lon="6.19617">
        <ele>1034.52</ele>
        <time>2015-01-18T09:37:27Z</time>
      </trkpt>
      <trkpt lat="44.11119" lon="6.19617">
        <ele>1035</ele>
        <time>2015-01-18T09:37:45Z</time>
      </trkpt>
      <trkpt lat="44.11119" lon="6.19617">
        <ele>1035</ele>
        <time>2015-01-18T09:38:09Z</time>
      </trkpt>
      <trkpt lat="44.11126" lon="6.19618">
        <ele>1036.44</ele>
        <time>2015-01-18T09:38:21Z</time>
      </trkpt>
      <trkpt lat="44.11128" lon="6.19619">
        <ele>1036.44</ele>
        <time>2015-01-18T09:38:23Z</time>
      </trkpt>
      <trkpt lat="44.11139" lon="6.19621">
        <ele>1038.84</ele>
        <time>2015-01-18T09:38:38Z</time>
      </trkpt>
      <trkpt lat="44.1115" lon="6.19625">
        <ele>1040.76</ele>
        <time>2015-01-18T09:38:54Z</time>
      </trkpt>
      <trkpt lat="44.11158" lon="6.19625">
        <ele>1042.21</ele>
        <time>2015-01-18T09:39:06Z</time>
      </trkpt>
      <trkpt lat="44.11168" lon="6.19621">
        <ele>1044.61</ele>
        <time>2015-01-18T09:39:21Z</time>
      </trkpt>
      <trkpt lat="44.11176" lon="6.19614">
        <ele>1046.53</ele>
        <time>2015-01-18T09:39:37Z</time>
      </trkpt>
      <trkpt lat="44.11183" lon="6.1961">
        <ele>1048.45</ele>
        <time>2015-01-18T09:39:52Z</time>
      </trkpt>
      <trkpt lat="44.11183" lon="6.1961">
        <ele>1047.97</ele>
        <time>2015-01-18T09:40:15Z</time>
      </trkpt>
      <trkpt lat="44.11187" lon="6.19608">
        <ele>1048.94</ele>
        <time>2015-01-18T09:40:39Z</time>
      </trkpt>
      <trkpt lat="44.112" lon="6.19601">
        <ele>1050.86</ele>
        <time>2015-01-18T09:40:57Z</time>
      </trkpt>
      <trkpt lat="44.11202" lon="6.196">
        <ele>1051.34</ele>
        <time>2015-01-18T09:40:59Z</time>
      </trkpt>
      <trkpt lat="44.11212" lon="6.19596">
        <ele>1053.26</ele>
        <time>2015-01-18T09:41:14Z</time>
      </trkpt>
      <trkpt lat="44.11221" lon="6.19594">
        <ele>1054.7</ele>
        <time>2015-01-18T09:41:29Z</time>
      </trkpt>
      <trkpt lat="44.11232" lon="6.1959">
        <ele>1057.11</ele>
        <time>2015-01-18T09:41:45Z</time>
      </trkpt>
      <trkpt lat="44.11241" lon="6.19586">
        <ele>1058.55</ele>
        <time>2015-01-18T09:42:00Z</time>
      </trkpt>
      <trkpt lat="44.11246" lon="6.19585">
        <ele>1059.51</ele>
        <time>2015-01-18T09:42:15Z</time>
      </trkpt>
      <trkpt lat="44.1125" lon="6.19584">
        <ele>1059.51</ele>
        <time>2015-01-18T09:42:30Z</time>
      </trkpt>
      <trkpt lat="44.1126" lon="6.19581">
        <ele>1061.43</ele>
        <time>2015-01-18T09:42:43Z</time>
      </trkpt>
      <trkpt lat="44.11269" lon="6.19579">
        <ele>1062.87</ele>
        <time>2015-01-18T09:42:57Z</time>
      </trkpt>
      <trkpt lat="44.11279" lon="6.19575">
        <ele>1065.28</ele>
        <time>2015-01-18T09:43:12Z</time>
      </trkpt>
      <trkpt lat="44.11288" lon="6.19574">
        <ele>1066.72</ele>
        <time>2015-01-18T09:43:28Z</time>
      </trkpt>
      <trkpt lat="44.11298" lon="6.19573">
        <ele>1068.64</ele>
        <time>2015-01-18T09:43:42Z</time>
      </trkpt>
      <trkpt lat="44.11307" lon="6.19575">
        <ele>1070.57</ele>
        <time>2015-01-18T09:43:56Z</time>
      </trkpt>
      <trkpt lat="44.11311" lon="6.1958">
        <ele>1072.49</ele>
        <time>2015-01-18T09:44:10Z</time>
      </trkpt>
      <trkpt lat="44.11323" lon="6.19579">
        <ele>1073.45</ele>
        <time>2015-01-18T09:44:26Z</time>
      </trkpt>
      <trkpt lat="44.11331" lon="6.19584">
        <ele>1075.37</ele>
        <time>2015-01-18T09:44:40Z</time>
      </trkpt>
      <trkpt lat="44.1134" lon="6.19587">
        <ele>1076.81</ele>
        <time>2015-01-18T09:44:54Z</time>
      </trkpt>
      <trkpt lat="44.11344" lon="6.19581">
        <ele>1078.74</ele>
        <time>2015-01-18T09:45:08Z</time>
      </trkpt>
      <trkpt lat="44.11348" lon="6.19572">
        <ele>1079.7</ele>
        <time>2015-01-18T09:45:21Z</time>
      </trkpt>
      <trkpt lat="44.11354" lon="6.19563">
        <ele>1082.58</ele>
        <time>2015-01-18T09:45:36Z</time>
      </trkpt>
      <trkpt lat="44.1136" lon="6.19553">
        <ele>1083.54</ele>
        <time>2015-01-18T09:45:51Z</time>
      </trkpt>
      <trkpt lat="44.11367" lon="6.19549">
        <ele>1085.47</ele>
        <time>2015-01-18T09:46:07Z</time>
      </trkpt>
      <trkpt lat="44.11373" lon="6.19546">
        <ele>1087.39</ele>
        <time>2015-01-18T09:46:19Z</time>
      </trkpt>
      <trkpt lat="44.11379" lon="6.1954">
        <ele>1089.31</ele>
        <time>2015-01-18T09:46:34Z</time>
      </trkpt>
      <trkpt lat="44.11377" lon="6.19547">
        <ele>1090.75</ele>
        <time>2015-01-18T09:46:49Z</time>
      </trkpt>
      <trkpt lat="44.11373" lon="6.19556">
        <ele>1092.2</ele>
        <time>2015-01-18T09:47:02Z</time>
      </trkpt>
      <trkpt lat="44.11372" lon="6.19562">
        <ele>1092.68</ele>
        <time>2015-01-18T09:47:15Z</time>
      </trkpt>
      <trkpt lat="44.1137" lon="6.19573">
        <ele>1095.56</ele>
        <time>2015-01-18T09:47:29Z</time>
      </trkpt>
      <trkpt lat="44.11374" lon="6.19573">
        <ele>1096.52</ele>
        <time>2015-01-18T09:47:45Z</time>
      </trkpt>
      <trkpt lat="44.11381" lon="6.19559">
        <ele>1097.48</ele>
        <time>2015-01-18T09:48:00Z</time>
      </trkpt>
      <trkpt lat="44.11393" lon="6.19548">
        <ele>1098.44</ele>
        <time>2015-01-18T09:48:18Z</time>
      </trkpt>
      <trkpt lat="44.11396" lon="6.19546">
        <ele>1099.89</ele>
        <time>2015-01-18T09:48:26Z</time>
      </trkpt>
      <trkpt lat="44.11404" lon="6.19533">
        <ele>1100.37</ele>
        <time>2015-01-18T09:48:42Z</time>
      </trkpt>
      <trkpt lat="44.11412" lon="6.19527">
        <ele>1103.25</ele>
        <time>2015-01-18T09:49:00Z</time>
      </trkpt>
      <trkpt lat="44.11417" lon="6.19523">
        <ele>1104.21</ele>
        <time>2015-01-18T09:49:09Z</time>
      </trkpt>
      <trkpt lat="44.11428" lon="6.19515">
        <ele>1104.69</ele>
        <time>2015-01-18T09:49:24Z</time>
      </trkpt>
      <trkpt lat="44.1143" lon="6.19503">
        <ele>1107.1</ele>
        <time>2015-01-18T09:49:39Z</time>
      </trkpt>
      <trkpt lat="44.11434" lon="6.19492">
        <ele>1108.06</ele>
        <time>2015-01-18T09:49:53Z</time>
      </trkpt>
      <trkpt lat="44.11437" lon="6.19491">
        <ele>1109.02</ele>
        <time>2015-01-18T09:50:13Z</time>
      </trkpt>
      <trkpt lat="44.11441" lon="6.19489">
        <ele>1110.94</ele>
        <time>2015-01-18T09:50:26Z</time>
      </trkpt>
      <trkpt lat="44.11448" lon="6.19487">
        <ele>1112.86</ele>
        <time>2015-01-18T09:50:40Z</time>
      </trkpt>
      <trkpt lat="44.11456" lon="6.19487">
        <ele>1114.31</ele>
        <time>2015-01-18T09:50:55Z</time>
      </trkpt>
      <trkpt lat="44.11467" lon="6.19485">
        <ele>1115.27</ele>
        <time>2015-01-18T09:51:09Z</time>
      </trkpt>
      <trkpt lat="44.11477" lon="6.19485">
        <ele>1116.71</ele>
        <time>2015-01-18T09:51:25Z</time>
      </trkpt>
      <trkpt lat="44.11484" lon="6.19487">
        <ele>1119.59</ele>
        <time>2015-01-18T09:51:41Z</time>
      </trkpt>
      <trkpt lat="44.11495" lon="6.19484">
        <ele>1120.55</ele>
        <time>2015-01-18T09:51:57Z</time>
      </trkpt>
      <trkpt lat="44.11498" lon="6.19485">
        <ele>1121.03</ele>
        <time>2015-01-18T09:52:01Z</time>
      </trkpt>
      <trkpt lat="44.11507" lon="6.19489">
        <ele>1122</ele>
        <time>2015-01-18T09:52:13Z</time>
      </trkpt>
      <trkpt lat="44.11516" lon="6.19494">
        <ele>1124.4</ele>
        <time>2015-01-18T09:52:28Z</time>
      </trkpt>
      <trkpt lat="44.11525" lon="6.19496">
        <ele>1125.84</ele>
        <time>2015-01-18T09:52:42Z</time>
      </trkpt>
      <trkpt lat="44.11533" lon="6.19498">
        <ele>1128.24</ele>
        <time>2015-01-18T09:52:56Z</time>
      </trkpt>
      <trkpt lat="44.1154" lon="6.19502">
        <ele>1129.69</ele>
        <time>2015-01-18T09:53:10Z</time>
      </trkpt>
      <trkpt lat="44.11548" lon="6.19503">
        <ele>1131.61</ele>
        <time>2015-01-18T09:53:26Z</time>
      </trkpt>
      <trkpt lat="44.11556" lon="6.19503">
        <ele>1134.49</ele>
        <time>2015-01-18T09:53:42Z</time>
      </trkpt>
      <trkpt lat="44.11564" lon="6.19503">
        <ele>1135.94</ele>
        <time>2015-01-18T09:53:56Z</time>
      </trkpt>
      <trkpt lat="44.1157" lon="6.19504">
        <ele>1137.38</ele>
        <time>2015-01-18T09:54:09Z</time>
      </trkpt>
      <trkpt lat="44.1158" lon="6.19507">
        <ele>1139.78</ele>
        <time>2015-01-18T09:54:26Z</time>
      </trkpt>
      <trkpt lat="44.11588" lon="6.19509">
        <ele>1141.7</ele>
        <time>2015-01-18T09:54:40Z</time>
      </trkpt>
      <trkpt lat="44.11597" lon="6.19511">
        <ele>1143.14</ele>
        <time>2015-01-18T09:54:55Z</time>
      </trkpt>
      <trkpt lat="44.11604" lon="6.19517">
        <ele>1145.55</ele>
        <time>2015-01-18T09:55:09Z</time>
      </trkpt>
      <trkpt lat="44.11612" lon="6.1952">
        <ele>1147.47</ele>
        <time>2015-01-18T09:55:25Z</time>
      </trkpt>
      <trkpt lat="44.11622" lon="6.19523">
        <ele>1148.91</ele>
        <time>2015-01-18T09:55:42Z</time>
      </trkpt>
      <trkpt lat="44.11631" lon="6.1953">
        <ele>1151.32</ele>
        <time>2015-01-18T09:55:57Z</time>
      </trkpt>
      <trkpt lat="44.11637" lon="6.19536">
        <ele>1152.76</ele>
        <time>2015-01-18T09:56:12Z</time>
      </trkpt>
      <trkpt lat="44.11644" lon="6.19541">
        <ele>1154.2</ele>
        <time>2015-01-18T09:56:25Z</time>
      </trkpt>
      <trkpt lat="44.11652" lon="6.19546">
        <ele>1155.16</ele>
        <time>2015-01-18T09:56:40Z</time>
      </trkpt>
      <trkpt lat="44.11662" lon="6.19534">
        <ele>1157.08</ele>
        <time>2015-01-18T09:56:59Z</time>
      </trkpt>
      <trkpt lat="44.11668" lon="6.19524">
        <ele>1158.53</ele>
        <time>2015-01-18T09:57:13Z</time>
      </trkpt>
      <trkpt lat="44.11672" lon="6.19511">
        <ele>1159.49</ele>
        <time>2015-01-18T09:57:28Z</time>
      </trkpt>
      <trkpt lat="44.11675" lon="6.19496">
        <ele>1161.89</ele>
        <time>2015-01-18T09:57:44Z</time>
      </trkpt>
      <trkpt lat="44.11678" lon="6.19481">
        <ele>1162.85</ele>
        <time>2015-01-18T09:57:59Z</time>
      </trkpt>
      <trkpt lat="44.11687" lon="6.19476">
        <ele>1164.77</ele>
        <time>2015-01-18T09:58:17Z</time>
      </trkpt>
      <trkpt lat="44.11687" lon="6.1949">
        <ele>1165.74</ele>
        <time>2015-01-18T09:58:31Z</time>
      </trkpt>
      <trkpt lat="44.11691" lon="6.195">
        <ele>1167.66</ele>
        <time>2015-01-18T09:58:46Z</time>
      </trkpt>
      <trkpt lat="44.11695" lon="6.1951">
        <ele>1169.58</ele>
        <time>2015-01-18T09:59:00Z</time>
      </trkpt>
      <trkpt lat="44.11702" lon="6.1952">
        <ele>1171.02</ele>
        <time>2015-01-18T09:59:17Z</time>
      </trkpt>
      <trkpt lat="44.11707" lon="6.19527">
        <ele>1172.47</ele>
        <time>2015-01-18T09:59:30Z</time>
      </trkpt>
      <trkpt lat="44.11714" lon="6.19532">
        <ele>1173.91</ele>
        <time>2015-01-18T09:59:41Z</time>
      </trkpt>
      <trkpt lat="44.11718" lon="6.1954">
        <ele>1174.87</ele>
        <time>2015-01-18T09:59:49Z</time>
      </trkpt>
      <trkpt lat="44.11721" lon="6.19544">
        <ele>1174.39</ele>
        <time>2015-01-18T09:59:53Z</time>
      </trkpt>
      <trkpt lat="44.11728" lon="6.1956">
        <ele>1173.43</ele>
        <time>2015-01-18T10:00:06Z</time>
      </trkpt>
      <trkpt lat="44.11733" lon="6.19583">
        <ele>1174.39</ele>
        <time>2015-01-18T10:00:23Z</time>
      </trkpt>
      <trkpt lat="44.11739" lon="6.19606">
        <ele>1175.35</ele>
        <time>2015-01-18T10:00:43Z</time>
      </trkpt>
      <trkpt lat="44.11742" lon="6.19622">
        <ele>1177.27</ele>
        <time>2015-01-18T10:00:58Z</time>
      </trkpt>
      <trkpt lat="44.11744" lon="6.19636">
        <ele>1178.71</ele>
        <time>2015-01-18T10:01:12Z</time>
      </trkpt>
      <trkpt lat="44.11747" lon="6.19649">
        <ele>1180.16</ele>
        <time>2015-01-18T10:01:25Z</time>
      </trkpt>
      <trkpt lat="44.11749" lon="6.19663">
        <ele>1182.56</ele>
        <time>2015-01-18T10:01:40Z</time>
      </trkpt>
      <trkpt lat="44.11751" lon="6.19676">
        <ele>1184.48</ele>
        <time>2015-01-18T10:01:55Z</time>
      </trkpt>
      <trkpt lat="44.11755" lon="6.19686">
        <ele>1185.92</ele>
        <time>2015-01-18T10:02:10Z</time>
      </trkpt>
      <trkpt lat="44.11757" lon="6.19693">
        <ele>1187.85</ele>
        <time>2015-01-18T10:02:25Z</time>
      </trkpt>
      <trkpt lat="44.11765" lon="6.19695">
        <ele>1190.73</ele>
        <time>2015-01-18T10:02:40Z</time>
      </trkpt>
      <trkpt lat="44.11773" lon="6.19701">
        <ele>1192.17</ele>
        <time>2015-01-18T10:02:55Z</time>
      </trkpt>
      <trkpt lat="44.11781" lon="6.19704">
        <ele>1195.06</ele>
        <time>2015-01-18T10:03:13Z</time>
      </trkpt>
      <trkpt lat="44.11793" lon="6.19705">
        <ele>1196.5</ele>
        <time>2015-01-18T10:03:29Z</time>
      </trkpt>
      <trkpt lat="44.11799" lon="6.19703">
        <ele>1197.46</ele>
        <time>2015-01-18T10:03:38Z</time>
      </trkpt>
      <trkpt lat="44.11806" lon="6.19707">
        <ele>1199.38</ele>
        <time>2015-01-18T10:03:54Z</time>
      </trkpt>
      <trkpt lat="44.11812" lon="6.19712">
        <ele>1202.75</ele>
        <time>2015-01-18T10:04:10Z</time>
      </trkpt>
      <trkpt lat="44.11812" lon="6.19712">
        <ele>1202.75</ele>
        <time>2015-01-18T10:04:16Z</time>
      </trkpt>
      <trkpt lat="44.11822" lon="6.19714">
        <ele>1204.67</ele>
        <time>2015-01-18T10:04:32Z</time>
      </trkpt>
      <trkpt lat="44.11831" lon="6.19717">
        <ele>1206.59</ele>
        <time>2015-01-18T10:04:47Z</time>
      </trkpt>
      <trkpt lat="44.11838" lon="6.19719">
        <ele>1208.51</ele>
        <time>2015-01-18T10:05:04Z</time>
      </trkpt>
      <trkpt lat="44.11846" lon="6.19718">
        <ele>1210.44</ele>
        <time>2015-01-18T10:05:19Z</time>
      </trkpt>
      <trkpt lat="44.11851" lon="6.1972">
        <ele>1211.88</ele>
        <time>2015-01-18T10:05:33Z</time>
      </trkpt>
      <trkpt lat="44.11853" lon="6.1972">
        <ele>1211.88</ele>
        <time>2015-01-18T10:05:35Z</time>
      </trkpt>
      <trkpt lat="44.11863" lon="6.19722">
        <ele>1214.28</ele>
        <time>2015-01-18T10:05:51Z</time>
      </trkpt>
      <trkpt lat="44.11869" lon="6.19726">
        <ele>1216.21</ele>
        <time>2015-01-18T10:06:05Z</time>
      </trkpt>
      <trkpt lat="44.11876" lon="6.19729">
        <ele>1219.09</ele>
        <time>2015-01-18T10:06:22Z</time>
      </trkpt>
      <trkpt lat="44.11886" lon="6.19734">
        <ele>1221.49</ele>
        <time>2015-01-18T10:06:40Z</time>
      </trkpt>
      <trkpt lat="44.11889" lon="6.19734">
        <ele>1221.97</ele>
        <time>2015-01-18T10:06:58Z</time>
      </trkpt>
      <trkpt lat="44.11897" lon="6.19732">
        <ele>1223.42</ele>
        <time>2015-01-18T10:07:16Z</time>
      </trkpt>
      <trkpt lat="44.11905" lon="6.1973">
        <ele>1225.34</ele>
        <time>2015-01-18T10:07:31Z</time>
      </trkpt>
      <trkpt lat="44.11915" lon="6.19734">
        <ele>1226.3</ele>
        <time>2015-01-18T10:07:46Z</time>
      </trkpt>
      <trkpt lat="44.11925" lon="6.19736">
        <ele>1228.22</ele>
        <time>2015-01-18T10:08:02Z</time>
      </trkpt>
      <trkpt lat="44.11936" lon="6.19734">
        <ele>1229.66</ele>
        <time>2015-01-18T10:08:17Z</time>
      </trkpt>
      <trkpt lat="44.11947" lon="6.19732">
        <ele>1230.62</ele>
        <time>2015-01-18T10:08:33Z</time>
      </trkpt>
      <trkpt lat="44.11958" lon="6.1973">
        <ele>1233.03</ele>
        <time>2015-01-18T10:08:49Z</time>
      </trkpt>
      <trkpt lat="44.11967" lon="6.19729">
        <ele>1234.47</ele>
        <time>2015-01-18T10:09:05Z</time>
      </trkpt>
      <trkpt lat="44.11976" lon="6.19724">
        <ele>1237.35</ele>
        <time>2015-01-18T10:09:23Z</time>
      </trkpt>
      <trkpt lat="44.11985" lon="6.19717">
        <ele>1238.8</ele>
        <time>2015-01-18T10:09:40Z</time>
      </trkpt>
      <trkpt lat="44.11992" lon="6.19711">
        <ele>1241.2</ele>
        <time>2015-01-18T10:09:56Z</time>
      </trkpt>
      <trkpt lat="44.12" lon="6.19707">
        <ele>1243.12</ele>
        <time>2015-01-18T10:10:13Z</time>
      </trkpt>
      <trkpt lat="44.12006" lon="6.19704">
        <ele>1245.04</ele>
        <time>2015-01-18T10:10:27Z</time>
      </trkpt>
      <trkpt lat="44.12011" lon="6.1971">
        <ele>1246.97</ele>
        <time>2015-01-18T10:10:41Z</time>
      </trkpt>
      <trkpt lat="44.12019" lon="6.19709">
        <ele>1248.89</ele>
        <time>2015-01-18T10:10:56Z</time>
      </trkpt>
      <trkpt lat="44.12021" lon="6.19706">
        <ele>1251.77</ele>
        <time>2015-01-18T10:11:12Z</time>
      </trkpt>
      <trkpt lat="44.12026" lon="6.197">
        <ele>1253.22</ele>
        <time>2015-01-18T10:11:27Z</time>
      </trkpt>
      <trkpt lat="44.12036" lon="6.19691">
        <ele>1255.62</ele>
        <time>2015-01-18T10:11:44Z</time>
      </trkpt>
      <trkpt lat="44.12046" lon="6.19689">
        <ele>1255.62</ele>
        <time>2015-01-18T10:11:58Z</time>
      </trkpt>
      <trkpt lat="44.12062" lon="6.19685">
        <ele>1256.58</ele>
        <time>2015-01-18T10:12:13Z</time>
      </trkpt>
      <trkpt lat="44.12077" lon="6.19694">
        <ele>1258.02</ele>
        <time>2015-01-18T10:12:28Z</time>
      </trkpt>
      <trkpt lat="44.12083" lon="6.19699">
        <ele>1260.43</ele>
        <time>2015-01-18T10:12:43Z</time>
      </trkpt>
      <trkpt lat="44.12084" lon="6.19699">
        <ele>1261.39</ele>
        <time>2015-01-18T10:13:12Z</time>
      </trkpt>
      <trkpt lat="44.12091" lon="6.19699">
        <ele>1261.39</ele>
        <time>2015-01-18T10:13:19Z</time>
      </trkpt>
      <trkpt lat="44.12102" lon="6.19695">
        <ele>1262.83</ele>
        <time>2015-01-18T10:13:31Z</time>
      </trkpt>
      <trkpt lat="44.12113" lon="6.19691">
        <ele>1265.71</ele>
        <time>2015-01-18T10:13:46Z</time>
      </trkpt>
      <trkpt lat="44.12122" lon="6.19694">
        <ele>1268.12</ele>
        <time>2015-01-18T10:14:01Z</time>
      </trkpt>
      <trkpt lat="44.12133" lon="6.19692">
        <ele>1268.12</ele>
        <time>2015-01-18T10:14:14Z</time>
      </trkpt>
      <trkpt lat="44.12146" lon="6.19687">
        <ele>1268.6</ele>
        <time>2015-01-18T10:14:29Z</time>
      </trkpt>
      <trkpt lat="44.12156" lon="6.19677">
        <ele>1270.52</ele>
        <time>2015-01-18T10:14:47Z</time>
      </trkpt>
      <trkpt lat="44.12167" lon="6.19681">
        <ele>1272.92</ele>
        <time>2015-01-18T10:15:04Z</time>
      </trkpt>
      <trkpt lat="44.12174" lon="6.19683">
        <ele>1273.88</ele>
        <time>2015-01-18T10:15:13Z</time>
      </trkpt>
      <trkpt lat="44.12185" lon="6.19688">
        <ele>1276.29</ele>
        <time>2015-01-18T10:15:28Z</time>
      </trkpt>
      <trkpt lat="44.12198" lon="6.19685">
        <ele>1277.73</ele>
        <time>2015-01-18T10:15:46Z</time>
      </trkpt>
      <trkpt lat="44.12201" lon="6.19684">
        <ele>1276.77</ele>
        <time>2015-01-18T10:15:49Z</time>
      </trkpt>
      <trkpt lat="44.12214" lon="6.19677">
        <ele>1279.17</ele>
        <time>2015-01-18T10:16:05Z</time>
      </trkpt>
      <trkpt lat="44.12223" lon="6.19674">
        <ele>1281.09</ele>
        <time>2015-01-18T10:16:20Z</time>
      </trkpt>
      <trkpt lat="44.12235" lon="6.19669">
        <ele>1282.54</ele>
        <time>2015-01-18T10:16:34Z</time>
      </trkpt>
      <trkpt lat="44.12245" lon="6.19668">
        <ele>1283.98</ele>
        <time>2015-01-18T10:16:48Z</time>
      </trkpt>
      <trkpt lat="44.12257" lon="6.19663">
        <ele>1284.94</ele>
        <time>2015-01-18T10:17:03Z</time>
      </trkpt>
      <trkpt lat="44.12267" lon="6.19668">
        <ele>1287.34</ele>
        <time>2015-01-18T10:17:19Z</time>
      </trkpt>
      <trkpt lat="44.12276" lon="6.19681">
        <ele>1288.78</ele>
        <time>2015-01-18T10:17:37Z</time>
      </trkpt>
      <trkpt lat="44.12285" lon="6.19694">
        <ele>1291.19</ele>
        <time>2015-01-18T10:17:56Z</time>
      </trkpt>
      <trkpt lat="44.12292" lon="6.19703">
        <ele>1293.11</ele>
        <time>2015-01-18T10:18:09Z</time>
      </trkpt>
      <trkpt lat="44.12305" lon="6.19714">
        <ele>1293.59</ele>
        <time>2015-01-18T10:18:24Z</time>
      </trkpt>
      <trkpt lat="44.1231" lon="6.19719">
        <ele>1294.55</ele>
        <time>2015-01-18T10:18:32Z</time>
      </trkpt>
      <trkpt lat="44.12313" lon="6.19719">
        <ele>1294.07</ele>
        <time>2015-01-18T10:18:35Z</time>
      </trkpt>
      <trkpt lat="44.12326" lon="6.19728">
        <ele>1295.99</ele>
        <time>2015-01-18T10:18:53Z</time>
      </trkpt>
      <trkpt lat="44.1233" lon="6.19732">
        <ele>1296.48</ele>
        <time>2015-01-18T10:18:57Z</time>
      </trkpt>
      <trkpt lat="44.12335" lon="6.19745">
        <ele>1297.92</ele>
        <time>2015-01-18T10:19:11Z</time>
      </trkpt>
      <trkpt lat="44.12336" lon="6.19746">
        <ele>1298.88</ele>
        <time>2015-01-18T10:19:13Z</time>
      </trkpt>
      <trkpt lat="44.1234" lon="6.19752">
        <ele>1298.88</ele>
        <time>2015-01-18T10:19:20Z</time>
      </trkpt>
      <trkpt lat="44.12345" lon="6.19768">
        <ele>1300.32</ele>
        <time>2015-01-18T10:19:35Z</time>
      </trkpt>
      <trkpt lat="44.12345" lon="6.19784">
        <ele>1303.2</ele>
        <time>2015-01-18T10:19:53Z</time>
      </trkpt>
      <trkpt lat="44.12345" lon="6.19793">
        <ele>1306.09</ele>
        <time>2015-01-18T10:20:09Z</time>
      </trkpt>
      <trkpt lat="44.12346" lon="6.19801">
        <ele>1306.57</ele>
        <time>2015-01-18T10:20:17Z</time>
      </trkpt>
      <trkpt lat="44.12345" lon="6.19811">
        <ele>1308.49</ele>
        <time>2015-01-18T10:20:30Z</time>
      </trkpt>
      <trkpt lat="44.12345" lon="6.19815">
        <ele>1308.49</ele>
        <time>2015-01-18T10:20:48Z</time>
      </trkpt>
      <trkpt lat="44.12347" lon="6.19818">
        <ele>1308.97</ele>
        <time>2015-01-18T10:20:59Z</time>
      </trkpt>
      <trkpt lat="44.12354" lon="6.19823">
        <ele>1308.49</ele>
        <time>2015-01-18T10:21:09Z</time>
      </trkpt>
      <trkpt lat="44.12357" lon="6.19827">
        <ele>1308.49</ele>
        <time>2015-01-18T10:21:13Z</time>
      </trkpt>
      <trkpt lat="44.12361" lon="6.19839">
        <ele>1312.34</ele>
        <time>2015-01-18T10:21:28Z</time>
      </trkpt>
      <trkpt lat="44.12365" lon="6.19843">
        <ele>1313.78</ele>
        <time>2015-01-18T10:21:40Z</time>
      </trkpt>
      <trkpt lat="44.1237" lon="6.19845">
        <ele>1314.26</ele>
        <time>2015-01-18T10:21:46Z</time>
      </trkpt>
      <trkpt lat="44.12375" lon="6.19847">
        <ele>1315.22</ele>
        <time>2015-01-18T10:22:00Z</time>
      </trkpt>
      <trkpt lat="44.12381" lon="6.19851">
        <ele>1318.59</ele>
        <time>2015-01-18T10:22:15Z</time>
      </trkpt>
      <trkpt lat="44.12384" lon="6.1985">
        <ele>1318.59</ele>
        <time>2015-01-18T10:22:22Z</time>
      </trkpt>
      <trkpt lat="44.12393" lon="6.19839">
        <ele>1320.03</ele>
        <time>2015-01-18T10:22:39Z</time>
      </trkpt>
      <trkpt lat="44.12405" lon="6.19842">
        <ele>1322.91</ele>
        <time>2015-01-18T10:22:55Z</time>
      </trkpt>
      <trkpt lat="44.12411" lon="6.19839">
        <ele>1323.87</ele>
        <time>2015-01-18T10:23:09Z</time>
      </trkpt>
      <trkpt lat="44.12419" lon="6.19845">
        <ele>1325.8</ele>
        <time>2015-01-18T10:23:24Z</time>
      </trkpt>
      <trkpt lat="44.12425" lon="6.19844">
        <ele>1327.24</ele>
        <time>2015-01-18T10:23:37Z</time>
      </trkpt>
      <trkpt lat="44.12436" lon="6.19842">
        <ele>1327.72</ele>
        <time>2015-01-18T10:23:51Z</time>
      </trkpt>
      <trkpt lat="44.12449" lon="6.1984">
        <ele>1329.64</ele>
        <time>2015-01-18T10:24:07Z</time>
      </trkpt>
      <trkpt lat="44.12457" lon="6.19843">
        <ele>1331.56</ele>
        <time>2015-01-18T10:24:22Z</time>
      </trkpt>
      <trkpt lat="44.12468" lon="6.19845">
        <ele>1333.97</ele>
        <time>2015-01-18T10:24:39Z</time>
      </trkpt>
      <trkpt lat="44.12471" lon="6.19846">
        <ele>1335.41</ele>
        <time>2015-01-18T10:24:46Z</time>
      </trkpt>
      <trkpt lat="44.12477" lon="6.19846">
        <ele>1335.89</ele>
        <time>2015-01-18T10:24:53Z</time>
      </trkpt>
      <trkpt lat="44.1249" lon="6.19846">
        <ele>1337.33</ele>
        <time>2015-01-18T10:25:07Z</time>
      </trkpt>
      <trkpt lat="44.12507" lon="6.19843">
        <ele>1336.37</ele>
        <time>2015-01-18T10:25:23Z</time>
      </trkpt>
      <trkpt lat="44.1251" lon="6.19843">
        <ele>1336.85</ele>
        <time>2015-01-18T10:25:27Z</time>
      </trkpt>
      <trkpt lat="44.12516" lon="6.1984">
        <ele>1337.81</ele>
        <time>2015-01-18T10:25:35Z</time>
      </trkpt>
      <trkpt lat="44.1252" lon="6.19839">
        <ele>1338.29</ele>
        <time>2015-01-18T10:25:40Z</time>
      </trkpt>
      <trkpt lat="44.12536" lon="6.1983">
        <ele>1339.73</ele>
        <time>2015-01-18T10:25:58Z</time>
      </trkpt>
      <trkpt lat="44.12549" lon="6.19819">
        <ele>1341.66</ele>
        <time>2015-01-18T10:26:14Z</time>
      </trkpt>
      <trkpt lat="44.1256" lon="6.19807">
        <ele>1343.58</ele>
        <time>2015-01-18T10:26:29Z</time>
      </trkpt>
      <trkpt lat="44.12569" lon="6.19796">
        <ele>1344.54</ele>
        <time>2015-01-18T10:26:45Z</time>
      </trkpt>
      <trkpt lat="44.12574" lon="6.19792">
        <ele>1345.98</ele>
        <time>2015-01-18T10:27:00Z</time>
      </trkpt>
      <trkpt lat="44.12581" lon="6.19789">
        <ele>1346.94</ele>
        <time>2015-01-18T10:27:21Z</time>
      </trkpt>
      <trkpt lat="44.12591" lon="6.19783">
        <ele>1348.87</ele>
        <time>2015-01-18T10:27:37Z</time>
      </trkpt>
      <trkpt lat="44.12598" lon="6.19779">
        <ele>1349.35</ele>
        <time>2015-01-18T10:27:44Z</time>
      </trkpt>
      <trkpt lat="44.12612" lon="6.19774">
        <ele>1350.79</ele>
        <time>2015-01-18T10:28:00Z</time>
      </trkpt>
      <trkpt lat="44.12624" lon="6.19775">
        <ele>1353.67</ele>
        <time>2015-01-18T10:28:15Z</time>
      </trkpt>
      <trkpt lat="44.12634" lon="6.19773">
        <ele>1354.63</ele>
        <time>2015-01-18T10:28:28Z</time>
      </trkpt>
      <trkpt lat="44.12638" lon="6.19772">
        <ele>1355.6</ele>
        <time>2015-01-18T10:28:32Z</time>
      </trkpt>
      <trkpt lat="44.1264" lon="6.19772">
        <ele>1355.12</ele>
        <time>2015-01-18T10:28:34Z</time>
      </trkpt>
      <trkpt lat="44.1265" lon="6.19771">
        <ele>1357.04</ele>
        <time>2015-01-18T10:28:48Z</time>
      </trkpt>
      <trkpt lat="44.12661" lon="6.19772">
        <ele>1358.96</ele>
        <time>2015-01-18T10:29:04Z</time>
      </trkpt>
      <trkpt lat="44.1267" lon="6.19771">
        <ele>1361.36</ele>
        <time>2015-01-18T10:29:18Z</time>
      </trkpt>
      <trkpt lat="44.12681" lon="6.19771">
        <ele>1363.77</ele>
        <time>2015-01-18T10:29:34Z</time>
      </trkpt>
      <trkpt lat="44.1269" lon="6.19772">
        <ele>1365.69</ele>
        <time>2015-01-18T10:29:49Z</time>
      </trkpt>
      <trkpt lat="44.127" lon="6.19767">
        <ele>1367.61</ele>
        <time>2015-01-18T10:30:05Z</time>
      </trkpt>
      <trkpt lat="44.12711" lon="6.19766">
        <ele>1369.54</ele>
        <time>2015-01-18T10:30:20Z</time>
      </trkpt>
      <trkpt lat="44.1272" lon="6.19765">
        <ele>1370.98</ele>
        <time>2015-01-18T10:30:33Z</time>
      </trkpt>
      <trkpt lat="44.12732" lon="6.19764">
        <ele>1373.38</ele>
        <time>2015-01-18T10:30:49Z</time>
      </trkpt>
      <trkpt lat="44.12736" lon="6.19763">
        <ele>1372.9</ele>
        <time>2015-01-18T10:30:54Z</time>
      </trkpt>
      <trkpt lat="44.12747" lon="6.19756">
        <ele>1373.86</ele>
        <time>2015-01-18T10:31:10Z</time>
      </trkpt>
      <trkpt lat="44.12759" lon="6.19752">
        <ele>1375.3</ele>
        <time>2015-01-18T10:31:24Z</time>
      </trkpt>
      <trkpt lat="44.12773" lon="6.19747">
        <ele>1377.23</ele>
        <time>2015-01-18T10:31:42Z</time>
      </trkpt>
      <trkpt lat="44.12785" lon="6.19743">
        <ele>1379.15</ele>
        <time>2015-01-18T10:31:58Z</time>
      </trkpt>
      <trkpt lat="44.12798" lon="6.19738">
        <ele>1381.55</ele>
        <time>2015-01-18T10:32:14Z</time>
      </trkpt>
      <trkpt lat="44.12812" lon="6.19731">
        <ele>1383.47</ele>
        <time>2015-01-18T10:32:30Z</time>
      </trkpt>
      <trkpt lat="44.12828" lon="6.19725">
        <ele>1386.36</ele>
        <time>2015-01-18T10:32:48Z</time>
      </trkpt>
      <trkpt lat="44.1284" lon="6.19721">
        <ele>1388.76</ele>
        <time>2015-01-18T10:33:06Z</time>
      </trkpt>
      <trkpt lat="44.12848" lon="6.19716">
        <ele>1390.2</ele>
        <time>2015-01-18T10:33:21Z</time>
      </trkpt>
      <trkpt lat="44.12853" lon="6.19711">
        <ele>1391.65</ele>
        <time>2015-01-18T10:33:38Z</time>
      </trkpt>
      <trkpt lat="44.12865" lon="6.19709">
        <ele>1394.05</ele>
        <time>2015-01-18T10:33:53Z</time>
      </trkpt>
      <trkpt lat="44.12872" lon="6.19712">
        <ele>1395.97</ele>
        <time>2015-01-18T10:34:06Z</time>
      </trkpt>
      <trkpt lat="44.12877" lon="6.1972">
        <ele>1397.41</ele>
        <time>2015-01-18T10:34:19Z</time>
      </trkpt>
      <trkpt lat="44.12878" lon="6.19724">
        <ele>1397.41</ele>
        <time>2015-01-18T10:34:34Z</time>
      </trkpt>
      <trkpt lat="44.12883" lon="6.19722">
        <ele>1397.89</ele>
        <time>2015-01-18T10:34:59Z</time>
      </trkpt>
      <trkpt lat="44.12885" lon="6.19722">
        <ele>1397.89</ele>
        <time>2015-01-18T10:35:15Z</time>
      </trkpt>
      <trkpt lat="44.12885" lon="6.19722">
        <ele>1397.41</ele>
        <time>2015-01-18T10:35:49Z</time>
      </trkpt>
      <trkpt lat="44.12888" lon="6.19719">
        <ele>1398.37</ele>
        <time>2015-01-18T10:36:08Z</time>
      </trkpt>
      <trkpt lat="44.12891" lon="6.19716">
        <ele>1398.37</ele>
        <time>2015-01-18T10:36:21Z</time>
      </trkpt>
      <trkpt lat="44.12887" lon="6.19708">
        <ele>1398.37</ele>
        <time>2015-01-18T10:36:37Z</time>
      </trkpt>
      <trkpt lat="44.12889" lon="6.19702">
        <ele>1398.86</ele>
        <time>2015-01-18T10:36:54Z</time>
      </trkpt>
      <trkpt lat="44.12903" lon="6.19697">
        <ele>1400.3</ele>
        <time>2015-01-18T10:37:11Z</time>
      </trkpt>
      <trkpt lat="44.12908" lon="6.19693">
        <ele>1401.26</ele>
        <time>2015-01-18T10:37:26Z</time>
      </trkpt>
      <trkpt lat="44.12908" lon="6.19693">
        <ele>1401.26</ele>
        <time>2015-01-18T10:37:47Z</time>
      </trkpt>
      <trkpt lat="44.12908" lon="6.19693">
        <ele>1400.78</ele>
        <time>2015-01-18T10:38:13Z</time>
      </trkpt>
      <trkpt lat="44.12911" lon="6.19694">
        <ele>1401.26</ele>
        <time>2015-01-18T10:38:34Z</time>
      </trkpt>
      <trkpt lat="44.12915" lon="6.19695">
        <ele>1400.3</ele>
        <time>2015-01-18T10:38:48Z</time>
      </trkpt>
      <trkpt lat="44.12919" lon="6.19692">
        <ele>1399.34</ele>
        <time>2015-01-18T10:39:01Z</time>
      </trkpt>
      <trkpt lat="44.12924" lon="6.19688">
        <ele>1399.34</ele>
        <time>2015-01-18T10:39:10Z</time>
      </trkpt>
      <trkpt lat="44.12926" lon="6.19686">
        <ele>1398.37</ele>
        <time>2015-01-18T10:39:12Z</time>
      </trkpt>
      <trkpt lat="44.12937" lon="6.19669">
        <ele>1398.37</ele>
        <time>2015-01-18T10:39:28Z</time>
      </trkpt>
      <trkpt lat="44.1295" lon="6.19653">
        <ele>1398.37</ele>
        <time>2015-01-18T10:39:45Z</time>
      </trkpt>
      <trkpt lat="44.12957" lon="6.19646">
        <ele>1398.37</ele>
        <time>2015-01-18T10:39:54Z</time>
      </trkpt>
      <trkpt lat="44.12975" lon="6.19644">
        <ele>1398.37</ele>
        <time>2015-01-18T10:40:12Z</time>
      </trkpt>
      <trkpt lat="44.12987" lon="6.19634">
        <ele>1398.86</ele>
        <time>2015-01-18T10:40:27Z</time>
      </trkpt>
      <trkpt lat="44.12991" lon="6.19631">
        <ele>1399.82</ele>
        <time>2015-01-18T10:40:34Z</time>
      </trkpt>
      <trkpt lat="44.13007" lon="6.19621">
        <ele>1398.37</ele>
        <time>2015-01-18T10:40:50Z</time>
      </trkpt>
      <trkpt lat="44.1302" lon="6.19616">
        <ele>1396.93</ele>
        <time>2015-01-18T10:41:04Z</time>
      </trkpt>
      <trkpt lat="44.1303" lon="6.19609">
        <ele>1397.41</ele>
        <time>2015-01-18T10:41:15Z</time>
      </trkpt>
      <trkpt lat="44.13033" lon="6.19606">
        <ele>1400.3</ele>
        <time>2015-01-18T10:41:21Z</time>
      </trkpt>
      <trkpt lat="44.13033" lon="6.19606">
        <ele>1396.45</ele>
        <time>2015-01-18T10:41:22Z</time>
      </trkpt>
      <trkpt lat="44.13033" lon="6.19606">
        <ele>1389.72</ele>
        <time>2015-01-18T10:41:23Z</time>
      </trkpt>
      <trkpt lat="44.13033" lon="6.19606">
        <ele>1396.45</ele>
        <time>2015-01-18T10:41:24Z</time>
      </trkpt>
      <trkpt lat="44.13033" lon="6.19606">
        <ele>1390.2</ele>
        <time>2015-01-18T10:41:25Z</time>
      </trkpt>
      <trkpt lat="44.13033" lon="6.19606">
        <ele>1399.34</ele>
        <time>2015-01-18T10:41:26Z</time>
      </trkpt>
      <trkpt lat="44.13033" lon="6.19606">
        <ele>1395.97</ele>
        <time>2015-01-18T10:41:35Z</time>
      </trkpt>
      <trkpt lat="44.13033" lon="6.19606">
        <ele>1396.45</ele>
        <time>2015-01-18T10:41:56Z</time>
      </trkpt>
      <trkpt lat="44.13033" lon="6.19605">
        <ele>1396.93</ele>
        <time>2015-01-18T10:42:19Z</time>
      </trkpt>
      <trkpt lat="44.13034" lon="6.19605">
        <ele>1397.41</ele>
        <time>2015-01-18T10:42:20Z</time>
      </trkpt>
      <trkpt lat="44.13044" lon="6.196">
        <ele>1396.93</ele>
        <time>2015-01-18T10:42:28Z</time>
      </trkpt>
      <trkpt lat="44.13058" lon="6.19595">
        <ele>1397.89</ele>
        <time>2015-01-18T10:42:40Z</time>
      </trkpt>
      <trkpt lat="44.13076" lon="6.19601">
        <ele>1397.89</ele>
        <time>2015-01-18T10:42:56Z</time>
      </trkpt>
      <trkpt lat="44.13085" lon="6.19602">
        <ele>1398.86</ele>
        <time>2015-01-18T10:43:05Z</time>
      </trkpt>
      <trkpt lat="44.13097" lon="6.19602">
        <ele>1399.82</ele>
        <time>2015-01-18T10:43:19Z</time>
      </trkpt>
      <trkpt lat="44.13109" lon="6.19605">
        <ele>1400.3</ele>
        <time>2015-01-18T10:43:31Z</time>
      </trkpt>
      <trkpt lat="44.13122" lon="6.19608">
        <ele>1400.78</ele>
        <time>2015-01-18T10:43:44Z</time>
      </trkpt>
      <trkpt lat="44.1313" lon="6.19608">
        <ele>1403.18</ele>
        <time>2015-01-18T10:43:57Z</time>
      </trkpt>
      <trkpt lat="44.13139" lon="6.19616">
        <ele>1404.62</ele>
        <time>2015-01-18T10:44:10Z</time>
      </trkpt>
      <trkpt lat="44.1315" lon="6.19623">
        <ele>1403.18</ele>
        <time>2015-01-18T10:44:24Z</time>
      </trkpt>
      <trkpt lat="44.13161" lon="6.19626">
        <ele>1401.74</ele>
        <time>2015-01-18T10:44:34Z</time>
      </trkpt>
      <trkpt lat="44.13174" lon="6.19634">
        <ele>1399.34</ele>
        <time>2015-01-18T10:44:49Z</time>
      </trkpt>
      <trkpt lat="44.13174" lon="6.19634">
        <ele>1399.82</ele>
        <time>2015-01-18T10:44:51Z</time>
      </trkpt>
      <trkpt lat="44.13178" lon="6.19635">
        <ele>1399.34</ele>
        <time>2015-01-18T10:44:54Z</time>
      </trkpt>
      <trkpt lat="44.13185" lon="6.19634">
        <ele>1398.86</ele>
        <time>2015-01-18T10:45:00Z</time>
      </trkpt>
      <trkpt lat="44.13194" lon="6.19631">
        <ele>1399.82</ele>
        <time>2015-01-18T10:45:08Z</time>
      </trkpt>
      <trkpt lat="44.1321" lon="6.19631">
        <ele>1399.82</ele>
        <time>2015-01-18T10:45:24Z</time>
      </trkpt>
      <trkpt lat="44.13226" lon="6.19623">
        <ele>1399.82</ele>
        <time>2015-01-18T10:45:40Z</time>
      </trkpt>
      <trkpt lat="44.13234" lon="6.19618">
        <ele>1400.3</ele>
        <time>2015-01-18T10:45:49Z</time>
      </trkpt>
      <trkpt lat="44.1324" lon="6.19613">
        <ele>1399.34</ele>
        <time>2015-01-18T10:45:56Z</time>
      </trkpt>
      <trkpt lat="44.13253" lon="6.19612">
        <ele>1398.86</ele>
        <time>2015-01-18T10:46:09Z</time>
      </trkpt>
      <trkpt lat="44.13273" lon="6.19609">
        <ele>1397.89</ele>
        <time>2015-01-18T10:46:25Z</time>
      </trkpt>
      <trkpt lat="44.13275" lon="6.19609">
        <ele>1397.41</ele>
        <time>2015-01-18T10:46:29Z</time>
      </trkpt>
      <trkpt lat="44.13277" lon="6.19608">
        <ele>1397.41</ele>
        <time>2015-01-18T10:46:32Z</time>
      </trkpt>
      <trkpt lat="44.13294" lon="6.196">
        <ele>1397.89</ele>
        <time>2015-01-18T10:46:49Z</time>
      </trkpt>
      <trkpt lat="44.13307" lon="6.19594">
        <ele>1396.45</ele>
        <time>2015-01-18T10:47:03Z</time>
      </trkpt>
      <trkpt lat="44.13319" lon="6.19587">
        <ele>1396.45</ele>
        <time>2015-01-18T10:47:15Z</time>
      </trkpt>
      <trkpt lat="44.13335" lon="6.19574">
        <ele>1396.93</ele>
        <time>2015-01-18T10:47:33Z</time>
      </trkpt>
      <trkpt lat="44.13347" lon="6.19557">
        <ele>1395.01</ele>
        <time>2015-01-18T10:47:51Z</time>
      </trkpt>
      <trkpt lat="44.13355" lon="6.19538">
        <ele>1392.61</ele>
        <time>2015-01-18T10:48:08Z</time>
      </trkpt>
      <trkpt lat="44.13357" lon="6.1953">
        <ele>1392.13</ele>
        <time>2015-01-18T10:48:22Z</time>
      </trkpt>
      <trkpt lat="44.1336" lon="6.19522">
        <ele>1391.17</ele>
        <time>2015-01-18T10:48:37Z</time>
      </trkpt>
      <trkpt lat="44.1336" lon="6.19522">
        <ele>1391.65</ele>
        <time>2015-01-18T10:49:03Z</time>
      </trkpt>
      <trkpt lat="44.13361" lon="6.1952">
        <ele>1391.65</ele>
        <time>2015-01-18T10:49:13Z</time>
      </trkpt>
      <trkpt lat="44.13363" lon="6.19514">
        <ele>1391.17</ele>
        <time>2015-01-18T10:49:25Z</time>
      </trkpt>
      <trkpt lat="44.13377" lon="6.19499">
        <ele>1389.72</ele>
        <time>2015-01-18T10:49:42Z</time>
      </trkpt>
      <trkpt lat="44.13384" lon="6.19494">
        <ele>1388.28</ele>
        <time>2015-01-18T10:49:58Z</time>
      </trkpt>
      <trkpt lat="44.13385" lon="6.19494">
        <ele>1388.28</ele>
        <time>2015-01-18T10:49:59Z</time>
      </trkpt>
      <trkpt lat="44.134" lon="6.19482">
        <ele>1387.8</ele>
        <time>2015-01-18T10:50:15Z</time>
      </trkpt>
      <trkpt lat="44.13412" lon="6.19471">
        <ele>1387.8</ele>
        <time>2015-01-18T10:50:31Z</time>
      </trkpt>
      <trkpt lat="44.13424" lon="6.19457">
        <ele>1388.76</ele>
        <time>2015-01-18T10:50:46Z</time>
      </trkpt>
      <trkpt lat="44.13433" lon="6.19441">
        <ele>1389.72</ele>
        <time>2015-01-18T10:51:01Z</time>
      </trkpt>
      <trkpt lat="44.13445" lon="6.19426">
        <ele>1390.2</ele>
        <time>2015-01-18T10:51:15Z</time>
      </trkpt>
      <trkpt lat="44.13456" lon="6.19413">
        <ele>1390.68</ele>
        <time>2015-01-18T10:51:30Z</time>
      </trkpt>
      <trkpt lat="44.13454" lon="6.19413">
        <ele>1391.65</ele>
        <time>2015-01-18T10:51:42Z</time>
      </trkpt>
      <trkpt lat="44.13462" lon="6.19407">
        <ele>1391.17</ele>
        <time>2015-01-18T10:51:54Z</time>
      </trkpt>
      <trkpt lat="44.13469" lon="6.194">
        <ele>1390.2</ele>
        <time>2015-01-18T10:52:09Z</time>
      </trkpt>
      <trkpt lat="44.13468" lon="6.19402">
        <ele>1390.68</ele>
        <time>2015-01-18T10:52:25Z</time>
      </trkpt>
      <trkpt lat="44.13473" lon="6.19393">
        <ele>1391.17</ele>
        <time>2015-01-18T10:52:33Z</time>
      </trkpt>
      <trkpt lat="44.13486" lon="6.19369">
        <ele>1391.17</ele>
        <time>2015-01-18T10:52:52Z</time>
      </trkpt>
      <trkpt lat="44.13488" lon="6.19365">
        <ele>1391.17</ele>
        <time>2015-01-18T10:52:55Z</time>
      </trkpt>
      <trkpt lat="44.1349" lon="6.1936">
        <ele>1392.13</ele>
        <time>2015-01-18T10:52:59Z</time>
      </trkpt>
      <trkpt lat="44.13507" lon="6.19347">
        <ele>1392.61</ele>
        <time>2015-01-18T10:53:16Z</time>
      </trkpt>
      <trkpt lat="44.13521" lon="6.19343">
        <ele>1392.13</ele>
        <time>2015-01-18T10:53:29Z</time>
      </trkpt>
      <trkpt lat="44.13531" lon="6.19347">
        <ele>1392.61</ele>
        <time>2015-01-18T10:53:39Z</time>
      </trkpt>
      <trkpt lat="44.13542" lon="6.19337">
        <ele>1395.01</ele>
        <time>2015-01-18T10:53:54Z</time>
      </trkpt>
      <trkpt lat="44.13553" lon="6.19328">
        <ele>1396.45</ele>
        <time>2015-01-18T10:54:09Z</time>
      </trkpt>
      <trkpt lat="44.13555" lon="6.19326">
        <ele>1396.45</ele>
        <time>2015-01-18T10:54:12Z</time>
      </trkpt>
      <trkpt lat="44.13567" lon="6.19318">
        <ele>1397.41</ele>
        <time>2015-01-18T10:54:27Z</time>
      </trkpt>
      <trkpt lat="44.13572" lon="6.19312">
        <ele>1397.89</ele>
        <time>2015-01-18T10:54:34Z</time>
      </trkpt>
      <trkpt lat="44.13583" lon="6.19302">
        <ele>1398.86</ele>
        <time>2015-01-18T10:54:47Z</time>
      </trkpt>
      <trkpt lat="44.13589" lon="6.19299">
        <ele>1400.3</ele>
        <time>2015-01-18T10:54:55Z</time>
      </trkpt>
      <trkpt lat="44.13602" lon="6.19286">
        <ele>1401.74</ele>
        <time>2015-01-18T10:55:13Z</time>
      </trkpt>
      <trkpt lat="44.13609" lon="6.19281">
        <ele>1404.14</ele>
        <time>2015-01-18T10:55:27Z</time>
      </trkpt>
      <trkpt lat="44.13614" lon="6.19276">
        <ele>1406.07</ele>
        <time>2015-01-18T10:55:41Z</time>
      </trkpt>
      <trkpt lat="44.13621" lon="6.19263">
        <ele>1407.99</ele>
        <time>2015-01-18T10:55:57Z</time>
      </trkpt>
      <trkpt lat="44.13629" lon="6.19254">
        <ele>1409.91</ele>
        <time>2015-01-18T10:56:13Z</time>
      </trkpt>
      <trkpt lat="44.13638" lon="6.19251">
        <ele>1412.31</ele>
        <time>2015-01-18T10:56:30Z</time>
      </trkpt>
      <trkpt lat="44.13642" lon="6.19252">
        <ele>1414.24</ele>
        <time>2015-01-18T10:56:44Z</time>
      </trkpt>
      <trkpt lat="44.13647" lon="6.1925">
        <ele>1415.2</ele>
        <time>2015-01-18T10:56:59Z</time>
      </trkpt>
      <trkpt lat="44.13653" lon="6.19248">
        <ele>1417.12</ele>
        <time>2015-01-18T10:57:14Z</time>
      </trkpt>
      <trkpt lat="44.13662" lon="6.19243">
        <ele>1419.52</ele>
        <time>2015-01-18T10:57:31Z</time>
      </trkpt>
      <trkpt lat="44.13668" lon="6.19241">
        <ele>1421.45</ele>
        <time>2015-01-18T10:57:46Z</time>
      </trkpt>
      <trkpt lat="44.13668" lon="6.19242">
        <ele>1421.93</ele>
        <time>2015-01-18T10:57:48Z</time>
      </trkpt>
      <trkpt lat="44.13675" lon="6.19242">
        <ele>1423.85</ele>
        <time>2015-01-18T10:58:02Z</time>
      </trkpt>
      <trkpt lat="44.13683" lon="6.19241">
        <ele>1425.29</ele>
        <time>2015-01-18T10:58:17Z</time>
      </trkpt>
      <trkpt lat="44.13694" lon="6.19238">
        <ele>1425.77</ele>
        <time>2015-01-18T10:58:33Z</time>
      </trkpt>
      <trkpt lat="44.13697" lon="6.19236">
        <ele>1426.25</ele>
        <time>2015-01-18T10:58:36Z</time>
      </trkpt>
      <trkpt lat="44.13716" lon="6.19227">
        <ele>1425.77</ele>
        <time>2015-01-18T10:58:53Z</time>
      </trkpt>
      <trkpt lat="44.1372" lon="6.19224">
        <ele>1425.77</ele>
        <time>2015-01-18T10:58:57Z</time>
      </trkpt>
      <trkpt lat="44.13728" lon="6.19223">
        <ele>1427.21</ele>
        <time>2015-01-18T10:59:05Z</time>
      </trkpt>
      <trkpt lat="44.13744" lon="6.19212">
        <ele>1428.66</ele>
        <time>2015-01-18T10:59:24Z</time>
      </trkpt>
      <trkpt lat="44.13746" lon="6.1921">
        <ele>1429.14</ele>
        <time>2015-01-18T10:59:40Z</time>
      </trkpt>
      <trkpt lat="44.13749" lon="6.19211">
        <ele>1429.14</ele>
        <time>2015-01-18T10:59:46Z</time>
      </trkpt>
      <trkpt lat="44.13761" lon="6.19214">
        <ele>1431.06</ele>
        <time>2015-01-18T11:00:02Z</time>
      </trkpt>
      <trkpt lat="44.13769" lon="6.1921">
        <ele>1433.46</ele>
        <time>2015-01-18T11:00:16Z</time>
      </trkpt>
      <trkpt lat="44.13777" lon="6.19209">
        <ele>1436.35</ele>
        <time>2015-01-18T11:00:30Z</time>
      </trkpt>
      <trkpt lat="44.13787" lon="6.19205">
        <ele>1437.31</ele>
        <time>2015-01-18T11:00:46Z</time>
      </trkpt>
      <trkpt lat="44.13796" lon="6.19205">
        <ele>1440.19</ele>
        <time>2015-01-18T11:01:00Z</time>
      </trkpt>
      <trkpt lat="44.13808" lon="6.19205">
        <ele>1442.11</ele>
        <time>2015-01-18T11:01:18Z</time>
      </trkpt>
      <trkpt lat="44.13811" lon="6.19203">
        <ele>1444.52</ele>
        <time>2015-01-18T11:01:27Z</time>
      </trkpt>
      <trkpt lat="44.13818" lon="6.192">
        <ele>1444.04</ele>
        <time>2015-01-18T11:01:44Z</time>
      </trkpt>
      <trkpt lat="44.13819" lon="6.19199">
        <ele>1445.48</ele>
        <time>2015-01-18T11:01:47Z</time>
      </trkpt>
      <trkpt lat="44.13829" lon="6.19196">
        <ele>1446.92</ele>
        <time>2015-01-18T11:02:02Z</time>
      </trkpt>
      <trkpt lat="44.13835" lon="6.19193">
        <ele>1448.84</ele>
        <time>2015-01-18T11:02:17Z</time>
      </trkpt>
      <trkpt lat="44.13842" lon="6.19188">
        <ele>1450.77</ele>
        <time>2015-01-18T11:02:32Z</time>
      </trkpt>
      <trkpt lat="44.13849" lon="6.19186">
        <ele>1453.17</ele>
        <time>2015-01-18T11:02:48Z</time>
      </trkpt>
      <trkpt lat="44.13852" lon="6.19182">
        <ele>1454.61</ele>
        <time>2015-01-18T11:03:05Z</time>
      </trkpt>
      <trkpt lat="44.13858" lon="6.19175">
        <ele>1456.53</ele>
        <time>2015-01-18T11:03:19Z</time>
      </trkpt>
      <trkpt lat="44.13863" lon="6.19171">
        <ele>1457.98</ele>
        <time>2015-01-18T11:03:31Z</time>
      </trkpt>
      <trkpt lat="44.13868" lon="6.19167">
        <ele>1459.9</ele>
        <time>2015-01-18T11:03:45Z</time>
      </trkpt>
      <trkpt lat="44.13873" lon="6.19169">
        <ele>1460.86</ele>
        <time>2015-01-18T11:03:53Z</time>
      </trkpt>
      <trkpt lat="44.13881" lon="6.1918">
        <ele>1462.3</ele>
        <time>2015-01-18T11:04:08Z</time>
      </trkpt>
      <trkpt lat="44.13883" lon="6.19185">
        <ele>1462.78</ele>
        <time>2015-01-18T11:04:14Z</time>
      </trkpt>
      <trkpt lat="44.13886" lon="6.19191">
        <ele>1463.74</ele>
        <time>2015-01-18T11:04:19Z</time>
      </trkpt>
      <trkpt lat="44.13895" lon="6.19204">
        <ele>1465.67</ele>
        <time>2015-01-18T11:04:37Z</time>
      </trkpt>
      <trkpt lat="44.13903" lon="6.19218">
        <ele>1467.11</ele>
        <time>2015-01-18T11:04:53Z</time>
      </trkpt>
      <trkpt lat="44.13908" lon="6.19229">
        <ele>1468.07</ele>
        <time>2015-01-18T11:05:06Z</time>
      </trkpt>
      <trkpt lat="44.13909" lon="6.19231">
        <ele>1472.4</ele>
        <time>2015-01-18T11:05:15Z</time>
      </trkpt>
      <trkpt lat="44.13909" lon="6.19231">
        <ele>1469.03</ele>
        <time>2015-01-18T11:05:16Z</time>
      </trkpt>
      <trkpt lat="44.13916" lon="6.19228">
        <ele>1471.44</ele>
        <time>2015-01-18T11:05:32Z</time>
      </trkpt>
      <trkpt lat="44.13923" lon="6.19222">
        <ele>1474.32</ele>
        <time>2015-01-18T11:05:48Z</time>
      </trkpt>
      <trkpt lat="44.13924" lon="6.19218">
        <ele>1468.55</ele>
        <time>2015-01-18T11:05:58Z</time>
      </trkpt>
      <trkpt lat="44.13924" lon="6.19218">
        <ele>1479.61</ele>
        <time>2015-01-18T11:05:59Z</time>
      </trkpt>
      <trkpt lat="44.13924" lon="6.19219">
        <ele>1475.28</ele>
        <time>2015-01-18T11:06:01Z</time>
      </trkpt>
      <trkpt lat="44.13924" lon="6.19219">
        <ele>1475.28</ele>
        <time>2015-01-18T11:06:02Z</time>
      </trkpt>
      <trkpt lat="44.13929" lon="6.19218">
        <ele>1476.72</ele>
        <time>2015-01-18T11:06:14Z</time>
      </trkpt>
      <trkpt lat="44.13937" lon="6.19215">
        <ele>1479.13</ele>
        <time>2015-01-18T11:06:31Z</time>
      </trkpt>
      <trkpt lat="44.13941" lon="6.19213">
        <ele>1480.57</ele>
        <time>2015-01-18T11:06:39Z</time>
      </trkpt>
      <trkpt lat="44.13948" lon="6.1921">
        <ele>1482.49</ele>
        <time>2015-01-18T11:06:55Z</time>
      </trkpt>
      <trkpt lat="44.13954" lon="6.19203">
        <ele>1484.89</ele>
        <time>2015-01-18T11:07:12Z</time>
      </trkpt>
      <trkpt lat="44.13958" lon="6.19195">
        <ele>1486.82</ele>
        <time>2015-01-18T11:07:27Z</time>
      </trkpt>
      <trkpt lat="44.13963" lon="6.19184">
        <ele>1488.74</ele>
        <time>2015-01-18T11:07:42Z</time>
      </trkpt>
      <trkpt lat="44.13971" lon="6.19178">
        <ele>1491.14</ele>
        <time>2015-01-18T11:07:57Z</time>
      </trkpt>
      <trkpt lat="44.13968" lon="6.19166">
        <ele>1491.14</ele>
        <time>2015-01-18T11:08:11Z</time>
      </trkpt>
      <trkpt lat="44.1397" lon="6.19154">
        <ele>1493.55</ele>
        <time>2015-01-18T11:08:27Z</time>
      </trkpt>
      <trkpt lat="44.13969" lon="6.19141">
        <ele>1494.51</ele>
        <time>2015-01-18T11:08:42Z</time>
      </trkpt>
      <trkpt lat="44.13969" lon="6.19132">
        <ele>1497.87</ele>
        <time>2015-01-18T11:08:56Z</time>
      </trkpt>
      <trkpt lat="44.1397" lon="6.19124">
        <ele>1498.35</ele>
        <time>2015-01-18T11:09:05Z</time>
      </trkpt>
      <trkpt lat="44.13971" lon="6.19107">
        <ele>1499.79</ele>
        <time>2015-01-18T11:09:24Z</time>
      </trkpt>
      <trkpt lat="44.13971" lon="6.19098">
        <ele>1502.2</ele>
        <time>2015-01-18T11:09:33Z</time>
      </trkpt>
      <trkpt lat="44.13975" lon="6.19086">
        <ele>1504.12</ele>
        <time>2015-01-18T11:09:49Z</time>
      </trkpt>
      <trkpt lat="44.13975" lon="6.19086">
        <ele>1505.08</ele>
        <time>2015-01-18T11:10:11Z</time>
      </trkpt>
      <trkpt lat="44.13975" lon="6.19086">
        <ele>1507</ele>
        <time>2015-01-18T11:10:20Z</time>
      </trkpt>
      <trkpt lat="44.13975" lon="6.19085">
        <ele>1507.97</ele>
        <time>2015-01-18T11:10:32Z</time>
      </trkpt>
      <trkpt lat="44.13975" lon="6.19085">
        <ele>1508.45</ele>
        <time>2015-01-18T11:10:33Z</time>
      </trkpt>
      <trkpt lat="44.13984" lon="6.19072">
        <ele>1509.89</ele>
        <time>2015-01-18T11:10:48Z</time>
      </trkpt>
      <trkpt lat="44.1399" lon="6.19067">
        <ele>1513.25</ele>
        <time>2015-01-18T11:11:04Z</time>
      </trkpt>
      <trkpt lat="44.1399" lon="6.19067">
        <ele>1512.77</ele>
        <time>2015-01-18T11:11:05Z</time>
      </trkpt>
      <trkpt lat="44.13999" lon="6.19048">
        <ele>1514.21</ele>
        <time>2015-01-18T11:11:21Z</time>
      </trkpt>
      <trkpt lat="44.14004" lon="6.19033">
        <ele>1515.18</ele>
        <time>2015-01-18T11:11:36Z</time>
      </trkpt>
      <trkpt lat="44.1401" lon="6.19038">
        <ele>1517.58</ele>
        <time>2015-01-18T11:11:51Z</time>
      </trkpt>
      <trkpt lat="44.1401" lon="6.1904">
        <ele>1520.94</ele>
        <time>2015-01-18T11:12:07Z</time>
      </trkpt>
      <trkpt lat="44.1401" lon="6.1904">
        <ele>1520.94</ele>
        <time>2015-01-18T11:12:23Z</time>
      </trkpt>
      <trkpt lat="44.1401" lon="6.1904">
        <ele>1516.62</ele>
        <time>2015-01-18T11:12:25Z</time>
      </trkpt>
      <trkpt lat="44.1401" lon="6.1904">
        <ele>1526.23</ele>
        <time>2015-01-18T11:12:26Z</time>
      </trkpt>
      <trkpt lat="44.1401" lon="6.1904">
        <ele>1520.94</ele>
        <time>2015-01-18T11:12:27Z</time>
      </trkpt>
      <trkpt lat="44.14018" lon="6.19051">
        <ele>1521.9</ele>
        <time>2015-01-18T11:12:43Z</time>
      </trkpt>
      <trkpt lat="44.14028" lon="6.19065">
        <ele>1523.83</ele>
        <time>2015-01-18T11:12:58Z</time>
      </trkpt>
      <trkpt lat="44.14036" lon="6.19064">
        <ele>1525.27</ele>
        <time>2015-01-18T11:13:14Z</time>
      </trkpt>
      <trkpt lat="44.14043" lon="6.19065">
        <ele>1528.15</ele>
        <time>2015-01-18T11:13:27Z</time>
      </trkpt>
      <trkpt lat="44.14043" lon="6.19065">
        <ele>1529.59</ele>
        <time>2015-01-18T11:13:36Z</time>
      </trkpt>
      <trkpt lat="44.14051" lon="6.19065">
        <ele>1532</ele>
        <time>2015-01-18T11:13:52Z</time>
      </trkpt>
      <trkpt lat="44.14051" lon="6.19065">
        <ele>1531.04</ele>
        <time>2015-01-18T11:14:14Z</time>
      </trkpt>
      <trkpt lat="44.14051" lon="6.19065">
        <ele>1533.92</ele>
        <time>2015-01-18T11:14:26Z</time>
      </trkpt>
      <trkpt lat="44.14052" lon="6.19065">
        <ele>1536.32</ele>
        <time>2015-01-18T11:14:41Z</time>
      </trkpt>
      <trkpt lat="44.14052" lon="6.19065">
        <ele>1537.29</ele>
        <time>2015-01-18T11:14:56Z</time>
      </trkpt>
      <trkpt lat="44.14053" lon="6.19063">
        <ele>1538.25</ele>
        <time>2015-01-18T11:14:59Z</time>
      </trkpt>
      <trkpt lat="44.14053" lon="6.19061">
        <ele>1539.69</ele>
        <time>2015-01-18T11:15:10Z</time>
      </trkpt>
      <trkpt lat="44.14053" lon="6.19061">
        <ele>1541.61</ele>
        <time>2015-01-18T11:15:26Z</time>
      </trkpt>
      <trkpt lat="44.1407" lon="6.19047">
        <ele>1542.57</ele>
        <time>2015-01-18T11:15:41Z</time>
      </trkpt>
      <trkpt lat="44.14082" lon="6.19043">
        <ele>1544.5</ele>
        <time>2015-01-18T11:15:55Z</time>
      </trkpt>
      <trkpt lat="44.14095" lon="6.19043">
        <ele>1545.94</ele>
        <time>2015-01-18T11:16:11Z</time>
      </trkpt>
      <trkpt lat="44.14097" lon="6.19042">
        <ele>1547.38</ele>
        <time>2015-01-18T11:16:14Z</time>
      </trkpt>
      <trkpt lat="44.14105" lon="6.19046">
        <ele>1548.82</ele>
        <time>2015-01-18T11:16:30Z</time>
      </trkpt>
      <trkpt lat="44.14113" lon="6.19044">
        <ele>1552.19</ele>
        <time>2015-01-18T11:16:46Z</time>
      </trkpt>
      <trkpt lat="44.14119" lon="6.19037">
        <ele>1554.59</ele>
        <time>2015-01-18T11:17:04Z</time>
      </trkpt>
      <trkpt lat="44.14123" lon="6.19033">
        <ele>1556.03</ele>
        <time>2015-01-18T11:17:21Z</time>
      </trkpt>
      <trkpt lat="44.14129" lon="6.19024">
        <ele>1557.95</ele>
        <time>2015-01-18T11:17:36Z</time>
      </trkpt>
      <trkpt lat="44.14133" lon="6.19012">
        <ele>1558.92</ele>
        <time>2015-01-18T11:17:52Z</time>
      </trkpt>
      <trkpt lat="44.14135" lon="6.19009">
        <ele>1560.36</ele>
        <time>2015-01-18T11:17:57Z</time>
      </trkpt>
      <trkpt lat="44.14136" lon="6.19005">
        <ele>1560.84</ele>
        <time>2015-01-18T11:18:10Z</time>
      </trkpt>
      <trkpt lat="44.14138" lon="6.18994">
        <ele>1562.28</ele>
        <time>2015-01-18T11:18:22Z</time>
      </trkpt>
      <trkpt lat="44.1414" lon="6.18981">
        <ele>1562.76</ele>
        <time>2015-01-18T11:18:37Z</time>
      </trkpt>
      <trkpt lat="44.14147" lon="6.18965">
        <ele>1564.2</ele>
        <time>2015-01-18T11:18:54Z</time>
      </trkpt>
      <trkpt lat="44.14154" lon="6.18954">
        <ele>1567.09</ele>
        <time>2015-01-18T11:19:07Z</time>
      </trkpt>
      <trkpt lat="44.14162" lon="6.18944">
        <ele>1568.53</ele>
        <time>2015-01-18T11:19:22Z</time>
      </trkpt>
      <trkpt lat="44.14169" lon="6.18936">
        <ele>1569.49</ele>
        <time>2015-01-18T11:19:33Z</time>
      </trkpt>
      <trkpt lat="44.1418" lon="6.18927">
        <ele>1571.41</ele>
        <time>2015-01-18T11:19:51Z</time>
      </trkpt>
      <trkpt lat="44.14183" lon="6.18926">
        <ele>1572.37</ele>
        <time>2015-01-18T11:19:55Z</time>
      </trkpt>
      <trkpt lat="44.14188" lon="6.18918">
        <ele>1573.82</ele>
        <time>2015-01-18T11:20:07Z</time>
      </trkpt>
      <trkpt lat="44.14193" lon="6.18909">
        <ele>1574.3</ele>
        <time>2015-01-18T11:20:17Z</time>
      </trkpt>
      <trkpt lat="44.14193" lon="6.18907">
        <ele>1574.78</ele>
        <time>2015-01-18T11:20:19Z</time>
      </trkpt>
      <trkpt lat="44.14199" lon="6.18898">
        <ele>1575.74</ele>
        <time>2015-01-18T11:20:29Z</time>
      </trkpt>
      <trkpt lat="44.14212" lon="6.18884">
        <ele>1576.7</ele>
        <time>2015-01-18T11:20:46Z</time>
      </trkpt>
      <trkpt lat="44.14226" lon="6.18875">
        <ele>1578.62</ele>
        <time>2015-01-18T11:21:04Z</time>
      </trkpt>
      <trkpt lat="44.14235" lon="6.18868">
        <ele>1580.54</ele>
        <time>2015-01-18T11:21:20Z</time>
      </trkpt>
      <trkpt lat="44.14243" lon="6.18864">
        <ele>1582.47</ele>
        <time>2015-01-18T11:21:34Z</time>
      </trkpt>
      <trkpt lat="44.14247" lon="6.18861">
        <ele>1583.91</ele>
        <time>2015-01-18T11:21:41Z</time>
      </trkpt>
      <trkpt lat="44.1425" lon="6.18857">
        <ele>1584.87</ele>
        <time>2015-01-18T11:21:54Z</time>
      </trkpt>
      <trkpt lat="44.14254" lon="6.18852">
        <ele>1586.31</ele>
        <time>2015-01-18T11:22:04Z</time>
      </trkpt>
      <trkpt lat="44.14262" lon="6.18846">
        <ele>1588.72</ele>
        <time>2015-01-18T11:22:22Z</time>
      </trkpt>
      <trkpt lat="44.14265" lon="6.18848">
        <ele>1589.2</ele>
        <time>2015-01-18T11:22:40Z</time>
      </trkpt>
      <trkpt lat="44.14277" lon="6.18856">
        <ele>1591.12</ele>
        <time>2015-01-18T11:22:56Z</time>
      </trkpt>
      <trkpt lat="44.14287" lon="6.18865">
        <ele>1592.56</ele>
        <time>2015-01-18T11:23:12Z</time>
      </trkpt>
      <trkpt lat="44.14294" lon="6.18875">
        <ele>1594.48</ele>
        <time>2015-01-18T11:23:28Z</time>
      </trkpt>
      <trkpt lat="44.14305" lon="6.18883">
        <ele>1596.41</ele>
        <time>2015-01-18T11:23:47Z</time>
      </trkpt>
      <trkpt lat="44.14317" lon="6.18891">
        <ele>1598.81</ele>
        <time>2015-01-18T11:24:04Z</time>
      </trkpt>
      <trkpt lat="44.14324" lon="6.18898">
        <ele>1599.77</ele>
        <time>2015-01-18T11:24:18Z</time>
      </trkpt>
      <trkpt lat="44.14333" lon="6.18902">
        <ele>1601.69</ele>
        <time>2015-01-18T11:24:33Z</time>
      </trkpt>
      <trkpt lat="44.14342" lon="6.18907">
        <ele>1603.14</ele>
        <time>2015-01-18T11:24:49Z</time>
      </trkpt>
      <trkpt lat="44.14351" lon="6.18911">
        <ele>1606.02</ele>
        <time>2015-01-18T11:25:04Z</time>
      </trkpt>
      <trkpt lat="44.14361" lon="6.18914">
        <ele>1608.9</ele>
        <time>2015-01-18T11:25:23Z</time>
      </trkpt>
      <trkpt lat="44.14363" lon="6.18914">
        <ele>1609.86</ele>
        <time>2015-01-18T11:25:27Z</time>
      </trkpt>
      <trkpt lat="44.14363" lon="6.18914">
        <ele>1611.79</ele>
        <time>2015-01-18T11:25:43Z</time>
      </trkpt>
      <trkpt lat="44.14363" lon="6.18914">
        <ele>1612.75</ele>
        <time>2015-01-18T11:25:57Z</time>
      </trkpt>
      <trkpt lat="44.14363" lon="6.18915">
        <ele>1615.63</ele>
        <time>2015-01-18T11:26:16Z</time>
      </trkpt>
      <trkpt lat="44.14363" lon="6.18915">
        <ele>1617.56</ele>
        <time>2015-01-18T11:26:30Z</time>
      </trkpt>
      <trkpt lat="44.14363" lon="6.18915">
        <ele>1619.48</ele>
        <time>2015-01-18T11:26:46Z</time>
      </trkpt>
      <trkpt lat="44.14366" lon="6.18916">
        <ele>1621.88</ele>
        <time>2015-01-18T11:27:00Z</time>
      </trkpt>
      <trkpt lat="44.14366" lon="6.18916">
        <ele>1622.36</ele>
        <time>2015-01-18T11:27:15Z</time>
      </trkpt>
      <trkpt lat="44.14371" lon="6.18918">
        <ele>1623.8</ele>
        <time>2015-01-18T11:27:29Z</time>
      </trkpt>
      <trkpt lat="44.14371" lon="6.18918">
        <ele>1625.73</ele>
        <time>2015-01-18T11:27:44Z</time>
      </trkpt>
      <trkpt lat="44.14371" lon="6.18918">
        <ele>1628.13</ele>
        <time>2015-01-18T11:28:00Z</time>
      </trkpt>
      <trkpt lat="44.14373" lon="6.18918">
        <ele>1630.53</ele>
        <time>2015-01-18T11:28:14Z</time>
      </trkpt>
      <trkpt lat="44.14373" lon="6.18918">
        <ele>1632.94</ele>
        <time>2015-01-18T11:28:28Z</time>
      </trkpt>
      <trkpt lat="44.14373" lon="6.18918">
        <ele>1634.86</ele>
        <time>2015-01-18T11:28:44Z</time>
      </trkpt>
      <trkpt lat="44.14376" lon="6.1892">
        <ele>1636.3</ele>
        <time>2015-01-18T11:28:57Z</time>
      </trkpt>
      <trkpt lat="44.14376" lon="6.1892">
        <ele>1637.74</ele>
        <time>2015-01-18T11:29:09Z</time>
      </trkpt>
      <trkpt lat="44.14376" lon="6.1892">
        <ele>1639.67</ele>
        <time>2015-01-18T11:29:24Z</time>
      </trkpt>
      <trkpt lat="44.14378" lon="6.18922">
        <ele>1641.11</ele>
        <time>2015-01-18T11:29:38Z</time>
      </trkpt>
      <trkpt lat="44.14382" lon="6.18922">
        <ele>1643.51</ele>
        <time>2015-01-18T11:29:50Z</time>
      </trkpt>
      <trkpt lat="44.14382" lon="6.18922">
        <ele>1645.43</ele>
        <time>2015-01-18T11:30:05Z</time>
      </trkpt>
      <trkpt lat="44.14382" lon="6.18922">
        <ele>1647.36</ele>
        <time>2015-01-18T11:30:19Z</time>
      </trkpt>
      <trkpt lat="44.14393" lon="6.18917">
        <ele>1648.8</ele>
        <time>2015-01-18T11:30:37Z</time>
      </trkpt>
      <trkpt lat="44.14415" lon="6.18921">
        <ele>1649.76</ele>
        <time>2015-01-18T11:30:47Z</time>
      </trkpt>
      <trkpt lat="44.14468" lon="6.18934">
        <ele>1651.2</ele>
        <time>2015-01-18T11:31:02Z</time>
      </trkpt>
      <trkpt lat="44.14486" lon="6.18924">
        <ele>1653.12</ele>
        <time>2015-01-18T11:31:17Z</time>
      </trkpt>
      <trkpt lat="44.14486" lon="6.18922">
        <ele>1653.12</ele>
        <time>2015-01-18T11:31:35Z</time>
      </trkpt>
      <trkpt lat="44.14487" lon="6.18923">
        <ele>1653.6</ele>
        <time>2015-01-18T11:31:47Z</time>
      </trkpt>
      <trkpt lat="44.14487" lon="6.18923">
        <ele>1653.6</ele>
        <time>2015-01-18T11:32:17Z</time>
      </trkpt>
      <trkpt lat="44.14487" lon="6.18923">
        <ele>1653.6</ele>
        <time>2015-01-18T11:32:54Z</time>
      </trkpt>
      <trkpt lat="44.14487" lon="6.18923">
        <ele>1653.6</ele>
        <time>2015-01-18T11:33:35Z</time>
      </trkpt>
      <trkpt lat="44.14487" lon="6.18923">
        <ele>1654.09</ele>
        <time>2015-01-18T11:34:12Z</time>
      </trkpt>
      <trkpt lat="44.14487" lon="6.18923">
        <ele>1653.6</ele>
        <time>2015-01-18T11:34:47Z</time>
      </trkpt>
      <trkpt lat="44.14488" lon="6.18922">
        <ele>1653.12</ele>
        <time>2015-01-18T11:35:22Z</time>
      </trkpt>
      <trkpt lat="44.14488" lon="6.18923">
        <ele>1653.6</ele>
        <time>2015-01-18T11:35:56Z</time>
      </trkpt>
      <trkpt lat="44.14488" lon="6.18922">
        <ele>1653.6</ele>
        <time>2015-01-18T11:36:29Z</time>
      </trkpt>
      <trkpt lat="44.14488" lon="6.18923">
        <ele>1653.6</ele>
        <time>2015-01-18T11:36:49Z</time>
      </trkpt>
      <trkpt lat="44.14488" lon="6.18923">
        <ele>1653.6</ele>
        <time>2015-01-18T11:37:36Z</time>
      </trkpt>
      <trkpt lat="44.14488" lon="6.18923">
        <ele>1653.12</ele>
        <time>2015-01-18T11:38:18Z</time>
      </trkpt>
      <trkpt lat="44.14488" lon="6.18923">
        <ele>1653.6</ele>
        <time>2015-01-18T11:38:31Z</time>
      </trkpt>
      <trkpt lat="44.14488" lon="6.18922">
        <ele>1653.6</ele>
        <time>2015-01-18T11:38:57Z</time>
      </trkpt>
      <trkpt lat="44.14488" lon="6.18922">
        <ele>1653.6</ele>
        <time>2015-01-18T11:39:37Z</time>
      </trkpt>
      <trkpt lat="44.14488" lon="6.18922">
        <ele>1653.6</ele>
        <time>2015-01-18T11:40:17Z</time>
      </trkpt>
      <trkpt lat="44.14488" lon="6.18922">
        <ele>1653.6</ele>
        <time>2015-01-18T11:40:55Z</time>
      </trkpt>
      <trkpt lat="44.14489" lon="6.18922">
        <ele>1653.12</ele>
        <time>2015-01-18T11:41:37Z</time>
      </trkpt>
      <trkpt lat="44.14489" lon="6.18922">
        <ele>1653.6</ele>
        <time>2015-01-18T11:42:17Z</time>
      </trkpt>
      <trkpt lat="44.14489" lon="6.18919">
        <ele>1654.09</ele>
        <time>2015-01-18T11:42:41Z</time>
      </trkpt>
      <trkpt lat="44.1449" lon="6.18917">
        <ele>1653.6</ele>
        <time>2015-01-18T11:42:59Z</time>
      </trkpt>
      <trkpt lat="44.14492" lon="6.18913">
        <ele>1652.64</ele>
        <time>2015-01-18T11:43:15Z</time>
      </trkpt>
      <trkpt lat="44.14493" lon="6.18912">
        <ele>1653.6</ele>
        <time>2015-01-18T11:43:38Z</time>
      </trkpt>
      <trkpt lat="44.14494" lon="6.18907">
        <ele>1652.16</ele>
        <time>2015-01-18T11:43:51Z</time>
      </trkpt>
      <trkpt lat="44.14496" lon="6.18903">
        <ele>1650.72</ele>
        <time>2015-01-18T11:44:07Z</time>
      </trkpt>
      <trkpt lat="44.14501" lon="6.18896">
        <ele>1649.76</ele>
        <time>2015-01-18T11:44:20Z</time>
      </trkpt>
      <trkpt lat="44.14501" lon="6.18895">
        <ele>1650.24</ele>
        <time>2015-01-18T11:44:40Z</time>
      </trkpt>
      <trkpt lat="44.14501" lon="6.18896">
        <ele>1650.24</ele>
        <time>2015-01-18T11:44:55Z</time>
      </trkpt>
      <trkpt lat="44.14498" lon="6.18902">
        <ele>1651.68</ele>
        <time>2015-01-18T11:45:10Z</time>
      </trkpt>
      <trkpt lat="44.14498" lon="6.18902">
        <ele>1652.16</ele>
        <time>2015-01-18T11:45:35Z</time>
      </trkpt>
      <trkpt lat="44.14498" lon="6.18902">
        <ele>1651.68</ele>
        <time>2015-01-18T11:45:59Z</time>
      </trkpt>
      <trkpt lat="44.14498" lon="6.18903">
        <ele>1651.68</ele>
        <time>2015-01-18T11:46:33Z</time>
      </trkpt>
      <trkpt lat="44.14498" lon="6.18903">
        <ele>1651.68</ele>
        <time>2015-01-18T11:46:56Z</time>
      </trkpt>
      <trkpt lat="44.14498" lon="6.18902">
        <ele>1651.68</ele>
        <time>2015-01-18T11:47:18Z</time>
      </trkpt>
      <trkpt lat="44.14498" lon="6.18902">
        <ele>1651.68</ele>
        <time>2015-01-18T11:47:44Z</time>
      </trkpt>
      <trkpt lat="44.14498" lon="6.18901">
        <ele>1651.2</ele>
        <time>2015-01-18T11:48:10Z</time>
      </trkpt>
      <trkpt lat="44.14498" lon="6.18901">
        <ele>1652.16</ele>
        <time>2015-01-18T11:48:42Z</time>
      </trkpt>
      <trkpt lat="44.14498" lon="6.18901">
        <ele>1651.68</ele>
        <time>2015-01-18T11:49:11Z</time>
      </trkpt>
      <trkpt lat="44.14498" lon="6.18901">
        <ele>1652.16</ele>
        <time>2015-01-18T11:49:26Z</time>
      </trkpt>
      <trkpt lat="44.14499" lon="6.18901">
        <ele>1651.68</ele>
        <time>2015-01-18T11:49:48Z</time>
      </trkpt>
      <trkpt lat="44.14498" lon="6.18903">
        <ele>1652.64</ele>
        <time>2015-01-18T11:50:09Z</time>
      </trkpt>
      <trkpt lat="44.14497" lon="6.18905">
        <ele>1653.6</ele>
        <time>2015-01-18T11:50:23Z</time>
      </trkpt>
      <trkpt lat="44.14491" lon="6.18917">
        <ele>1655.53</ele>
        <time>2015-01-18T11:50:37Z</time>
      </trkpt>
      <trkpt lat="44.14487" lon="6.18924">
        <ele>1655.05</ele>
        <time>2015-01-18T11:50:54Z</time>
      </trkpt>
      <trkpt lat="44.14488" lon="6.18924">
        <ele>1655.53</ele>
        <time>2015-01-18T11:51:11Z</time>
      </trkpt>
      <trkpt lat="44.14487" lon="6.18923">
        <ele>1654.09</ele>
        <time>2015-01-18T11:51:32Z</time>
      </trkpt>
      <trkpt lat="44.14487" lon="6.18924">
        <ele>1654.09</ele>
        <time>2015-01-18T11:51:56Z</time>
      </trkpt>
      <trkpt lat="44.14487" lon="6.18924">
        <ele>1654.57</ele>
        <time>2015-01-18T11:52:25Z</time>
      </trkpt>
      <trkpt lat="44.14487" lon="6.18924">
        <ele>1654.09</ele>
        <time>2015-01-18T11:52:57Z</time>
      </trkpt>
      <trkpt lat="44.14487" lon="6.18924">
        <ele>1654.09</ele>
        <time>2015-01-18T11:53:26Z</time>
      </trkpt>
      <trkpt lat="44.14487" lon="6.18924">
        <ele>1654.57</ele>
        <time>2015-01-18T11:53:43Z</time>
      </trkpt>
      <trkpt lat="44.14487" lon="6.18923">
        <ele>1654.57</ele>
        <time>2015-01-18T11:54:17Z</time>
      </trkpt>
      <trkpt lat="44.14486" lon="6.18923">
        <ele>1654.57</ele>
        <time>2015-01-18T11:54:55Z</time>
      </trkpt>
      <trkpt lat="44.14486" lon="6.18923">
        <ele>1653.6</ele>
        <time>2015-01-18T11:55:29Z</time>
      </trkpt>
      <trkpt lat="44.14486" lon="6.18923">
        <ele>1654.57</ele>
        <time>2015-01-18T11:56:05Z</time>
      </trkpt>
      <trkpt lat="44.14486" lon="6.18922">
        <ele>1654.57</ele>
        <time>2015-01-18T11:56:37Z</time>
      </trkpt>
      <trkpt lat="44.14486" lon="6.18922">
        <ele>1654.09</ele>
        <time>2015-01-18T11:57:19Z</time>
      </trkpt>
      <trkpt lat="44.14486" lon="6.18922">
        <ele>1654.09</ele>
        <time>2015-01-18T11:57:53Z</time>
      </trkpt>
      <trkpt lat="44.14486" lon="6.18922">
        <ele>1654.09</ele>
        <time>2015-01-18T11:58:20Z</time>
      </trkpt>
      <trkpt lat="44.14486" lon="6.18922">
        <ele>1654.57</ele>
        <time>2015-01-18T11:58:56Z</time>
      </trkpt>
      <trkpt lat="44.14486" lon="6.18922">
        <ele>1654.57</ele>
        <time>2015-01-18T11:59:34Z</time>
      </trkpt>
      <trkpt lat="44.14486" lon="6.18923">
        <ele>1654.09</ele>
        <time>2015-01-18T12:00:06Z</time>
      </trkpt>
      <trkpt lat="44.14486" lon="6.18923">
        <ele>1654.57</ele>
        <time>2015-01-18T12:00:39Z</time>
      </trkpt>
      <trkpt lat="44.14486" lon="6.18923">
        <ele>1655.05</ele>
        <time>2015-01-18T12:01:13Z</time>
      </trkpt>
      <trkpt lat="44.14486" lon="6.18923">
        <ele>1654.57</ele>
        <time>2015-01-18T12:01:52Z</time>
      </trkpt>
      <trkpt lat="44.14486" lon="6.18923">
        <ele>1655.53</ele>
        <time>2015-01-18T12:02:18Z</time>
      </trkpt>
      <trkpt lat="44.14486" lon="6.18923">
        <ele>1654.57</ele>
        <time>2015-01-18T12:02:50Z</time>
      </trkpt>
      <trkpt lat="44.14486" lon="6.18922">
        <ele>1654.57</ele>
        <time>2015-01-18T12:03:12Z</time>
      </trkpt>
      <trkpt lat="44.14486" lon="6.18922">
        <ele>1655.53</ele>
        <time>2015-01-18T12:03:37Z</time>
      </trkpt>
      <trkpt lat="44.14486" lon="6.18922">
        <ele>1654.57</ele>
        <time>2015-01-18T12:04:22Z</time>
      </trkpt>
      <trkpt lat="44.14486" lon="6.18922">
        <ele>1654.57</ele>
        <time>2015-01-18T12:04:59Z</time>
      </trkpt>
      <trkpt lat="44.14486" lon="6.18922">
        <ele>1653.6</ele>
        <time>2015-01-18T12:05:38Z</time>
      </trkpt>
      <trkpt lat="44.14486" lon="6.18922">
        <ele>1654.57</ele>
        <time>2015-01-18T12:05:54Z</time>
      </trkpt>
      <trkpt lat="44.14486" lon="6.18922">
        <ele>1654.57</ele>
        <time>2015-01-18T12:06:09Z</time>
      </trkpt>
      <trkpt lat="44.14486" lon="6.18922">
        <ele>1655.05</ele>
        <time>2015-01-18T12:06:45Z</time>
      </trkpt>
      <trkpt lat="44.14485" lon="6.18922">
        <ele>1653.6</ele>
        <time>2015-01-18T12:07:25Z</time>
      </trkpt>
      <trkpt lat="44.14485" lon="6.18921">
        <ele>1654.57</ele>
        <time>2015-01-18T12:08:06Z</time>
      </trkpt>
      <trkpt lat="44.14485" lon="6.18921">
        <ele>1654.09</ele>
        <time>2015-01-18T12:08:47Z</time>
      </trkpt>
      <trkpt lat="44.14485" lon="6.18921">
        <ele>1654.09</ele>
        <time>2015-01-18T12:09:28Z</time>
      </trkpt>
      <trkpt lat="44.14485" lon="6.18921">
        <ele>1654.57</ele>
        <time>2015-01-18T12:10:04Z</time>
      </trkpt>
      <trkpt lat="44.14485" lon="6.1892">
        <ele>1653.6</ele>
        <time>2015-01-18T12:10:46Z</time>
      </trkpt>
      <trkpt lat="44.14485" lon="6.1892">
        <ele>1655.05</ele>
        <time>2015-01-18T12:10:48Z</time>
      </trkpt>
      <trkpt lat="44.14485" lon="6.1892">
        <ele>1653.12</ele>
        <time>2015-01-18T12:11:15Z</time>
      </trkpt>
      <trkpt lat="44.14485" lon="6.1892">
        <ele>1654.57</ele>
        <time>2015-01-18T12:11:54Z</time>
      </trkpt>
      <trkpt lat="44.14484" lon="6.1892">
        <ele>1654.57</ele>
        <time>2015-01-18T12:12:39Z</time>
      </trkpt>
      <trkpt lat="44.14484" lon="6.1892">
        <ele>1654.57</ele>
        <time>2015-01-18T12:13:20Z</time>
      </trkpt>
      <trkpt lat="44.14485" lon="6.1892">
        <ele>1654.09</ele>
        <time>2015-01-18T12:14:04Z</time>
      </trkpt>
      <trkpt lat="44.14485" lon="6.1892">
        <ele>1654.09</ele>
        <time>2015-01-18T12:14:44Z</time>
      </trkpt>
      <trkpt lat="44.14485" lon="6.1892">
        <ele>1653.6</ele>
        <time>2015-01-18T12:15:27Z</time>
      </trkpt>
      <trkpt lat="44.14485" lon="6.1892">
        <ele>1655.05</ele>
        <time>2015-01-18T12:16:10Z</time>
      </trkpt>
      <trkpt lat="44.14485" lon="6.1892">
        <ele>1654.57</ele>
        <time>2015-01-18T12:16:55Z</time>
      </trkpt>
      <trkpt lat="44.14485" lon="6.1892">
        <ele>1654.57</ele>
        <time>2015-01-18T12:17:03Z</time>
      </trkpt>
      <trkpt lat="44.14485" lon="6.1892">
        <ele>1654.57</ele>
        <time>2015-01-18T12:17:36Z</time>
      </trkpt>
      <trkpt lat="44.14485" lon="6.1892">
        <ele>1655.05</ele>
        <time>2015-01-18T12:17:40Z</time>
      </trkpt>
      <trkpt lat="44.14485" lon="6.1892">
        <ele>1655.05</ele>
        <time>2015-01-18T12:18:18Z</time>
      </trkpt>
      <trkpt lat="44.14484" lon="6.18921">
        <ele>1655.05</ele>
        <time>2015-01-18T12:18:33Z</time>
      </trkpt>
      <trkpt lat="44.14484" lon="6.18921">
        <ele>1653.12</ele>
        <time>2015-01-18T12:19:15Z</time>
      </trkpt>
      <trkpt lat="44.14484" lon="6.18921">
        <ele>1653.12</ele>
        <time>2015-01-18T12:19:30Z</time>
      </trkpt>
      <trkpt lat="44.14484" lon="6.18921">
        <ele>1655.05</ele>
        <time>2015-01-18T12:19:55Z</time>
      </trkpt>
      <trkpt lat="44.14484" lon="6.18922">
        <ele>1655.05</ele>
        <time>2015-01-18T12:20:28Z</time>
      </trkpt>
      <trkpt lat="44.14485" lon="6.18922">
        <ele>1655.05</ele>
        <time>2015-01-18T12:21:06Z</time>
      </trkpt>
      <trkpt lat="44.14485" lon="6.18922">
        <ele>1655.05</ele>
        <time>2015-01-18T12:21:45Z</time>
      </trkpt>
      <trkpt lat="44.14485" lon="6.18921">
        <ele>1653.6</ele>
        <time>2015-01-18T12:22:20Z</time>
      </trkpt>
      <trkpt lat="44.14485" lon="6.18921">
        <ele>1653.6</ele>
        <time>2015-01-18T12:22:21Z</time>
      </trkpt>
      <trkpt lat="44.14485" lon="6.18921">
        <ele>1653.12</ele>
        <time>2015-01-18T12:22:32Z</time>
      </trkpt>
      <trkpt lat="44.14485" lon="6.18921">
        <ele>1654.09</ele>
        <time>2015-01-18T12:23:10Z</time>
      </trkpt>
      <trkpt lat="44.14485" lon="6.18921">
        <ele>1653.6</ele>
        <time>2015-01-18T12:23:52Z</time>
      </trkpt>
      <trkpt lat="44.14484" lon="6.18921">
        <ele>1654.57</ele>
        <time>2015-01-18T12:24:35Z</time>
      </trkpt>
      <trkpt lat="44.14484" lon="6.18921">
        <ele>1654.09</ele>
        <time>2015-01-18T12:25:15Z</time>
      </trkpt>
      <trkpt lat="44.14484" lon="6.18922">
        <ele>1654.57</ele>
        <time>2015-01-18T12:25:54Z</time>
      </trkpt>
      <trkpt lat="44.14484" lon="6.18922">
        <ele>1654.09</ele>
        <time>2015-01-18T12:26:35Z</time>
      </trkpt>
      <trkpt lat="44.14484" lon="6.18922">
        <ele>1654.57</ele>
        <time>2015-01-18T12:27:16Z</time>
      </trkpt>
      <trkpt lat="44.14484" lon="6.18922">
        <ele>1654.57</ele>
        <time>2015-01-18T12:27:55Z</time>
      </trkpt>
      <trkpt lat="44.14484" lon="6.18922">
        <ele>1654.57</ele>
        <time>2015-01-18T12:28:33Z</time>
      </trkpt>
      <trkpt lat="44.14484" lon="6.18922">
        <ele>1655.05</ele>
        <time>2015-01-18T12:28:43Z</time>
      </trkpt>
      <trkpt lat="44.14485" lon="6.18922">
        <ele>1654.09</ele>
        <time>2015-01-18T12:29:22Z</time>
      </trkpt>
      <trkpt lat="44.14485" lon="6.18922">
        <ele>1653.6</ele>
        <time>2015-01-18T12:29:27Z</time>
      </trkpt>
      <trkpt lat="44.14485" lon="6.18922">
        <ele>1653.6</ele>
        <time>2015-01-18T12:29:56Z</time>
      </trkpt>
      <trkpt lat="44.14486" lon="6.18922">
        <ele>1654.09</ele>
        <time>2015-01-18T12:30:24Z</time>
      </trkpt>
      <trkpt lat="44.14486" lon="6.18922">
        <ele>1653.6</ele>
        <time>2015-01-18T12:30:48Z</time>
      </trkpt>
      <trkpt lat="44.14486" lon="6.18922">
        <ele>1654.09</ele>
        <time>2015-01-18T12:31:29Z</time>
      </trkpt>
      <trkpt lat="44.14486" lon="6.18921">
        <ele>1654.57</ele>
        <time>2015-01-18T12:32:04Z</time>
      </trkpt>
      <trkpt lat="44.14486" lon="6.18921">
        <ele>1654.57</ele>
        <time>2015-01-18T12:32:26Z</time>
      </trkpt>
      <trkpt lat="44.14489" lon="6.18916">
        <ele>1654.57</ele>
        <time>2015-01-18T12:32:42Z</time>
      </trkpt>
      <trkpt lat="44.14488" lon="6.18918">
        <ele>1655.53</ele>
        <time>2015-01-18T12:32:59Z</time>
      </trkpt>
      <trkpt lat="44.14488" lon="6.18918">
        <ele>1655.05</ele>
        <time>2015-01-18T12:33:19Z</time>
      </trkpt>
      <trkpt lat="44.14489" lon="6.18918">
        <ele>1655.05</ele>
        <time>2015-01-18T12:33:38Z</time>
      </trkpt>
      <trkpt lat="44.14489" lon="6.18918">
        <ele>1655.05</ele>
        <time>2015-01-18T12:34:00Z</time>
      </trkpt>
      <trkpt lat="44.14489" lon="6.18919">
        <ele>1654.57</ele>
        <time>2015-01-18T12:34:18Z</time>
      </trkpt>
      <trkpt lat="44.14489" lon="6.18919">
        <ele>1654.57</ele>
        <time>2015-01-18T12:34:34Z</time>
      </trkpt>
      <trkpt lat="44.14488" lon="6.18922">
        <ele>1653.12</ele>
        <time>2015-01-18T12:34:51Z</time>
      </trkpt>
      <trkpt lat="44.14482" lon="6.18928">
        <ele>1651.2</ele>
        <time>2015-01-18T12:35:02Z</time>
      </trkpt>
      <trkpt lat="44.14482" lon="6.18933">
        <ele>1650.24</ele>
        <time>2015-01-18T12:35:05Z</time>
      </trkpt>
      <trkpt lat="44.14481" lon="6.18936">
        <ele>1648.8</ele>
        <time>2015-01-18T12:35:07Z</time>
      </trkpt>
      <trkpt lat="44.1447" lon="6.18933">
        <ele>1646.4</ele>
        <time>2015-01-18T12:35:21Z</time>
      </trkpt>
      <trkpt lat="44.1447" lon="6.18933">
        <ele>1643.51</ele>
        <time>2015-01-18T12:35:34Z</time>
      </trkpt>
      <trkpt lat="44.14468" lon="6.18933">
        <ele>1641.11</ele>
        <time>2015-01-18T12:35:47Z</time>
      </trkpt>
      <trkpt lat="44.14468" lon="6.18933">
        <ele>1640.15</ele>
        <time>2015-01-18T12:36:02Z</time>
      </trkpt>
      <trkpt lat="44.14468" lon="6.18933">
        <ele>1640.15</ele>
        <time>2015-01-18T12:36:28Z</time>
      </trkpt>
      <trkpt lat="44.14468" lon="6.18933">
        <ele>1639.67</ele>
        <time>2015-01-18T12:36:50Z</time>
      </trkpt>
      <trkpt lat="44.14468" lon="6.18934">
        <ele>1638.7</ele>
        <time>2015-01-18T12:37:08Z</time>
      </trkpt>
      <trkpt lat="44.14468" lon="6.18934">
        <ele>1636.3</ele>
        <time>2015-01-18T12:37:18Z</time>
      </trkpt>
      <trkpt lat="44.14468" lon="6.18934">
        <ele>1635.82</ele>
        <time>2015-01-18T12:37:32Z</time>
      </trkpt>
      <trkpt lat="44.14464" lon="6.18934">
        <ele>1631.98</ele>
        <time>2015-01-18T12:37:44Z</time>
      </trkpt>
      <trkpt lat="44.14444" lon="6.18938">
        <ele>1629.57</ele>
        <time>2015-01-18T12:37:59Z</time>
      </trkpt>
      <trkpt lat="44.14444" lon="6.18938">
        <ele>1626.21</ele>
        <time>2015-01-18T12:38:13Z</time>
      </trkpt>
      <trkpt lat="44.1444" lon="6.18937">
        <ele>1625.73</ele>
        <time>2015-01-18T12:38:25Z</time>
      </trkpt>
      <trkpt lat="44.14434" lon="6.18936">
        <ele>1622.84</ele>
        <time>2015-01-18T12:38:38Z</time>
      </trkpt>
      <trkpt lat="44.1442" lon="6.18933">
        <ele>1620.92</ele>
        <time>2015-01-18T12:38:49Z</time>
      </trkpt>
      <trkpt lat="44.1441" lon="6.18931">
        <ele>1619.48</ele>
        <time>2015-01-18T12:38:59Z</time>
      </trkpt>
      <trkpt lat="44.14405" lon="6.18929">
        <ele>1617.56</ele>
        <time>2015-01-18T12:39:04Z</time>
      </trkpt>
      <trkpt lat="44.14394" lon="6.18925">
        <ele>1615.63</ele>
        <time>2015-01-18T12:39:20Z</time>
      </trkpt>
      <trkpt lat="44.14392" lon="6.18924">
        <ele>1614.67</ele>
        <time>2015-01-18T12:39:37Z</time>
      </trkpt>
      <trkpt lat="44.14381" lon="6.18926">
        <ele>1612.27</ele>
        <time>2015-01-18T12:39:53Z</time>
      </trkpt>
      <trkpt lat="44.14374" lon="6.18922">
        <ele>1608.9</ele>
        <time>2015-01-18T12:40:07Z</time>
      </trkpt>
      <trkpt lat="44.14367" lon="6.1892">
        <ele>1606.5</ele>
        <time>2015-01-18T12:40:22Z</time>
      </trkpt>
      <trkpt lat="44.14359" lon="6.18917">
        <ele>1603.62</ele>
        <time>2015-01-18T12:40:35Z</time>
      </trkpt>
      <trkpt lat="44.14351" lon="6.18914">
        <ele>1600.73</ele>
        <time>2015-01-18T12:40:51Z</time>
      </trkpt>
      <trkpt lat="44.14344" lon="6.18908">
        <ele>1598.81</ele>
        <time>2015-01-18T12:41:05Z</time>
      </trkpt>
      <trkpt lat="44.14344" lon="6.18908">
        <ele>1599.29</ele>
        <time>2015-01-18T12:41:23Z</time>
      </trkpt>
      <trkpt lat="44.14339" lon="6.18905">
        <ele>1597.85</ele>
        <time>2015-01-18T12:41:34Z</time>
      </trkpt>
      <trkpt lat="44.14329" lon="6.189">
        <ele>1596.89</ele>
        <time>2015-01-18T12:41:47Z</time>
      </trkpt>
      <trkpt lat="44.14323" lon="6.18896">
        <ele>1594.96</ele>
        <time>2015-01-18T12:41:55Z</time>
      </trkpt>
      <trkpt lat="44.14311" lon="6.18886">
        <ele>1593.04</ele>
        <time>2015-01-18T12:42:11Z</time>
      </trkpt>
      <trkpt lat="44.14299" lon="6.18876">
        <ele>1590.64</ele>
        <time>2015-01-18T12:42:27Z</time>
      </trkpt>
      <trkpt lat="44.14291" lon="6.18868">
        <ele>1589.2</ele>
        <time>2015-01-18T12:42:40Z</time>
      </trkpt>
      <trkpt lat="44.14276" lon="6.18855">
        <ele>1586.79</ele>
        <time>2015-01-18T12:42:59Z</time>
      </trkpt>
      <trkpt lat="44.14269" lon="6.18849">
        <ele>1584.87</ele>
        <time>2015-01-18T12:43:13Z</time>
      </trkpt>
      <trkpt lat="44.14268" lon="6.18849">
        <ele>1584.39</ele>
        <time>2015-01-18T12:43:26Z</time>
      </trkpt>
      <trkpt lat="44.14268" lon="6.18849">
        <ele>1584.87</ele>
        <time>2015-01-18T12:43:27Z</time>
      </trkpt>
      <trkpt lat="44.14266" lon="6.18849">
        <ele>1583.91</ele>
        <time>2015-01-18T12:43:29Z</time>
      </trkpt>
      <trkpt lat="44.14265" lon="6.18848">
        <ele>1584.39</ele>
        <time>2015-01-18T12:43:31Z</time>
      </trkpt>
      <trkpt lat="44.1426" lon="6.18848">
        <ele>1583.91</ele>
        <time>2015-01-18T12:43:36Z</time>
      </trkpt>
      <trkpt lat="44.14253" lon="6.18854">
        <ele>1581.99</ele>
        <time>2015-01-18T12:43:47Z</time>
      </trkpt>
      <trkpt lat="44.14247" lon="6.18863">
        <ele>1579.1</ele>
        <time>2015-01-18T12:44:02Z</time>
      </trkpt>
      <trkpt lat="44.14237" lon="6.1887">
        <ele>1576.7</ele>
        <time>2015-01-18T12:44:17Z</time>
      </trkpt>
      <trkpt lat="44.14226" lon="6.18874">
        <ele>1573.82</ele>
        <time>2015-01-18T12:44:32Z</time>
      </trkpt>
      <trkpt lat="44.14221" lon="6.18882">
        <ele>1573.82</ele>
        <time>2015-01-18T12:44:50Z</time>
      </trkpt>
      <trkpt lat="44.14215" lon="6.18886">
        <ele>1572.37</ele>
        <time>2015-01-18T12:45:07Z</time>
      </trkpt>
      <trkpt lat="44.14212" lon="6.18886">
        <ele>1571.89</ele>
        <time>2015-01-18T12:45:11Z</time>
      </trkpt>
      <trkpt lat="44.14199" lon="6.18898">
        <ele>1570.45</ele>
        <time>2015-01-18T12:45:29Z</time>
      </trkpt>
      <trkpt lat="44.14191" lon="6.18915">
        <ele>1569.97</ele>
        <time>2015-01-18T12:45:46Z</time>
      </trkpt>
      <trkpt lat="44.1419" lon="6.18918">
        <ele>1568.53</ele>
        <time>2015-01-18T12:45:50Z</time>
      </trkpt>
      <trkpt lat="44.14185" lon="6.18929">
        <ele>1568.53</ele>
        <time>2015-01-18T12:46:05Z</time>
      </trkpt>
      <trkpt lat="44.14179" lon="6.18928">
        <ele>1567.57</ele>
        <time>2015-01-18T12:46:17Z</time>
      </trkpt>
      <trkpt lat="44.1417" lon="6.18938">
        <ele>1565.64</ele>
        <time>2015-01-18T12:46:32Z</time>
      </trkpt>
      <trkpt lat="44.14162" lon="6.18948">
        <ele>1564.2</ele>
        <time>2015-01-18T12:46:46Z</time>
      </trkpt>
      <trkpt lat="44.14154" lon="6.18955">
        <ele>1563.24</ele>
        <time>2015-01-18T12:47:00Z</time>
      </trkpt>
      <trkpt lat="44.14151" lon="6.18962">
        <ele>1562.28</ele>
        <time>2015-01-18T12:47:08Z</time>
      </trkpt>
      <trkpt lat="44.14143" lon="6.18979">
        <ele>1560.36</ele>
        <time>2015-01-18T12:47:26Z</time>
      </trkpt>
      <trkpt lat="44.14138" lon="6.18994">
        <ele>1558.92</ele>
        <time>2015-01-18T12:47:41Z</time>
      </trkpt>
      <trkpt lat="44.14137" lon="6.18998">
        <ele>1556.99</ele>
        <time>2015-01-18T12:47:48Z</time>
      </trkpt>
      <trkpt lat="44.14127" lon="6.19001">
        <ele>1556.51</ele>
        <time>2015-01-18T12:48:01Z</time>
      </trkpt>
      <trkpt lat="44.1412" lon="6.19009">
        <ele>1553.63</ele>
        <time>2015-01-18T12:48:16Z</time>
      </trkpt>
      <trkpt lat="44.14111" lon="6.19011">
        <ele>1551.22</ele>
        <time>2015-01-18T12:48:30Z</time>
      </trkpt>
      <trkpt lat="44.14105" lon="6.19012">
        <ele>1548.82</ele>
        <time>2015-01-18T12:48:43Z</time>
      </trkpt>
      <trkpt lat="44.14097" lon="6.19016">
        <ele>1546.9</ele>
        <time>2015-01-18T12:48:57Z</time>
      </trkpt>
      <trkpt lat="44.14089" lon="6.19022">
        <ele>1544.5</ele>
        <time>2015-01-18T12:49:14Z</time>
      </trkpt>
      <trkpt lat="44.14084" lon="6.1902">
        <ele>1542.09</ele>
        <time>2015-01-18T12:49:24Z</time>
      </trkpt>
      <trkpt lat="44.14081" lon="6.19025">
        <ele>1540.65</ele>
        <time>2015-01-18T12:49:31Z</time>
      </trkpt>
      <trkpt lat="44.14076" lon="6.19033">
        <ele>1537.77</ele>
        <time>2015-01-18T12:49:44Z</time>
      </trkpt>
      <trkpt lat="44.1407" lon="6.19038">
        <ele>1534.88</ele>
        <time>2015-01-18T12:49:58Z</time>
      </trkpt>
      <trkpt lat="44.14065" lon="6.19047">
        <ele>1532.96</ele>
        <time>2015-01-18T12:50:15Z</time>
      </trkpt>
      <trkpt lat="44.14065" lon="6.19047">
        <ele>1533.92</ele>
        <time>2015-01-18T12:50:31Z</time>
      </trkpt>
      <trkpt lat="44.14065" lon="6.19047">
        <ele>1533.44</ele>
        <time>2015-01-18T12:50:50Z</time>
      </trkpt>
      <trkpt lat="44.14068" lon="6.19053">
        <ele>1531.52</ele>
        <time>2015-01-18T12:50:58Z</time>
      </trkpt>
      <trkpt lat="44.14068" lon="6.19053">
        <ele>1532.96</ele>
        <time>2015-01-18T12:51:00Z</time>
      </trkpt>
      <trkpt lat="44.14065" lon="6.19056">
        <ele>1532</ele>
        <time>2015-01-18T12:51:14Z</time>
      </trkpt>
      <trkpt lat="44.14069" lon="6.19061">
        <ele>1531.04</ele>
        <time>2015-01-18T12:51:30Z</time>
      </trkpt>
      <trkpt lat="44.14071" lon="6.19067">
        <ele>1532</ele>
        <time>2015-01-18T12:51:46Z</time>
      </trkpt>
      <trkpt lat="44.14075" lon="6.19074">
        <ele>1530.08</ele>
        <time>2015-01-18T12:52:04Z</time>
      </trkpt>
      <trkpt lat="44.14076" lon="6.19075">
        <ele>1529.59</ele>
        <time>2015-01-18T12:52:05Z</time>
      </trkpt>
      <trkpt lat="44.14068" lon="6.1908">
        <ele>1527.67</ele>
        <time>2015-01-18T12:52:18Z</time>
      </trkpt>
      <trkpt lat="44.1406" lon="6.19086">
        <ele>1525.27</ele>
        <time>2015-01-18T12:52:33Z</time>
      </trkpt>
      <trkpt lat="44.14056" lon="6.19089">
        <ele>1522.39</ele>
        <time>2015-01-18T12:52:42Z</time>
      </trkpt>
      <trkpt lat="44.1405" lon="6.19097">
        <ele>1520.46</ele>
        <time>2015-01-18T12:52:56Z</time>
      </trkpt>
      <trkpt lat="44.14049" lon="6.19103">
        <ele>1518.54</ele>
        <time>2015-01-18T12:53:05Z</time>
      </trkpt>
      <trkpt lat="44.14044" lon="6.19106">
        <ele>1517.1</ele>
        <time>2015-01-18T12:53:15Z</time>
      </trkpt>
      <trkpt lat="44.14038" lon="6.19109">
        <ele>1515.18</ele>
        <time>2015-01-18T12:53:27Z</time>
      </trkpt>
      <trkpt lat="44.14032" lon="6.19112">
        <ele>1514.21</ele>
        <time>2015-01-18T12:53:40Z</time>
      </trkpt>
      <trkpt lat="44.14028" lon="6.19116">
        <ele>1511.33</ele>
        <time>2015-01-18T12:53:51Z</time>
      </trkpt>
      <trkpt lat="44.14023" lon="6.19125">
        <ele>1507.97</ele>
        <time>2015-01-18T12:54:06Z</time>
      </trkpt>
      <trkpt lat="44.14018" lon="6.19128">
        <ele>1505.56</ele>
        <time>2015-01-18T12:54:19Z</time>
      </trkpt>
      <trkpt lat="44.14013" lon="6.19127">
        <ele>1504.6</ele>
        <time>2015-01-18T12:54:32Z</time>
      </trkpt>
      <trkpt lat="44.14014" lon="6.19133">
        <ele>1505.08</ele>
        <time>2015-01-18T12:54:45Z</time>
      </trkpt>
      <trkpt lat="44.14017" lon="6.19135">
        <ele>1505.56</ele>
        <time>2015-01-18T12:55:01Z</time>
      </trkpt>
      <trkpt lat="44.14017" lon="6.19135">
        <ele>1504.12</ele>
        <time>2015-01-18T12:55:15Z</time>
      </trkpt>
      <trkpt lat="44.14017" lon="6.19135">
        <ele>1503.64</ele>
        <time>2015-01-18T12:55:48Z</time>
      </trkpt>
      <trkpt lat="44.14017" lon="6.19135">
        <ele>1503.64</ele>
        <time>2015-01-18T12:56:27Z</time>
      </trkpt>
      <trkpt lat="44.14018" lon="6.19135">
        <ele>1505.08</ele>
        <time>2015-01-18T12:56:37Z</time>
      </trkpt>
      <trkpt lat="44.14018" lon="6.19135">
        <ele>1505.08</ele>
        <time>2015-01-18T12:56:54Z</time>
      </trkpt>
      <trkpt lat="44.14018" lon="6.19135">
        <ele>1505.08</ele>
        <time>2015-01-18T12:56:55Z</time>
      </trkpt>
      <trkpt lat="44.14018" lon="6.19135">
        <ele>1505.08</ele>
        <time>2015-01-18T12:56:59Z</time>
      </trkpt>
      <trkpt lat="44.14017" lon="6.19135">
        <ele>1503.64</ele>
        <time>2015-01-18T12:57:21Z</time>
      </trkpt>
      <trkpt lat="44.14017" lon="6.19135">
        <ele>1506.04</ele>
        <time>2015-01-18T12:57:53Z</time>
      </trkpt>
      <trkpt lat="44.14017" lon="6.19135">
        <ele>1503.16</ele>
        <time>2015-01-18T12:57:55Z</time>
      </trkpt>
      <trkpt lat="44.14017" lon="6.19134">
        <ele>1505.56</ele>
        <time>2015-01-18T12:58:08Z</time>
      </trkpt>
      <trkpt lat="44.14018" lon="6.19134">
        <ele>1505.56</ele>
        <time>2015-01-18T12:58:49Z</time>
      </trkpt>
      <trkpt lat="44.14018" lon="6.19134">
        <ele>1503.64</ele>
        <time>2015-01-18T12:58:53Z</time>
      </trkpt>
      <trkpt lat="44.14018" lon="6.19134">
        <ele>1503.16</ele>
        <time>2015-01-18T12:59:00Z</time>
      </trkpt>
      <trkpt lat="44.14018" lon="6.19134">
        <ele>1505.08</ele>
        <time>2015-01-18T12:59:03Z</time>
      </trkpt>
      <trkpt lat="44.14018" lon="6.19134">
        <ele>1505.56</ele>
        <time>2015-01-18T12:59:27Z</time>
      </trkpt>
      <trkpt lat="44.14018" lon="6.19134">
        <ele>1504.6</ele>
        <time>2015-01-18T13:00:01Z</time>
      </trkpt>
      <trkpt lat="44.14018" lon="6.19134">
        <ele>1503.16</ele>
        <time>2015-01-18T13:00:40Z</time>
      </trkpt>
      <trkpt lat="44.14018" lon="6.19134">
        <ele>1506.52</ele>
        <time>2015-01-18T13:00:44Z</time>
      </trkpt>
      <trkpt lat="44.14018" lon="6.19134">
        <ele>1503.64</ele>
        <time>2015-01-18T13:00:45Z</time>
      </trkpt>
      <trkpt lat="44.14018" lon="6.19134">
        <ele>1504.6</ele>
        <time>2015-01-18T13:01:15Z</time>
      </trkpt>
      <trkpt lat="44.14019" lon="6.19133">
        <ele>1503.64</ele>
        <time>2015-01-18T13:01:36Z</time>
      </trkpt>
      <trkpt lat="44.14019" lon="6.19133">
        <ele>1505.08</ele>
        <time>2015-01-18T13:01:38Z</time>
      </trkpt>
      <trkpt lat="44.14019" lon="6.19133">
        <ele>1503.16</ele>
        <time>2015-01-18T13:01:40Z</time>
      </trkpt>
      <trkpt lat="44.14019" lon="6.19133">
        <ele>1506.52</ele>
        <time>2015-01-18T13:01:42Z</time>
      </trkpt>
      <trkpt lat="44.14019" lon="6.19133">
        <ele>1503.16</ele>
        <time>2015-01-18T13:01:44Z</time>
      </trkpt>
      <trkpt lat="44.14019" lon="6.19133">
        <ele>1506.04</ele>
        <time>2015-01-18T13:01:46Z</time>
      </trkpt>
      <trkpt lat="44.14019" lon="6.19133">
        <ele>1505.56</ele>
        <time>2015-01-18T13:01:47Z</time>
      </trkpt>
      <trkpt lat="44.14019" lon="6.19133">
        <ele>1503.64</ele>
        <time>2015-01-18T13:01:52Z</time>
      </trkpt>
      <trkpt lat="44.14019" lon="6.19133">
        <ele>1507</ele>
        <time>2015-01-18T13:01:54Z</time>
      </trkpt>
      <trkpt lat="44.14019" lon="6.19133">
        <ele>1502.68</ele>
        <time>2015-01-18T13:01:56Z</time>
      </trkpt>
      <trkpt lat="44.14018" lon="6.19134">
        <ele>1506.52</ele>
        <time>2015-01-18T13:01:58Z</time>
      </trkpt>
      <trkpt lat="44.14018" lon="6.19134">
        <ele>1503.16</ele>
        <time>2015-01-18T13:02:03Z</time>
      </trkpt>
      <trkpt lat="44.14018" lon="6.19134">
        <ele>1503.64</ele>
        <time>2015-01-18T13:02:04Z</time>
      </trkpt>
      <trkpt lat="44.14018" lon="6.19134">
        <ele>1505.56</ele>
        <time>2015-01-18T13:02:06Z</time>
      </trkpt>
      <trkpt lat="44.14018" lon="6.19134">
        <ele>1506.52</ele>
        <time>2015-01-18T13:02:10Z</time>
      </trkpt>
      <trkpt lat="44.14018" lon="6.19134">
        <ele>1502.68</ele>
        <time>2015-01-18T13:02:15Z</time>
      </trkpt>
      <trkpt lat="44.14018" lon="6.19134">
        <ele>1507</ele>
        <time>2015-01-18T13:02:17Z</time>
      </trkpt>
      <trkpt lat="44.14018" lon="6.19134">
        <ele>1503.64</ele>
        <time>2015-01-18T13:02:18Z</time>
      </trkpt>
      <trkpt lat="44.14018" lon="6.19134">
        <ele>1507</ele>
        <time>2015-01-18T13:02:24Z</time>
      </trkpt>
      <trkpt lat="44.14018" lon="6.19134">
        <ele>1503.16</ele>
        <time>2015-01-18T13:02:25Z</time>
      </trkpt>
      <trkpt lat="44.14018" lon="6.19134">
        <ele>1506.52</ele>
        <time>2015-01-18T13:02:28Z</time>
      </trkpt>
      <trkpt lat="44.14018" lon="6.19134">
        <ele>1503.64</ele>
        <time>2015-01-18T13:02:29Z</time>
      </trkpt>
      <trkpt lat="44.14018" lon="6.19134">
        <ele>1505.56</ele>
        <time>2015-01-18T13:02:32Z</time>
      </trkpt>
      <trkpt lat="44.14019" lon="6.19134">
        <ele>1503.16</ele>
        <time>2015-01-18T13:02:41Z</time>
      </trkpt>
      <trkpt lat="44.14019" lon="6.19134">
        <ele>1507</ele>
        <time>2015-01-18T13:02:43Z</time>
      </trkpt>
      <trkpt lat="44.14019" lon="6.19134">
        <ele>1503.64</ele>
        <time>2015-01-18T13:02:45Z</time>
      </trkpt>
      <trkpt lat="44.14019" lon="6.19134">
        <ele>1507</ele>
        <time>2015-01-18T13:02:47Z</time>
      </trkpt>
      <trkpt lat="44.14019" lon="6.19134">
        <ele>1503.16</ele>
        <time>2015-01-18T13:02:48Z</time>
      </trkpt>
      <trkpt lat="44.14019" lon="6.19134">
        <ele>1507</ele>
        <time>2015-01-18T13:02:50Z</time>
      </trkpt>
      <trkpt lat="44.14019" lon="6.19134">
        <ele>1506.52</ele>
        <time>2015-01-18T13:02:51Z</time>
      </trkpt>
      <trkpt lat="44.14019" lon="6.19134">
        <ele>1502.68</ele>
        <time>2015-01-18T13:02:52Z</time>
      </trkpt>
      <trkpt lat="44.14019" lon="6.19134">
        <ele>1504.12</ele>
        <time>2015-01-18T13:02:53Z</time>
      </trkpt>
      <trkpt lat="44.14019" lon="6.19134">
        <ele>1507</ele>
        <time>2015-01-18T13:03:06Z</time>
      </trkpt>
      <trkpt lat="44.14019" lon="6.19134">
        <ele>1502.68</ele>
        <time>2015-01-18T13:03:08Z</time>
      </trkpt>
      <trkpt lat="44.14019" lon="6.19134">
        <ele>1506.52</ele>
        <time>2015-01-18T13:03:10Z</time>
      </trkpt>
      <trkpt lat="44.14019" lon="6.19134">
        <ele>1505.56</ele>
        <time>2015-01-18T13:03:11Z</time>
      </trkpt>
      <trkpt lat="44.14019" lon="6.19134">
        <ele>1503.16</ele>
        <time>2015-01-18T13:03:13Z</time>
      </trkpt>
      <trkpt lat="44.14019" lon="6.19134">
        <ele>1505.08</ele>
        <time>2015-01-18T13:03:15Z</time>
      </trkpt>
      <trkpt lat="44.14018" lon="6.19134">
        <ele>1502.2</ele>
        <time>2015-01-18T13:03:18Z</time>
      </trkpt>
      <trkpt lat="44.14018" lon="6.19134">
        <ele>1505.56</ele>
        <time>2015-01-18T13:03:20Z</time>
      </trkpt>
      <trkpt lat="44.14018" lon="6.19134">
        <ele>1505.56</ele>
        <time>2015-01-18T13:03:21Z</time>
      </trkpt>
      <trkpt lat="44.14018" lon="6.19134">
        <ele>1503.64</ele>
        <time>2015-01-18T13:03:23Z</time>
      </trkpt>
      <trkpt lat="44.14018" lon="6.19134">
        <ele>1505.08</ele>
        <time>2015-01-18T13:03:25Z</time>
      </trkpt>
      <trkpt lat="44.14018" lon="6.19134">
        <ele>1504.12</ele>
        <time>2015-01-18T13:03:35Z</time>
      </trkpt>
      <trkpt lat="44.14018" lon="6.19134">
        <ele>1506.04</ele>
        <time>2015-01-18T13:03:37Z</time>
      </trkpt>
      <trkpt lat="44.14018" lon="6.19134">
        <ele>1502.68</ele>
        <time>2015-01-18T13:03:38Z</time>
      </trkpt>
      <trkpt lat="44.14018" lon="6.19134">
        <ele>1502.68</ele>
        <time>2015-01-18T13:03:39Z</time>
      </trkpt>
      <trkpt lat="44.14018" lon="6.19134">
        <ele>1507</ele>
        <time>2015-01-18T13:03:42Z</time>
      </trkpt>
      <trkpt lat="44.14018" lon="6.19134">
        <ele>1507</ele>
        <time>2015-01-18T13:03:43Z</time>
      </trkpt>
      <trkpt lat="44.14018" lon="6.19134">
        <ele>1506.04</ele>
        <time>2015-01-18T13:03:48Z</time>
      </trkpt>
      <trkpt lat="44.14018" lon="6.19134">
        <ele>1503.64</ele>
        <time>2015-01-18T13:03:50Z</time>
      </trkpt>
      <trkpt lat="44.14018" lon="6.19134">
        <ele>1507</ele>
        <time>2015-01-18T13:03:52Z</time>
      </trkpt>
      <trkpt lat="44.14018" lon="6.19134">
        <ele>1503.64</ele>
        <time>2015-01-18T13:03:54Z</time>
      </trkpt>
      <trkpt lat="44.14018" lon="6.19134">
        <ele>1507</ele>
        <time>2015-01-18T13:03:57Z</time>
      </trkpt>
      <trkpt lat="44.14019" lon="6.19133">
        <ele>1505.08</ele>
        <time>2015-01-18T13:03:58Z</time>
      </trkpt>
      <trkpt lat="44.14019" lon="6.19133">
        <ele>1504.12</ele>
        <time>2015-01-18T13:04:00Z</time>
      </trkpt>
      <trkpt lat="44.14019" lon="6.19133">
        <ele>1503.16</ele>
        <time>2015-01-18T13:04:05Z</time>
      </trkpt>
      <trkpt lat="44.14019" lon="6.19133">
        <ele>1506.52</ele>
        <time>2015-01-18T13:04:07Z</time>
      </trkpt>
      <trkpt lat="44.14019" lon="6.19133">
        <ele>1506.52</ele>
        <time>2015-01-18T13:04:11Z</time>
      </trkpt>
      <trkpt lat="44.14019" lon="6.19133">
        <ele>1503.16</ele>
        <time>2015-01-18T13:04:13Z</time>
      </trkpt>
      <trkpt lat="44.14019" lon="6.19133">
        <ele>1503.16</ele>
        <time>2015-01-18T13:04:14Z</time>
      </trkpt>
      <trkpt lat="44.14019" lon="6.19133">
        <ele>1507</ele>
        <time>2015-01-18T13:04:17Z</time>
      </trkpt>
      <trkpt lat="44.14019" lon="6.19133">
        <ele>1503.16</ele>
        <time>2015-01-18T13:04:19Z</time>
      </trkpt>
      <trkpt lat="44.14019" lon="6.19133">
        <ele>1507</ele>
        <time>2015-01-18T13:04:21Z</time>
      </trkpt>
      <trkpt lat="44.14019" lon="6.19133">
        <ele>1502.68</ele>
        <time>2015-01-18T13:04:22Z</time>
      </trkpt>
      <trkpt lat="44.14019" lon="6.19133">
        <ele>1507</ele>
        <time>2015-01-18T13:04:24Z</time>
      </trkpt>
      <trkpt lat="44.14019" lon="6.19133">
        <ele>1502.68</ele>
        <time>2015-01-18T13:04:26Z</time>
      </trkpt>
      <trkpt lat="44.14019" lon="6.19133">
        <ele>1503.16</ele>
        <time>2015-01-18T13:04:27Z</time>
      </trkpt>
      <trkpt lat="44.14019" lon="6.19133">
        <ele>1507</ele>
        <time>2015-01-18T13:04:29Z</time>
      </trkpt>
      <trkpt lat="44.14019" lon="6.19133">
        <ele>1503.64</ele>
        <time>2015-01-18T13:04:31Z</time>
      </trkpt>
      <trkpt lat="44.14019" lon="6.19133">
        <ele>1506.52</ele>
        <time>2015-01-18T13:04:35Z</time>
      </trkpt>
      <trkpt lat="44.14019" lon="6.19134">
        <ele>1503.16</ele>
        <time>2015-01-18T13:04:38Z</time>
      </trkpt>
      <trkpt lat="44.14019" lon="6.19134">
        <ele>1503.16</ele>
        <time>2015-01-18T13:04:39Z</time>
      </trkpt>
      <trkpt lat="44.14019" lon="6.19134">
        <ele>1507</ele>
        <time>2015-01-18T13:04:41Z</time>
      </trkpt>
      <trkpt lat="44.14019" lon="6.19134">
        <ele>1506.52</ele>
        <time>2015-01-18T13:04:42Z</time>
      </trkpt>
      <trkpt lat="44.14019" lon="6.19134">
        <ele>1502.2</ele>
        <time>2015-01-18T13:04:45Z</time>
      </trkpt>
      <trkpt lat="44.14019" lon="6.19134">
        <ele>1502.2</ele>
        <time>2015-01-18T13:04:46Z</time>
      </trkpt>
      <trkpt lat="44.14019" lon="6.19134">
        <ele>1505.56</ele>
        <time>2015-01-18T13:04:49Z</time>
      </trkpt>
      <trkpt lat="44.14019" lon="6.19134">
        <ele>1503.16</ele>
        <time>2015-01-18T13:04:59Z</time>
      </trkpt>
      <trkpt lat="44.14019" lon="6.19134">
        <ele>1505.08</ele>
        <time>2015-01-18T13:05:03Z</time>
      </trkpt>
      <trkpt lat="44.14019" lon="6.19134">
        <ele>1506.52</ele>
        <time>2015-01-18T13:05:09Z</time>
      </trkpt>
      <trkpt lat="44.14019" lon="6.19134">
        <ele>1504.6</ele>
        <time>2015-01-18T13:05:13Z</time>
      </trkpt>
      <trkpt lat="44.14018" lon="6.19134">
        <ele>1503.64</ele>
        <time>2015-01-18T13:05:48Z</time>
      </trkpt>
      <trkpt lat="44.14018" lon="6.19134">
        <ele>1507.48</ele>
        <time>2015-01-18T13:06:11Z</time>
      </trkpt>
      <trkpt lat="44.14018" lon="6.19134">
        <ele>1504.12</ele>
        <time>2015-01-18T13:06:18Z</time>
      </trkpt>
      <trkpt lat="44.14018" lon="6.19134">
        <ele>1504.6</ele>
        <time>2015-01-18T13:06:22Z</time>
      </trkpt>
      <trkpt lat="44.14018" lon="6.19134">
        <ele>1503.16</ele>
        <time>2015-01-18T13:06:41Z</time>
      </trkpt>
      <trkpt lat="44.14018" lon="6.19134">
        <ele>1506.52</ele>
        <time>2015-01-18T13:06:50Z</time>
      </trkpt>
      <trkpt lat="44.14018" lon="6.19134">
        <ele>1504.6</ele>
        <time>2015-01-18T13:07:10Z</time>
      </trkpt>
      <trkpt lat="44.14018" lon="6.19133">
        <ele>1502.68</ele>
        <time>2015-01-18T13:07:30Z</time>
      </trkpt>
      <trkpt lat="44.14018" lon="6.19133">
        <ele>1507.48</ele>
        <time>2015-01-18T13:07:54Z</time>
      </trkpt>
      <trkpt lat="44.14018" lon="6.19133">
        <ele>1507.48</ele>
        <time>2015-01-18T13:07:55Z</time>
      </trkpt>
      <trkpt lat="44.14018" lon="6.19133">
        <ele>1506.04</ele>
        <time>2015-01-18T13:07:57Z</time>
      </trkpt>
      <trkpt lat="44.14018" lon="6.19133">
        <ele>1502.68</ele>
        <time>2015-01-18T13:08:00Z</time>
      </trkpt>
      <trkpt lat="44.14018" lon="6.19133">
        <ele>1506.04</ele>
        <time>2015-01-18T13:08:11Z</time>
      </trkpt>
      <trkpt lat="44.14018" lon="6.19133">
        <ele>1505.08</ele>
        <time>2015-01-18T13:08:21Z</time>
      </trkpt>
      <trkpt lat="44.14018" lon="6.19133">
        <ele>1503.64</ele>
        <time>2015-01-18T13:08:28Z</time>
      </trkpt>
      <trkpt lat="44.14019" lon="6.19133">
        <ele>1507</ele>
        <time>2015-01-18T13:08:40Z</time>
      </trkpt>
      <trkpt lat="44.14019" lon="6.19133">
        <ele>1507.48</ele>
        <time>2015-01-18T13:08:41Z</time>
      </trkpt>
      <trkpt lat="44.14019" lon="6.19133">
        <ele>1504.12</ele>
        <time>2015-01-18T13:08:52Z</time>
      </trkpt>
      <trkpt lat="44.14019" lon="6.19133">
        <ele>1504.12</ele>
        <time>2015-01-18T13:08:53Z</time>
      </trkpt>
      <trkpt lat="44.14019" lon="6.19133">
        <ele>1507.48</ele>
        <time>2015-01-18T13:08:58Z</time>
      </trkpt>
      <trkpt lat="44.14019" lon="6.19133">
        <ele>1503.64</ele>
        <time>2015-01-18T13:09:02Z</time>
      </trkpt>
      <trkpt lat="44.14019" lon="6.19133">
        <ele>1503.64</ele>
        <time>2015-01-18T13:09:03Z</time>
      </trkpt>
      <trkpt lat="44.14019" lon="6.19133">
        <ele>1505.56</ele>
        <time>2015-01-18T13:09:06Z</time>
      </trkpt>
      <trkpt lat="44.14019" lon="6.19133">
        <ele>1506.52</ele>
        <time>2015-01-18T13:09:16Z</time>
      </trkpt>
      <trkpt lat="44.14019" lon="6.19133">
        <ele>1503.64</ele>
        <time>2015-01-18T13:09:38Z</time>
      </trkpt>
      <trkpt lat="44.14019" lon="6.19133">
        <ele>1505.08</ele>
        <time>2015-01-18T13:09:41Z</time>
      </trkpt>
      <trkpt lat="44.14019" lon="6.19133">
        <ele>1505.08</ele>
        <time>2015-01-18T13:10:09Z</time>
      </trkpt>
      <trkpt lat="44.14019" lon="6.19133">
        <ele>1503.16</ele>
        <time>2015-01-18T13:10:14Z</time>
      </trkpt>
      <trkpt lat="44.14019" lon="6.19133">
        <ele>1506.52</ele>
        <time>2015-01-18T13:10:21Z</time>
      </trkpt>
      <trkpt lat="44.14019" lon="6.19133">
        <ele>1505.56</ele>
        <time>2015-01-18T13:10:26Z</time>
      </trkpt>
      <trkpt lat="44.14019" lon="6.19133">
        <ele>1503.64</ele>
        <time>2015-01-18T13:10:29Z</time>
      </trkpt>
      <trkpt lat="44.14019" lon="6.19133">
        <ele>1507</ele>
        <time>2015-01-18T13:10:35Z</time>
      </trkpt>
      <trkpt lat="44.14019" lon="6.19133">
        <ele>1503.64</ele>
        <time>2015-01-18T13:10:48Z</time>
      </trkpt>
      <trkpt lat="44.14019" lon="6.19133">
        <ele>1507.48</ele>
        <time>2015-01-18T13:10:51Z</time>
      </trkpt>
      <trkpt lat="44.14019" lon="6.19133">
        <ele>1507</ele>
        <time>2015-01-18T13:10:52Z</time>
      </trkpt>
      <trkpt lat="44.14019" lon="6.19133">
        <ele>1505.08</ele>
        <time>2015-01-18T13:11:04Z</time>
      </trkpt>
      <trkpt lat="44.14019" lon="6.19133">
        <ele>1506.52</ele>
        <time>2015-01-18T13:11:15Z</time>
      </trkpt>
      <trkpt lat="44.14019" lon="6.19133">
        <ele>1504.12</ele>
        <time>2015-01-18T13:11:20Z</time>
      </trkpt>
      <trkpt lat="44.14019" lon="6.19133">
        <ele>1507</ele>
        <time>2015-01-18T13:11:52Z</time>
      </trkpt>
      <trkpt lat="44.14019" lon="6.19133">
        <ele>1503.16</ele>
        <time>2015-01-18T13:12:00Z</time>
      </trkpt>
      <trkpt lat="44.14019" lon="6.19133">
        <ele>1503.16</ele>
        <time>2015-01-18T13:12:01Z</time>
      </trkpt>
      <trkpt lat="44.14019" lon="6.19133">
        <ele>1504.12</ele>
        <time>2015-01-18T13:12:07Z</time>
      </trkpt>
      <trkpt lat="44.14019" lon="6.19133">
        <ele>1507.48</ele>
        <time>2015-01-18T13:12:12Z</time>
      </trkpt>
      <trkpt lat="44.14019" lon="6.19133">
        <ele>1504.12</ele>
        <time>2015-01-18T13:12:16Z</time>
      </trkpt>
      <trkpt lat="44.14019" lon="6.19133">
        <ele>1507.48</ele>
        <time>2015-01-18T13:12:24Z</time>
      </trkpt>
      <trkpt lat="44.14019" lon="6.19133">
        <ele>1504.12</ele>
        <time>2015-01-18T13:12:28Z</time>
      </trkpt>
      <trkpt lat="44.14019" lon="6.19133">
        <ele>1507</ele>
        <time>2015-01-18T13:12:36Z</time>
      </trkpt>
      <trkpt lat="44.14019" lon="6.19133">
        <ele>1503.16</ele>
        <time>2015-01-18T13:12:40Z</time>
      </trkpt>
      <trkpt lat="44.14019" lon="6.19133">
        <ele>1507</ele>
        <time>2015-01-18T13:12:47Z</time>
      </trkpt>
      <trkpt lat="44.14019" lon="6.19133">
        <ele>1503.16</ele>
        <time>2015-01-18T13:12:51Z</time>
      </trkpt>
      <trkpt lat="44.14019" lon="6.19133">
        <ele>1503.16</ele>
        <time>2015-01-18T13:12:52Z</time>
      </trkpt>
      <trkpt lat="44.14019" lon="6.19133">
        <ele>1507</ele>
        <time>2015-01-18T13:12:56Z</time>
      </trkpt>
      <trkpt lat="44.14019" lon="6.19133">
        <ele>1506.52</ele>
        <time>2015-01-18T13:12:57Z</time>
      </trkpt>
      <trkpt lat="44.14019" lon="6.19133">
        <ele>1502.68</ele>
        <time>2015-01-18T13:13:00Z</time>
      </trkpt>
      <trkpt lat="44.14019" lon="6.19133">
        <ele>1507</ele>
        <time>2015-01-18T13:13:03Z</time>
      </trkpt>
      <trkpt lat="44.14019" lon="6.19133">
        <ele>1507</ele>
        <time>2015-01-18T13:13:04Z</time>
      </trkpt>
      <trkpt lat="44.14019" lon="6.19133">
        <ele>1503.16</ele>
        <time>2015-01-18T13:13:06Z</time>
      </trkpt>
      <trkpt lat="44.14019" lon="6.19133">
        <ele>1502.68</ele>
        <time>2015-01-18T13:13:08Z</time>
      </trkpt>
      <trkpt lat="44.14019" lon="6.19133">
        <ele>1506.52</ele>
        <time>2015-01-18T13:13:10Z</time>
      </trkpt>
      <trkpt lat="44.14019" lon="6.19133">
        <ele>1506.04</ele>
        <time>2015-01-18T13:13:11Z</time>
      </trkpt>
      <trkpt lat="44.14019" lon="6.19133">
        <ele>1502.68</ele>
        <time>2015-01-18T13:13:13Z</time>
      </trkpt>
      <trkpt lat="44.14019" lon="6.19133">
        <ele>1507.48</ele>
        <time>2015-01-18T13:13:14Z</time>
      </trkpt>
      <trkpt lat="44.14019" lon="6.19133">
        <ele>1503.64</ele>
        <time>2015-01-18T13:13:16Z</time>
      </trkpt>
      <trkpt lat="44.14019" lon="6.19133">
        <ele>1504.12</ele>
        <time>2015-01-18T13:13:17Z</time>
      </trkpt>
      <trkpt lat="44.14019" lon="6.19133">
        <ele>1506.52</ele>
        <time>2015-01-18T13:13:20Z</time>
      </trkpt>
      <trkpt lat="44.14019" lon="6.19133">
        <ele>1503.16</ele>
        <time>2015-01-18T13:13:24Z</time>
      </trkpt>
      <trkpt lat="44.14019" lon="6.19133">
        <ele>1502.68</ele>
        <time>2015-01-18T13:13:25Z</time>
      </trkpt>
      <trkpt lat="44.14019" lon="6.19133">
        <ele>1507</ele>
        <time>2015-01-18T13:13:28Z</time>
      </trkpt>
      <trkpt lat="44.14019" lon="6.19133">
        <ele>1503.16</ele>
        <time>2015-01-18T13:13:32Z</time>
      </trkpt>
      <trkpt lat="44.14019" lon="6.19133">
        <ele>1507</ele>
        <time>2015-01-18T13:13:36Z</time>
      </trkpt>
      <trkpt lat="44.14019" lon="6.19133">
        <ele>1503.64</ele>
        <time>2015-01-18T13:13:40Z</time>
      </trkpt>
      <trkpt lat="44.14019" lon="6.19133">
        <ele>1507</ele>
        <time>2015-01-18T13:13:42Z</time>
      </trkpt>
      <trkpt lat="44.14019" lon="6.19133">
        <ele>1507</ele>
        <time>2015-01-18T13:13:43Z</time>
      </trkpt>
      <trkpt lat="44.14019" lon="6.19133">
        <ele>1503.16</ele>
        <time>2015-01-18T13:13:46Z</time>
      </trkpt>
      <trkpt lat="44.14019" lon="6.19133">
        <ele>1506.04</ele>
        <time>2015-01-18T13:13:48Z</time>
      </trkpt>
      <trkpt lat="44.14019" lon="6.19133">
        <ele>1503.16</ele>
        <time>2015-01-18T13:13:53Z</time>
      </trkpt>
      <trkpt lat="44.14019" lon="6.19133">
        <ele>1506.52</ele>
        <time>2015-01-18T13:13:57Z</time>
      </trkpt>
      <trkpt lat="44.14019" lon="6.19133">
        <ele>1502.68</ele>
        <time>2015-01-18T13:14:01Z</time>
      </trkpt>
      <trkpt lat="44.14019" lon="6.19133">
        <ele>1506.04</ele>
        <time>2015-01-18T13:14:05Z</time>
      </trkpt>
      <trkpt lat="44.14019" lon="6.19133">
        <ele>1502.68</ele>
        <time>2015-01-18T13:14:08Z</time>
      </trkpt>
      <trkpt lat="44.14019" lon="6.19133">
        <ele>1507</ele>
        <time>2015-01-18T13:14:11Z</time>
      </trkpt>
      <trkpt lat="44.14019" lon="6.19133">
        <ele>1503.16</ele>
        <time>2015-01-18T13:14:12Z</time>
      </trkpt>
      <trkpt lat="44.14019" lon="6.19133">
        <ele>1503.16</ele>
        <time>2015-01-18T13:14:13Z</time>
      </trkpt>
      <trkpt lat="44.14019" lon="6.19133">
        <ele>1507.48</ele>
        <time>2015-01-18T13:14:16Z</time>
      </trkpt>
      <trkpt lat="44.14019" lon="6.19133">
        <ele>1506.52</ele>
        <time>2015-01-18T13:14:17Z</time>
      </trkpt>
      <trkpt lat="44.14019" lon="6.19133">
        <ele>1502.68</ele>
        <time>2015-01-18T13:14:20Z</time>
      </trkpt>
      <trkpt lat="44.14019" lon="6.19133">
        <ele>1506.52</ele>
        <time>2015-01-18T13:14:23Z</time>
      </trkpt>
      <trkpt lat="44.14019" lon="6.19133">
        <ele>1506.04</ele>
        <time>2015-01-18T13:14:24Z</time>
      </trkpt>
      <trkpt lat="44.14019" lon="6.19133">
        <ele>1502.68</ele>
        <time>2015-01-18T13:14:26Z</time>
      </trkpt>
      <trkpt lat="44.14019" lon="6.19133">
        <ele>1502.68</ele>
        <time>2015-01-18T13:14:27Z</time>
      </trkpt>
      <trkpt lat="44.14019" lon="6.19133">
        <ele>1507</ele>
        <time>2015-01-18T13:14:31Z</time>
      </trkpt>
      <trkpt lat="44.14019" lon="6.19133">
        <ele>1503.64</ele>
        <time>2015-01-18T13:14:34Z</time>
      </trkpt>
      <trkpt lat="44.14019" lon="6.19133">
        <ele>1507</ele>
        <time>2015-01-18T13:14:37Z</time>
      </trkpt>
      <trkpt lat="44.14019" lon="6.19133">
        <ele>1506.52</ele>
        <time>2015-01-18T13:14:38Z</time>
      </trkpt>
      <trkpt lat="44.14019" lon="6.19133">
        <ele>1502.68</ele>
        <time>2015-01-18T13:14:42Z</time>
      </trkpt>
      <trkpt lat="44.14019" lon="6.19133">
        <ele>1502.2</ele>
        <time>2015-01-18T13:14:43Z</time>
      </trkpt>
      <trkpt lat="44.14019" lon="6.19133">
        <ele>1506.04</ele>
        <time>2015-01-18T13:14:46Z</time>
      </trkpt>
      <trkpt lat="44.14019" lon="6.19133">
        <ele>1503.16</ele>
        <time>2015-01-18T13:14:50Z</time>
      </trkpt>
      <trkpt lat="44.14019" lon="6.19133">
        <ele>1506.52</ele>
        <time>2015-01-18T13:14:53Z</time>
      </trkpt>
      <trkpt lat="44.14019" lon="6.19133">
        <ele>1503.64</ele>
        <time>2015-01-18T13:14:56Z</time>
      </trkpt>
      <trkpt lat="44.14019" lon="6.19133">
        <ele>1505.56</ele>
        <time>2015-01-18T13:15:00Z</time>
      </trkpt>
      <trkpt lat="44.14019" lon="6.19133">
        <ele>1502.2</ele>
        <time>2015-01-18T13:15:02Z</time>
      </trkpt>
      <trkpt lat="44.14019" lon="6.19133">
        <ele>1503.16</ele>
        <time>2015-01-18T13:15:03Z</time>
      </trkpt>
      <trkpt lat="44.14019" lon="6.19133">
        <ele>1506.52</ele>
        <time>2015-01-18T13:15:06Z</time>
      </trkpt>
      <trkpt lat="44.14019" lon="6.19133">
        <ele>1503.64</ele>
        <time>2015-01-18T13:15:08Z</time>
      </trkpt>
      <trkpt lat="44.14019" lon="6.19133">
        <ele>1506.52</ele>
        <time>2015-01-18T13:15:12Z</time>
      </trkpt>
      <trkpt lat="44.14019" lon="6.19133">
        <ele>1506.52</ele>
        <time>2015-01-18T13:15:13Z</time>
      </trkpt>
      <trkpt lat="44.14019" lon="6.19133">
        <ele>1502.68</ele>
        <time>2015-01-18T13:15:19Z</time>
      </trkpt>
      <trkpt lat="44.14019" lon="6.19133">
        <ele>1503.64</ele>
        <time>2015-01-18T13:15:20Z</time>
      </trkpt>
      <trkpt lat="44.14019" lon="6.19133">
        <ele>1507</ele>
        <time>2015-01-18T13:15:22Z</time>
      </trkpt>
      <trkpt lat="44.14019" lon="6.19133">
        <ele>1503.16</ele>
        <time>2015-01-18T13:15:25Z</time>
      </trkpt>
      <trkpt lat="44.14019" lon="6.19133">
        <ele>1502.68</ele>
        <time>2015-01-18T13:15:26Z</time>
      </trkpt>
      <trkpt lat="44.14019" lon="6.19133">
        <ele>1506.52</ele>
        <time>2015-01-18T13:15:28Z</time>
      </trkpt>
      <trkpt lat="44.14019" lon="6.19133">
        <ele>1502.68</ele>
        <time>2015-01-18T13:15:31Z</time>
      </trkpt>
      <trkpt lat="44.14019" lon="6.19133">
        <ele>1506.52</ele>
        <time>2015-01-18T13:15:33Z</time>
      </trkpt>
      <trkpt lat="44.14019" lon="6.19133">
        <ele>1506.52</ele>
        <time>2015-01-18T13:15:34Z</time>
      </trkpt>
      <trkpt lat="44.14019" lon="6.19133">
        <ele>1503.16</ele>
        <time>2015-01-18T13:15:35Z</time>
      </trkpt>
      <trkpt lat="44.14019" lon="6.19133">
        <ele>1503.64</ele>
        <time>2015-01-18T13:15:36Z</time>
      </trkpt>
      <trkpt lat="44.14019" lon="6.19133">
        <ele>1506.52</ele>
        <time>2015-01-18T13:15:37Z</time>
      </trkpt>
      <trkpt lat="44.14019" lon="6.19133">
        <ele>1505.08</ele>
        <time>2015-01-18T13:15:38Z</time>
      </trkpt>
      <trkpt lat="44.14019" lon="6.19133">
        <ele>1505.08</ele>
        <time>2015-01-18T13:15:43Z</time>
      </trkpt>
      <trkpt lat="44.14019" lon="6.19133">
        <ele>1503.64</ele>
        <time>2015-01-18T13:15:48Z</time>
      </trkpt>
      <trkpt lat="44.14019" lon="6.19133">
        <ele>1507</ele>
        <time>2015-01-18T13:15:59Z</time>
      </trkpt>
      <trkpt lat="44.14019" lon="6.19133">
        <ele>1503.16</ele>
        <time>2015-01-18T13:16:00Z</time>
      </trkpt>
      <trkpt lat="44.14019" lon="6.19133">
        <ele>1503.64</ele>
        <time>2015-01-18T13:16:01Z</time>
      </trkpt>
      <trkpt lat="44.14019" lon="6.19133">
        <ele>1506.04</ele>
        <time>2015-01-18T13:16:03Z</time>
      </trkpt>
      <trkpt lat="44.14019" lon="6.19133">
        <ele>1503.16</ele>
        <time>2015-01-18T13:16:05Z</time>
      </trkpt>
      <trkpt lat="44.14019" lon="6.19133">
        <ele>1506.52</ele>
        <time>2015-01-18T13:16:06Z</time>
      </trkpt>
      <trkpt lat="44.14019" lon="6.19133">
        <ele>1502.68</ele>
        <time>2015-01-18T13:16:08Z</time>
      </trkpt>
      <trkpt lat="44.14019" lon="6.19133">
        <ele>1506.04</ele>
        <time>2015-01-18T13:16:09Z</time>
      </trkpt>
      <trkpt lat="44.14019" lon="6.19133">
        <ele>1502.68</ele>
        <time>2015-01-18T13:16:11Z</time>
      </trkpt>
      <trkpt lat="44.14019" lon="6.19133">
        <ele>1506.04</ele>
        <time>2015-01-18T13:16:12Z</time>
      </trkpt>
      <trkpt lat="44.14019" lon="6.19133">
        <ele>1503.64</ele>
        <time>2015-01-18T13:16:15Z</time>
      </trkpt>
      <trkpt lat="44.14019" lon="6.19133">
        <ele>1506.52</ele>
        <time>2015-01-18T13:16:16Z</time>
      </trkpt>
      <trkpt lat="44.14019" lon="6.19133">
        <ele>1504.6</ele>
        <time>2015-01-18T13:16:17Z</time>
      </trkpt>
      <trkpt lat="44.14019" lon="6.19133">
        <ele>1503.64</ele>
        <time>2015-01-18T13:16:31Z</time>
      </trkpt>
      <trkpt lat="44.14019" lon="6.19133">
        <ele>1504.12</ele>
        <time>2015-01-18T13:16:41Z</time>
      </trkpt>
      <trkpt lat="44.14019" lon="6.19133">
        <ele>1507</ele>
        <time>2015-01-18T13:16:48Z</time>
      </trkpt>
      <trkpt lat="44.14019" lon="6.19133">
        <ele>1503.64</ele>
        <time>2015-01-18T13:16:50Z</time>
      </trkpt>
      <trkpt lat="44.14019" lon="6.19133">
        <ele>1505.56</ele>
        <time>2015-01-18T13:17:03Z</time>
      </trkpt>
      <trkpt lat="44.14019" lon="6.19133">
        <ele>1504.6</ele>
        <time>2015-01-18T13:17:05Z</time>
      </trkpt>
      <trkpt lat="44.14019" lon="6.19133">
        <ele>1506.04</ele>
        <time>2015-01-18T13:17:10Z</time>
      </trkpt>
      <trkpt lat="44.14019" lon="6.19133">
        <ele>1502.68</ele>
        <time>2015-01-18T13:17:20Z</time>
      </trkpt>
      <trkpt lat="44.14019" lon="6.19133">
        <ele>1506.52</ele>
        <time>2015-01-18T13:17:21Z</time>
      </trkpt>
      <trkpt lat="44.14019" lon="6.19133">
        <ele>1503.16</ele>
        <time>2015-01-18T13:17:22Z</time>
      </trkpt>
      <trkpt lat="44.14019" lon="6.19133">
        <ele>1506.52</ele>
        <time>2015-01-18T13:17:24Z</time>
      </trkpt>
      <trkpt lat="44.14019" lon="6.19133">
        <ele>1502.68</ele>
        <time>2015-01-18T13:17:25Z</time>
      </trkpt>
      <trkpt lat="44.14019" lon="6.19133">
        <ele>1505.56</ele>
        <time>2015-01-18T13:17:26Z</time>
      </trkpt>
      <trkpt lat="44.14019" lon="6.19133">
        <ele>1502.68</ele>
        <time>2015-01-18T13:17:31Z</time>
      </trkpt>
      <trkpt lat="44.14019" lon="6.19133">
        <ele>1506.04</ele>
        <time>2015-01-18T13:17:32Z</time>
      </trkpt>
      <trkpt lat="44.14019" lon="6.19133">
        <ele>1502.68</ele>
        <time>2015-01-18T13:17:36Z</time>
      </trkpt>
      <trkpt lat="44.14019" lon="6.19133">
        <ele>1503.16</ele>
        <time>2015-01-18T13:17:37Z</time>
      </trkpt>
      <trkpt lat="44.14019" lon="6.19133">
        <ele>1506.52</ele>
        <time>2015-01-18T13:17:38Z</time>
      </trkpt>
      <trkpt lat="44.14019" lon="6.19133">
        <ele>1502.68</ele>
        <time>2015-01-18T13:17:39Z</time>
      </trkpt>
      <trkpt lat="44.14019" lon="6.19133">
        <ele>1506.52</ele>
        <time>2015-01-18T13:17:43Z</time>
      </trkpt>
      <trkpt lat="44.14019" lon="6.19133">
        <ele>1503.16</ele>
        <time>2015-01-18T13:17:51Z</time>
      </trkpt>
      <trkpt lat="44.14019" lon="6.19133">
        <ele>1506.04</ele>
        <time>2015-01-18T13:17:52Z</time>
      </trkpt>
      <trkpt lat="44.14019" lon="6.19133">
        <ele>1503.16</ele>
        <time>2015-01-18T13:17:53Z</time>
      </trkpt>
      <trkpt lat="44.14019" lon="6.19133">
        <ele>1506.04</ele>
        <time>2015-01-18T13:17:57Z</time>
      </trkpt>
      <trkpt lat="44.14018" lon="6.19132">
        <ele>1502.68</ele>
        <time>2015-01-18T13:17:58Z</time>
      </trkpt>
      <trkpt lat="44.14018" lon="6.19132">
        <ele>1506.04</ele>
        <time>2015-01-18T13:17:59Z</time>
      </trkpt>
      <trkpt lat="44.14018" lon="6.19132">
        <ele>1502.2</ele>
        <time>2015-01-18T13:18:00Z</time>
      </trkpt>
      <trkpt lat="44.14018" lon="6.19132">
        <ele>1506.52</ele>
        <time>2015-01-18T13:18:01Z</time>
      </trkpt>
      <trkpt lat="44.14018" lon="6.19132">
        <ele>1503.16</ele>
        <time>2015-01-18T13:18:02Z</time>
      </trkpt>
      <trkpt lat="44.14018" lon="6.19132">
        <ele>1506.52</ele>
        <time>2015-01-18T13:18:14Z</time>
      </trkpt>
      <trkpt lat="44.14018" lon="6.19132">
        <ele>1502.68</ele>
        <time>2015-01-18T13:18:15Z</time>
      </trkpt>
      <trkpt lat="44.14018" lon="6.19132">
        <ele>1506.52</ele>
        <time>2015-01-18T13:18:16Z</time>
      </trkpt>
      <trkpt lat="44.14018" lon="6.19132">
        <ele>1502.68</ele>
        <time>2015-01-18T13:18:17Z</time>
      </trkpt>
      <trkpt lat="44.14018" lon="6.19132">
        <ele>1506.04</ele>
        <time>2015-01-18T13:18:18Z</time>
      </trkpt>
      <trkpt lat="44.14018" lon="6.19132">
        <ele>1502.2</ele>
        <time>2015-01-18T13:18:19Z</time>
      </trkpt>
      <trkpt lat="44.14018" lon="6.19132">
        <ele>1505.56</ele>
        <time>2015-01-18T13:18:20Z</time>
      </trkpt>
      <trkpt lat="44.14018" lon="6.19132">
        <ele>1505.08</ele>
        <time>2015-01-18T13:18:25Z</time>
      </trkpt>
      <trkpt lat="44.14019" lon="6.19132">
        <ele>1503.64</ele>
        <time>2015-01-18T13:18:39Z</time>
      </trkpt>
      <trkpt lat="44.14019" lon="6.19132">
        <ele>1506.52</ele>
        <time>2015-01-18T13:19:03Z</time>
      </trkpt>
      <trkpt lat="44.14019" lon="6.19132">
        <ele>1502.68</ele>
        <time>2015-01-18T13:19:04Z</time>
      </trkpt>
      <trkpt lat="44.14019" lon="6.19132">
        <ele>1506.04</ele>
        <time>2015-01-18T13:19:08Z</time>
      </trkpt>
      <trkpt lat="44.14019" lon="6.19132">
        <ele>1503.16</ele>
        <time>2015-01-18T13:19:09Z</time>
      </trkpt>
      <trkpt lat="44.14019" lon="6.19132">
        <ele>1504.6</ele>
        <time>2015-01-18T13:19:44Z</time>
      </trkpt>
      <trkpt lat="44.14019" lon="6.19132">
        <ele>1504.6</ele>
        <time>2015-01-18T13:20:22Z</time>
      </trkpt>
      <trkpt lat="44.14019" lon="6.19132">
        <ele>1503.64</ele>
        <time>2015-01-18T13:21:05Z</time>
      </trkpt>
      <trkpt lat="44.14019" lon="6.19132">
        <ele>1502.68</ele>
        <time>2015-01-18T13:21:21Z</time>
      </trkpt>
      <trkpt lat="44.14019" lon="6.19132">
        <ele>1506.04</ele>
        <time>2015-01-18T13:21:22Z</time>
      </trkpt>
      <trkpt lat="44.14019" lon="6.19132">
        <ele>1501.72</ele>
        <time>2015-01-18T13:21:23Z</time>
      </trkpt>
      <trkpt lat="44.14019" lon="6.19132">
        <ele>1505.56</ele>
        <time>2015-01-18T13:21:27Z</time>
      </trkpt>
      <trkpt lat="44.14019" lon="6.19132">
        <ele>1502.68</ele>
        <time>2015-01-18T13:21:28Z</time>
      </trkpt>
      <trkpt lat="44.14019" lon="6.19132">
        <ele>1504.12</ele>
        <time>2015-01-18T13:21:59Z</time>
      </trkpt>
      <trkpt lat="44.14019" lon="6.19132">
        <ele>1504.6</ele>
        <time>2015-01-18T13:22:08Z</time>
      </trkpt>
      <trkpt lat="44.14019" lon="6.19132">
        <ele>1505.08</ele>
        <time>2015-01-18T13:22:16Z</time>
      </trkpt>
      <trkpt lat="44.14019" lon="6.19132">
        <ele>1501.72</ele>
        <time>2015-01-18T13:22:18Z</time>
      </trkpt>
      <trkpt lat="44.14019" lon="6.19132">
        <ele>1505.08</ele>
        <time>2015-01-18T13:22:21Z</time>
      </trkpt>
      <trkpt lat="44.14019" lon="6.19132">
        <ele>1501.72</ele>
        <time>2015-01-18T13:22:23Z</time>
      </trkpt>
      <trkpt lat="44.14019" lon="6.19132">
        <ele>1505.08</ele>
        <time>2015-01-18T13:22:28Z</time>
      </trkpt>
      <trkpt lat="44.14019" lon="6.19132">
        <ele>1501.72</ele>
        <time>2015-01-18T13:22:42Z</time>
      </trkpt>
      <trkpt lat="44.14019" lon="6.19132">
        <ele>1502.68</ele>
        <time>2015-01-18T13:22:48Z</time>
      </trkpt>
      <trkpt lat="44.14019" lon="6.19132">
        <ele>1503.64</ele>
        <time>2015-01-18T13:22:50Z</time>
      </trkpt>
      <trkpt lat="44.14019" lon="6.19132">
        <ele>1502.68</ele>
        <time>2015-01-18T13:22:52Z</time>
      </trkpt>
      <trkpt lat="44.14019" lon="6.19132">
        <ele>1502.2</ele>
        <time>2015-01-18T13:22:56Z</time>
      </trkpt>
      <trkpt lat="44.14019" lon="6.19132">
        <ele>1504.12</ele>
        <time>2015-01-18T13:22:58Z</time>
      </trkpt>
      <trkpt lat="44.14019" lon="6.19132">
        <ele>1502.2</ele>
        <time>2015-01-18T13:23:06Z</time>
      </trkpt>
      <trkpt lat="44.14019" lon="6.19132">
        <ele>1505.08</ele>
        <time>2015-01-18T13:23:08Z</time>
      </trkpt>
      <trkpt lat="44.14019" lon="6.19132">
        <ele>1501.24</ele>
        <time>2015-01-18T13:23:11Z</time>
      </trkpt>
      <trkpt lat="44.14019" lon="6.19132">
        <ele>1505.56</ele>
        <time>2015-01-18T13:23:13Z</time>
      </trkpt>
      <trkpt lat="44.14019" lon="6.19132">
        <ele>1504.12</ele>
        <time>2015-01-18T13:23:14Z</time>
      </trkpt>
      <trkpt lat="44.14019" lon="6.19132">
        <ele>1504.6</ele>
        <time>2015-01-18T13:23:32Z</time>
      </trkpt>
      <trkpt lat="44.14019" lon="6.19132">
        <ele>1504.6</ele>
        <time>2015-01-18T13:23:40Z</time>
      </trkpt>
      <trkpt lat="44.14019" lon="6.19132">
        <ele>1501.72</ele>
        <time>2015-01-18T13:23:43Z</time>
      </trkpt>
      <trkpt lat="44.14019" lon="6.19132">
        <ele>1505.08</ele>
        <time>2015-01-18T13:23:45Z</time>
      </trkpt>
      <trkpt lat="44.14019" lon="6.19132">
        <ele>1502.2</ele>
        <time>2015-01-18T13:23:53Z</time>
      </trkpt>
      <trkpt lat="44.14019" lon="6.19132">
        <ele>1504.6</ele>
        <time>2015-01-18T13:23:56Z</time>
      </trkpt>
      <trkpt lat="44.14019" lon="6.19132">
        <ele>1505.08</ele>
        <time>2015-01-18T13:24:02Z</time>
      </trkpt>
      <trkpt lat="44.14019" lon="6.19132">
        <ele>1502.2</ele>
        <time>2015-01-18T13:24:05Z</time>
      </trkpt>
      <trkpt lat="44.14019" lon="6.19132">
        <ele>1503.16</ele>
        <time>2015-01-18T13:24:06Z</time>
      </trkpt>
      <trkpt lat="44.14019" lon="6.19132">
        <ele>1502.68</ele>
        <time>2015-01-18T13:24:29Z</time>
      </trkpt>
      <trkpt lat="44.14019" lon="6.19132">
        <ele>1503.16</ele>
        <time>2015-01-18T13:24:48Z</time>
      </trkpt>
      <trkpt lat="44.14019" lon="6.19132">
        <ele>1502.2</ele>
        <time>2015-01-18T13:25:00Z</time>
      </trkpt>
      <trkpt lat="44.14019" lon="6.19132">
        <ele>1504.12</ele>
        <time>2015-01-18T13:25:05Z</time>
      </trkpt>
      <trkpt lat="44.14019" lon="6.19132">
        <ele>1504.6</ele>
        <time>2015-01-18T13:25:14Z</time>
      </trkpt>
      <trkpt lat="44.14019" lon="6.19133">
        <ele>1504.6</ele>
        <time>2015-01-18T13:25:23Z</time>
      </trkpt>
      <trkpt lat="44.14019" lon="6.19133">
        <ele>1502.2</ele>
        <time>2015-01-18T13:25:26Z</time>
      </trkpt>
      <trkpt lat="44.14019" lon="6.19133">
        <ele>1504.12</ele>
        <time>2015-01-18T13:25:30Z</time>
      </trkpt>
      <trkpt lat="44.14019" lon="6.19133">
        <ele>1502.68</ele>
        <time>2015-01-18T13:25:36Z</time>
      </trkpt>
      <trkpt lat="44.14019" lon="6.19133">
        <ele>1502.2</ele>
        <time>2015-01-18T13:25:42Z</time>
      </trkpt>
      <trkpt lat="44.14019" lon="6.19133">
        <ele>1504.12</ele>
        <time>2015-01-18T13:25:47Z</time>
      </trkpt>
      <trkpt lat="44.14019" lon="6.19133">
        <ele>1502.2</ele>
        <time>2015-01-18T13:25:50Z</time>
      </trkpt>
      <trkpt lat="44.14019" lon="6.19133">
        <ele>1501.72</ele>
        <time>2015-01-18T13:26:17Z</time>
      </trkpt>
      <trkpt lat="44.14019" lon="6.19133">
        <ele>1502.2</ele>
        <time>2015-01-18T13:26:36Z</time>
      </trkpt>
      <trkpt lat="44.14019" lon="6.19133">
        <ele>1504.12</ele>
        <time>2015-01-18T13:26:38Z</time>
      </trkpt>
      <trkpt lat="44.14019" lon="6.19133">
        <ele>1502.2</ele>
        <time>2015-01-18T13:26:41Z</time>
      </trkpt>
      <trkpt lat="44.14019" lon="6.19133">
        <ele>1504.12</ele>
        <time>2015-01-18T13:27:00Z</time>
      </trkpt>
      <trkpt lat="44.14019" lon="6.19133">
        <ele>1502.68</ele>
        <time>2015-01-18T13:27:03Z</time>
      </trkpt>
      <trkpt lat="44.14019" lon="6.19133">
        <ele>1502.68</ele>
        <time>2015-01-18T13:27:16Z</time>
      </trkpt>
      <trkpt lat="44.14019" lon="6.19133">
        <ele>1503.64</ele>
        <time>2015-01-18T13:27:27Z</time>
      </trkpt>
      <trkpt lat="44.14019" lon="6.19133">
        <ele>1503.64</ele>
        <time>2015-01-18T13:27:35Z</time>
      </trkpt>
      <trkpt lat="44.14019" lon="6.19133">
        <ele>1502.2</ele>
        <time>2015-01-18T13:27:48Z</time>
      </trkpt>
      <trkpt lat="44.14018" lon="6.19133">
        <ele>1502.2</ele>
        <time>2015-01-18T13:28:00Z</time>
      </trkpt>
      <trkpt lat="44.14018" lon="6.19133">
        <ele>1502.2</ele>
        <time>2015-01-18T13:28:04Z</time>
      </trkpt>
      <trkpt lat="44.14018" lon="6.19133">
        <ele>1502.2</ele>
        <time>2015-01-18T13:28:12Z</time>
      </trkpt>
      <trkpt lat="44.14018" lon="6.19133">
        <ele>1502.2</ele>
        <time>2015-01-18T13:28:16Z</time>
      </trkpt>
      <trkpt lat="44.14018" lon="6.19133">
        <ele>1503.64</ele>
        <time>2015-01-18T13:28:18Z</time>
      </trkpt>
      <trkpt lat="44.14019" lon="6.19133">
        <ele>1503.64</ele>
        <time>2015-01-18T13:29:05Z</time>
      </trkpt>
      <trkpt lat="44.14019" lon="6.19132">
        <ele>1503.16</ele>
        <time>2015-01-18T13:29:54Z</time>
      </trkpt>
      <trkpt lat="44.14019" lon="6.19133">
        <ele>1503.64</ele>
        <time>2015-01-18T13:30:37Z</time>
      </trkpt>
      <trkpt lat="44.14019" lon="6.19133">
        <ele>1504.12</ele>
        <time>2015-01-18T13:31:22Z</time>
      </trkpt>
      <trkpt lat="44.14019" lon="6.19133">
        <ele>1502.68</ele>
        <time>2015-01-18T13:32:01Z</time>
      </trkpt>
      <trkpt lat="44.14019" lon="6.19133">
        <ele>1503.64</ele>
        <time>2015-01-18T13:32:48Z</time>
      </trkpt>
      <trkpt lat="44.14019" lon="6.19133">
        <ele>1503.16</ele>
        <time>2015-01-18T13:33:31Z</time>
      </trkpt>
      <trkpt lat="44.14019" lon="6.19133">
        <ele>1503.64</ele>
        <time>2015-01-18T13:34:19Z</time>
      </trkpt>
      <trkpt lat="44.14019" lon="6.19133">
        <ele>1503.64</ele>
        <time>2015-01-18T13:35:06Z</time>
      </trkpt>
      <trkpt lat="44.14019" lon="6.19133">
        <ele>1503.16</ele>
        <time>2015-01-18T13:35:50Z</time>
      </trkpt>
      <trkpt lat="44.1402" lon="6.19132">
        <ele>1502.68</ele>
        <time>2015-01-18T13:36:38Z</time>
      </trkpt>
      <trkpt lat="44.14019" lon="6.19132">
        <ele>1502.68</ele>
        <time>2015-01-18T13:37:25Z</time>
      </trkpt>
      <trkpt lat="44.14019" lon="6.19133">
        <ele>1503.16</ele>
        <time>2015-01-18T13:38:11Z</time>
      </trkpt>
      <trkpt lat="44.1402" lon="6.19133">
        <ele>1502.68</ele>
        <time>2015-01-18T13:38:57Z</time>
      </trkpt>
      <trkpt lat="44.1402" lon="6.19133">
        <ele>1502.68</ele>
        <time>2015-01-18T13:39:39Z</time>
      </trkpt>
      <trkpt lat="44.1402" lon="6.19133">
        <ele>1503.16</ele>
        <time>2015-01-18T13:40:25Z</time>
      </trkpt>
      <trkpt lat="44.1402" lon="6.19133">
        <ele>1502.68</ele>
        <time>2015-01-18T13:41:06Z</time>
      </trkpt>
      <trkpt lat="44.1402" lon="6.19133">
        <ele>1503.16</ele>
        <time>2015-01-18T13:41:53Z</time>
      </trkpt>
      <trkpt lat="44.1402" lon="6.19132">
        <ele>1503.16</ele>
        <time>2015-01-18T13:42:38Z</time>
      </trkpt>
      <trkpt lat="44.14021" lon="6.19132">
        <ele>1502.68</ele>
        <time>2015-01-18T13:43:20Z</time>
      </trkpt>
      <trkpt lat="44.14021" lon="6.19132">
        <ele>1502.2</ele>
        <time>2015-01-18T13:43:58Z</time>
      </trkpt>
      <trkpt lat="44.1402" lon="6.19132">
        <ele>1502.2</ele>
        <time>2015-01-18T13:44:39Z</time>
      </trkpt>
      <trkpt lat="44.1402" lon="6.19132">
        <ele>1503.16</ele>
        <time>2015-01-18T13:45:20Z</time>
      </trkpt>
      <trkpt lat="44.1402" lon="6.19132">
        <ele>1502.68</ele>
        <time>2015-01-18T13:45:56Z</time>
      </trkpt>
      <trkpt lat="44.1402" lon="6.19133">
        <ele>1502.68</ele>
        <time>2015-01-18T13:46:43Z</time>
      </trkpt>
      <trkpt lat="44.1402" lon="6.19133">
        <ele>1502.2</ele>
        <time>2015-01-18T13:47:19Z</time>
      </trkpt>
      <trkpt lat="44.1402" lon="6.19133">
        <ele>1502.68</ele>
        <time>2015-01-18T13:47:57Z</time>
      </trkpt>
      <trkpt lat="44.14021" lon="6.19133">
        <ele>1502.2</ele>
        <time>2015-01-18T13:48:37Z</time>
      </trkpt>
      <trkpt lat="44.14021" lon="6.19133">
        <ele>1502.68</ele>
        <time>2015-01-18T13:49:21Z</time>
      </trkpt>
      <trkpt lat="44.14021" lon="6.19132">
        <ele>1502.2</ele>
        <time>2015-01-18T13:50:07Z</time>
      </trkpt>
      <trkpt lat="44.14021" lon="6.19132">
        <ele>1501.72</ele>
        <time>2015-01-18T13:50:48Z</time>
      </trkpt>
      <trkpt lat="44.14021" lon="6.19132">
        <ele>1502.2</ele>
        <time>2015-01-18T13:51:33Z</time>
      </trkpt>
      <trkpt lat="44.1402" lon="6.19132">
        <ele>1502.2</ele>
        <time>2015-01-18T13:52:19Z</time>
      </trkpt>
      <trkpt lat="44.1402" lon="6.19133">
        <ele>1502.2</ele>
        <time>2015-01-18T13:53:09Z</time>
      </trkpt>
      <trkpt lat="44.14021" lon="6.19133">
        <ele>1501.24</ele>
        <time>2015-01-18T13:53:54Z</time>
      </trkpt>
      <trkpt lat="44.14021" lon="6.19133">
        <ele>1502.68</ele>
        <time>2015-01-18T13:54:46Z</time>
      </trkpt>
      <trkpt lat="44.14021" lon="6.19133">
        <ele>1502.68</ele>
        <time>2015-01-18T13:55:33Z</time>
      </trkpt>
      <trkpt lat="44.14021" lon="6.19133">
        <ele>1502.68</ele>
        <time>2015-01-18T13:56:16Z</time>
      </trkpt>
      <trkpt lat="44.14021" lon="6.19133">
        <ele>1502.2</ele>
        <time>2015-01-18T13:56:52Z</time>
      </trkpt>
      <trkpt lat="44.14019" lon="6.19134">
        <ele>1502.2</ele>
        <time>2015-01-18T13:57:23Z</time>
      </trkpt>
      <trkpt lat="44.14019" lon="6.19134">
        <ele>1503.64</ele>
        <time>2015-01-18T13:57:38Z</time>
      </trkpt>
      <trkpt lat="44.14019" lon="6.19134">
        <ele>1497.87</ele>
        <time>2015-01-18T13:57:49Z</time>
      </trkpt>
      <trkpt lat="44.14019" lon="6.19134">
        <ele>1506.52</ele>
        <time>2015-01-18T13:57:50Z</time>
      </trkpt>
      <trkpt lat="44.14019" lon="6.19134">
        <ele>1503.16</ele>
        <time>2015-01-18T13:57:51Z</time>
      </trkpt>
      <trkpt lat="44.14019" lon="6.19134">
        <ele>1508.45</ele>
        <time>2015-01-18T13:57:54Z</time>
      </trkpt>
      <trkpt lat="44.14019" lon="6.19134">
        <ele>1503.64</ele>
        <time>2015-01-18T13:57:55Z</time>
      </trkpt>
      <trkpt lat="44.14019" lon="6.19134">
        <ele>1502.68</ele>
        <time>2015-01-18T13:57:57Z</time>
      </trkpt>
      <trkpt lat="44.14019" lon="6.19134">
        <ele>1506.52</ele>
        <time>2015-01-18T13:58:19Z</time>
      </trkpt>
      <trkpt lat="44.14019" lon="6.19134">
        <ele>1503.16</ele>
        <time>2015-01-18T13:58:21Z</time>
      </trkpt>
      <trkpt lat="44.14019" lon="6.19134">
        <ele>1499.31</ele>
        <time>2015-01-18T13:58:24Z</time>
      </trkpt>
      <trkpt lat="44.14019" lon="6.19134">
        <ele>1504.12</ele>
        <time>2015-01-18T13:58:25Z</time>
      </trkpt>
      <trkpt lat="44.14019" lon="6.19134">
        <ele>1497.87</ele>
        <time>2015-01-18T13:58:36Z</time>
      </trkpt>
      <trkpt lat="44.14019" lon="6.19134">
        <ele>1504.12</ele>
        <time>2015-01-18T13:58:37Z</time>
      </trkpt>
      <trkpt lat="44.14019" lon="6.19134">
        <ele>1504.6</ele>
        <time>2015-01-18T13:58:55Z</time>
      </trkpt>
      <trkpt lat="44.14019" lon="6.19134">
        <ele>1500.76</ele>
        <time>2015-01-18T13:59:09Z</time>
      </trkpt>
      <trkpt lat="44.14019" lon="6.19134">
        <ele>1505.08</ele>
        <time>2015-01-18T13:59:10Z</time>
      </trkpt>
      <trkpt lat="44.14019" lon="6.19134">
        <ele>1502.2</ele>
        <time>2015-01-18T13:59:11Z</time>
      </trkpt>
      <trkpt lat="44.14019" lon="6.19134">
        <ele>1494.99</ele>
        <time>2015-01-18T13:59:13Z</time>
      </trkpt>
      <trkpt lat="44.14019" lon="6.19134">
        <ele>1506.04</ele>
        <time>2015-01-18T13:59:14Z</time>
      </trkpt>
      <trkpt lat="44.14019" lon="6.19134">
        <ele>1501.72</ele>
        <time>2015-01-18T13:59:15Z</time>
      </trkpt>
      <trkpt lat="44.14019" lon="6.19134">
        <ele>1505.08</ele>
        <time>2015-01-18T13:59:18Z</time>
      </trkpt>
      <trkpt lat="44.14019" lon="6.19134">
        <ele>1504.6</ele>
        <time>2015-01-18T13:59:19Z</time>
      </trkpt>
      <trkpt lat="44.14019" lon="6.19134">
        <ele>1501.72</ele>
        <time>2015-01-18T13:59:24Z</time>
      </trkpt>
      <trkpt lat="44.14019" lon="6.19134">
        <ele>1506.52</ele>
        <time>2015-01-18T13:59:25Z</time>
      </trkpt>
      <trkpt lat="44.14019" lon="6.19134">
        <ele>1501.72</ele>
        <time>2015-01-18T13:59:28Z</time>
      </trkpt>
      <trkpt lat="44.14019" lon="6.19134">
        <ele>1505.56</ele>
        <time>2015-01-18T13:59:30Z</time>
      </trkpt>
      <trkpt lat="44.14019" lon="6.19134">
        <ele>1502.2</ele>
        <time>2015-01-18T13:59:31Z</time>
      </trkpt>
      <trkpt lat="44.14019" lon="6.19134">
        <ele>1505.56</ele>
        <time>2015-01-18T13:59:33Z</time>
      </trkpt>
      <trkpt lat="44.14019" lon="6.19133">
        <ele>1501.72</ele>
        <time>2015-01-18T13:59:34Z</time>
      </trkpt>
      <trkpt lat="44.14019" lon="6.19133">
        <ele>1505.56</ele>
        <time>2015-01-18T13:59:35Z</time>
      </trkpt>
      <trkpt lat="44.14019" lon="6.19133">
        <ele>1501.72</ele>
        <time>2015-01-18T13:59:37Z</time>
      </trkpt>
      <trkpt lat="44.14019" lon="6.19133">
        <ele>1503.16</ele>
        <time>2015-01-18T13:59:38Z</time>
      </trkpt>
      <trkpt lat="44.14019" lon="6.19133">
        <ele>1506.52</ele>
        <time>2015-01-18T13:59:39Z</time>
      </trkpt>
      <trkpt lat="44.14019" lon="6.19133">
        <ele>1506.04</ele>
        <time>2015-01-18T13:59:40Z</time>
      </trkpt>
      <trkpt lat="44.14019" lon="6.19133">
        <ele>1501.24</ele>
        <time>2015-01-18T13:59:43Z</time>
      </trkpt>
      <trkpt lat="44.14019" lon="6.19134">
        <ele>1502.2</ele>
        <time>2015-01-18T13:59:44Z</time>
      </trkpt>
      <trkpt lat="44.14019" lon="6.19134">
        <ele>1506.04</ele>
        <time>2015-01-18T13:59:46Z</time>
      </trkpt>
      <trkpt lat="44.14019" lon="6.19134">
        <ele>1505.56</ele>
        <time>2015-01-18T13:59:47Z</time>
      </trkpt>
      <trkpt lat="44.14019" lon="6.19132">
        <ele>1502.2</ele>
        <time>2015-01-18T13:59:49Z</time>
      </trkpt>
      <trkpt lat="44.14016" lon="6.19127">
        <ele>1504.12</ele>
        <time>2015-01-18T14:00:02Z</time>
      </trkpt>
      <trkpt lat="44.14016" lon="6.19127">
        <ele>1502.68</ele>
        <time>2015-01-18T14:00:16Z</time>
      </trkpt>
      <trkpt lat="44.14016" lon="6.19127">
        <ele>1505.56</ele>
        <time>2015-01-18T14:00:17Z</time>
      </trkpt>
      <trkpt lat="44.14016" lon="6.19127">
        <ele>1505.56</ele>
        <time>2015-01-18T14:00:18Z</time>
      </trkpt>
      <trkpt lat="44.14015" lon="6.19127">
        <ele>1503.64</ele>
        <time>2015-01-18T14:00:20Z</time>
      </trkpt>
      <trkpt lat="44.14015" lon="6.19126">
        <ele>1502.2</ele>
        <time>2015-01-18T14:00:22Z</time>
      </trkpt>
      <trkpt lat="44.14013" lon="6.19125">
        <ele>1505.56</ele>
        <time>2015-01-18T14:00:26Z</time>
      </trkpt>
      <trkpt lat="44.14012" lon="6.19125">
        <ele>1503.16</ele>
        <time>2015-01-18T14:00:29Z</time>
      </trkpt>
      <trkpt lat="44.14008" lon="6.19124">
        <ele>1503.16</ele>
        <time>2015-01-18T14:00:40Z</time>
      </trkpt>
      <trkpt lat="44.14008" lon="6.19123">
        <ele>1500.27</ele>
        <time>2015-01-18T14:00:41Z</time>
      </trkpt>
      <trkpt lat="44.14007" lon="6.19123">
        <ele>1501.72</ele>
        <time>2015-01-18T14:00:42Z</time>
      </trkpt>
      <trkpt lat="44.14003" lon="6.19124">
        <ele>1500.76</ele>
        <time>2015-01-18T14:00:56Z</time>
      </trkpt>
      <trkpt lat="44.13999" lon="6.19122">
        <ele>1497.39</ele>
        <time>2015-01-18T14:01:10Z</time>
      </trkpt>
      <trkpt lat="44.13998" lon="6.19122">
        <ele>1500.76</ele>
        <time>2015-01-18T14:01:11Z</time>
      </trkpt>
      <trkpt lat="44.13998" lon="6.19122">
        <ele>1497.39</ele>
        <time>2015-01-18T14:01:12Z</time>
      </trkpt>
      <trkpt lat="44.13991" lon="6.19126">
        <ele>1498.83</ele>
        <time>2015-01-18T14:01:25Z</time>
      </trkpt>
      <trkpt lat="44.13988" lon="6.19126">
        <ele>1494.03</ele>
        <time>2015-01-18T14:01:29Z</time>
      </trkpt>
      <trkpt lat="44.13987" lon="6.19125">
        <ele>1497.39</ele>
        <time>2015-01-18T14:01:30Z</time>
      </trkpt>
      <trkpt lat="44.13987" lon="6.19124">
        <ele>1494.51</ele>
        <time>2015-01-18T14:01:36Z</time>
      </trkpt>
      <trkpt lat="44.13987" lon="6.19124">
        <ele>1497.87</ele>
        <time>2015-01-18T14:01:37Z</time>
      </trkpt>
      <trkpt lat="44.13987" lon="6.19124">
        <ele>1494.03</ele>
        <time>2015-01-18T14:01:38Z</time>
      </trkpt>
      <trkpt lat="44.13987" lon="6.19124">
        <ele>1497.39</ele>
        <time>2015-01-18T14:01:39Z</time>
      </trkpt>
      <trkpt lat="44.13987" lon="6.19124">
        <ele>1494.03</ele>
        <time>2015-01-18T14:01:40Z</time>
      </trkpt>
      <trkpt lat="44.13987" lon="6.19124">
        <ele>1497.87</ele>
        <time>2015-01-18T14:01:41Z</time>
      </trkpt>
      <trkpt lat="44.13987" lon="6.19124">
        <ele>1494.51</ele>
        <time>2015-01-18T14:01:42Z</time>
      </trkpt>
      <trkpt lat="44.13981" lon="6.19124">
        <ele>1493.06</ele>
        <time>2015-01-18T14:01:53Z</time>
      </trkpt>
      <trkpt lat="44.13979" lon="6.19123">
        <ele>1494.51</ele>
        <time>2015-01-18T14:01:55Z</time>
      </trkpt>
      <trkpt lat="44.13977" lon="6.19123">
        <ele>1494.03</ele>
        <time>2015-01-18T14:01:57Z</time>
      </trkpt>
      <trkpt lat="44.13966" lon="6.19122">
        <ele>1494.03</ele>
        <time>2015-01-18T14:02:12Z</time>
      </trkpt>
      <trkpt lat="44.13965" lon="6.19123">
        <ele>1489.22</ele>
        <time>2015-01-18T14:02:14Z</time>
      </trkpt>
      <trkpt lat="44.13965" lon="6.19124">
        <ele>1493.06</ele>
        <time>2015-01-18T14:02:15Z</time>
      </trkpt>
      <trkpt lat="44.13964" lon="6.19124">
        <ele>1492.58</ele>
        <time>2015-01-18T14:02:16Z</time>
      </trkpt>
      <trkpt lat="44.13963" lon="6.19125">
        <ele>1489.22</ele>
        <time>2015-01-18T14:02:17Z</time>
      </trkpt>
      <trkpt lat="44.1396" lon="6.19125">
        <ele>1489.7</ele>
        <time>2015-01-18T14:02:21Z</time>
      </trkpt>
      <trkpt lat="44.13951" lon="6.19123">
        <ele>1486.34</ele>
        <time>2015-01-18T14:02:33Z</time>
      </trkpt>
      <trkpt lat="44.1395" lon="6.19122">
        <ele>1487.3</ele>
        <time>2015-01-18T14:02:34Z</time>
      </trkpt>
      <trkpt lat="44.13948" lon="6.1912">
        <ele>1484.89</ele>
        <time>2015-01-18T14:02:37Z</time>
      </trkpt>
      <trkpt lat="44.13947" lon="6.19121">
        <ele>1488.74</ele>
        <time>2015-01-18T14:02:39Z</time>
      </trkpt>
      <trkpt lat="44.13945" lon="6.1912">
        <ele>1484.41</ele>
        <time>2015-01-18T14:02:41Z</time>
      </trkpt>
      <trkpt lat="44.13941" lon="6.19116">
        <ele>1483.93</ele>
        <time>2015-01-18T14:02:47Z</time>
      </trkpt>
      <trkpt lat="44.13939" lon="6.19113">
        <ele>1482.49</ele>
        <time>2015-01-18T14:02:56Z</time>
      </trkpt>
      <trkpt lat="44.13939" lon="6.19113">
        <ele>1482.49</ele>
        <time>2015-01-18T14:03:00Z</time>
      </trkpt>
      <trkpt lat="44.13938" lon="6.19114">
        <ele>1483.93</ele>
        <time>2015-01-18T14:03:02Z</time>
      </trkpt>
      <trkpt lat="44.13935" lon="6.19114">
        <ele>1481.05</ele>
        <time>2015-01-18T14:03:13Z</time>
      </trkpt>
      <trkpt lat="44.13934" lon="6.19111">
        <ele>1483.45</ele>
        <time>2015-01-18T14:03:15Z</time>
      </trkpt>
      <trkpt lat="44.13933" lon="6.19108">
        <ele>1480.09</ele>
        <time>2015-01-18T14:03:17Z</time>
      </trkpt>
      <trkpt lat="44.13932" lon="6.19107">
        <ele>1483.45</ele>
        <time>2015-01-18T14:03:21Z</time>
      </trkpt>
      <trkpt lat="44.1393" lon="6.19109">
        <ele>1478.65</ele>
        <time>2015-01-18T14:03:26Z</time>
      </trkpt>
      <trkpt lat="44.13929" lon="6.1911">
        <ele>1480.57</ele>
        <time>2015-01-18T14:03:27Z</time>
      </trkpt>
      <trkpt lat="44.13927" lon="6.19114">
        <ele>1477.68</ele>
        <time>2015-01-18T14:03:33Z</time>
      </trkpt>
      <trkpt lat="44.13924" lon="6.19116">
        <ele>1475.76</ele>
        <time>2015-01-18T14:03:38Z</time>
      </trkpt>
      <trkpt lat="44.13923" lon="6.19117">
        <ele>1477.2</ele>
        <time>2015-01-18T14:03:40Z</time>
      </trkpt>
      <trkpt lat="44.13922" lon="6.19119">
        <ele>1474.32</ele>
        <time>2015-01-18T14:03:44Z</time>
      </trkpt>
      <trkpt lat="44.1392" lon="6.1912">
        <ele>1476.24</ele>
        <time>2015-01-18T14:03:47Z</time>
      </trkpt>
      <trkpt lat="44.13919" lon="6.19122">
        <ele>1475.28</ele>
        <time>2015-01-18T14:03:49Z</time>
      </trkpt>
      <trkpt lat="44.13917" lon="6.19125">
        <ele>1471.92</ele>
        <time>2015-01-18T14:03:55Z</time>
      </trkpt>
      <trkpt lat="44.13916" lon="6.19125">
        <ele>1472.4</ele>
        <time>2015-01-18T14:03:56Z</time>
      </trkpt>
      <trkpt lat="44.13916" lon="6.19126">
        <ele>1473.36</ele>
        <time>2015-01-18T14:03:58Z</time>
      </trkpt>
      <trkpt lat="44.13912" lon="6.19131">
        <ele>1469.99</ele>
        <time>2015-01-18T14:04:07Z</time>
      </trkpt>
      <trkpt lat="44.1391" lon="6.19134">
        <ele>1469.51</ele>
        <time>2015-01-18T14:04:11Z</time>
      </trkpt>
      <trkpt lat="44.13907" lon="6.19133">
        <ele>1470.47</ele>
        <time>2015-01-18T14:04:16Z</time>
      </trkpt>
      <trkpt lat="44.13907" lon="6.19131">
        <ele>1467.11</ele>
        <time>2015-01-18T14:04:18Z</time>
      </trkpt>
      <trkpt lat="44.139" lon="6.19132">
        <ele>1466.15</ele>
        <time>2015-01-18T14:04:32Z</time>
      </trkpt>
      <trkpt lat="44.13897" lon="6.19131">
        <ele>1462.78</ele>
        <time>2015-01-18T14:04:39Z</time>
      </trkpt>
      <trkpt lat="44.13889" lon="6.19132">
        <ele>1461.82</ele>
        <time>2015-01-18T14:04:55Z</time>
      </trkpt>
      <trkpt lat="44.13885" lon="6.19132">
        <ele>1458.94</ele>
        <time>2015-01-18T14:05:01Z</time>
      </trkpt>
      <trkpt lat="44.13885" lon="6.19132">
        <ele>1458.94</ele>
        <time>2015-01-18T14:05:02Z</time>
      </trkpt>
      <trkpt lat="44.13881" lon="6.19133">
        <ele>1456.53</ele>
        <time>2015-01-18T14:05:15Z</time>
      </trkpt>
      <trkpt lat="44.13879" lon="6.19134">
        <ele>1457.98</ele>
        <time>2015-01-18T14:05:17Z</time>
      </trkpt>
      <trkpt lat="44.13877" lon="6.19133">
        <ele>1456.05</ele>
        <time>2015-01-18T14:05:19Z</time>
      </trkpt>
      <trkpt lat="44.13873" lon="6.19133">
        <ele>1455.09</ele>
        <time>2015-01-18T14:05:24Z</time>
      </trkpt>
      <trkpt lat="44.13864" lon="6.19136">
        <ele>1452.69</ele>
        <time>2015-01-18T14:05:36Z</time>
      </trkpt>
      <trkpt lat="44.13859" lon="6.19138">
        <ele>1453.17</ele>
        <time>2015-01-18T14:05:42Z</time>
      </trkpt>
      <trkpt lat="44.13857" lon="6.19139">
        <ele>1451.73</ele>
        <time>2015-01-18T14:05:44Z</time>
      </trkpt>
      <trkpt lat="44.13854" lon="6.19141">
        <ele>1450.29</ele>
        <time>2015-01-18T14:05:49Z</time>
      </trkpt>
      <trkpt lat="44.13852" lon="6.19141">
        <ele>1451.73</ele>
        <time>2015-01-18T14:05:51Z</time>
      </trkpt>
      <trkpt lat="44.13849" lon="6.19142">
        <ele>1449.81</ele>
        <time>2015-01-18T14:05:55Z</time>
      </trkpt>
      <trkpt lat="44.13843" lon="6.19142">
        <ele>1450.77</ele>
        <time>2015-01-18T14:06:02Z</time>
      </trkpt>
      <trkpt lat="44.13841" lon="6.19142">
        <ele>1448.36</ele>
        <time>2015-01-18T14:06:05Z</time>
      </trkpt>
      <trkpt lat="44.13839" lon="6.19141">
        <ele>1449.81</ele>
        <time>2015-01-18T14:06:07Z</time>
      </trkpt>
      <trkpt lat="44.13834" lon="6.19141">
        <ele>1446.44</ele>
        <time>2015-01-18T14:06:14Z</time>
      </trkpt>
      <trkpt lat="44.13834" lon="6.19141">
        <ele>1446.44</ele>
        <time>2015-01-18T14:06:15Z</time>
      </trkpt>
      <trkpt lat="44.13832" lon="6.19141">
        <ele>1447.88</ele>
        <time>2015-01-18T14:06:17Z</time>
      </trkpt>
      <trkpt lat="44.13825" lon="6.19142">
        <ele>1445</ele>
        <time>2015-01-18T14:06:27Z</time>
      </trkpt>
      <trkpt lat="44.13813" lon="6.19145">
        <ele>1444.04</ele>
        <time>2015-01-18T14:06:43Z</time>
      </trkpt>
      <trkpt lat="44.1381" lon="6.19144">
        <ele>1444.52</ele>
        <time>2015-01-18T14:06:45Z</time>
      </trkpt>
      <trkpt lat="44.13808" lon="6.19143">
        <ele>1443.08</ele>
        <time>2015-01-18T14:06:48Z</time>
      </trkpt>
      <trkpt lat="44.13807" lon="6.19142">
        <ele>1444.52</ele>
        <time>2015-01-18T14:06:50Z</time>
      </trkpt>
      <trkpt lat="44.13806" lon="6.19141">
        <ele>1443.56</ele>
        <time>2015-01-18T14:06:51Z</time>
      </trkpt>
      <trkpt lat="44.13804" lon="6.19141">
        <ele>1442.6</ele>
        <time>2015-01-18T14:06:53Z</time>
      </trkpt>
      <trkpt lat="44.13799" lon="6.19143">
        <ele>1442.6</ele>
        <time>2015-01-18T14:06:58Z</time>
      </trkpt>
      <trkpt lat="44.13798" lon="6.19144">
        <ele>1443.56</ele>
        <time>2015-01-18T14:07:00Z</time>
      </trkpt>
      <trkpt lat="44.13797" lon="6.19147">
        <ele>1441.63</ele>
        <time>2015-01-18T14:07:03Z</time>
      </trkpt>
      <trkpt lat="44.13793" lon="6.19151">
        <ele>1442.6</ele>
        <time>2015-01-18T14:07:10Z</time>
      </trkpt>
      <trkpt lat="44.13792" lon="6.19153">
        <ele>1441.15</ele>
        <time>2015-01-18T14:07:12Z</time>
      </trkpt>
      <trkpt lat="44.13789" lon="6.19154">
        <ele>1442.11</ele>
        <time>2015-01-18T14:07:18Z</time>
      </trkpt>
      <trkpt lat="44.13788" lon="6.19155">
        <ele>1441.63</ele>
        <time>2015-01-18T14:07:20Z</time>
      </trkpt>
      <trkpt lat="44.13779" lon="6.19162">
        <ele>1439.71</ele>
        <time>2015-01-18T14:07:31Z</time>
      </trkpt>
      <trkpt lat="44.1377" lon="6.19167">
        <ele>1440.19</ele>
        <time>2015-01-18T14:07:42Z</time>
      </trkpt>
      <trkpt lat="44.13768" lon="6.1917">
        <ele>1437.79</ele>
        <time>2015-01-18T14:07:48Z</time>
      </trkpt>
      <trkpt lat="44.13767" lon="6.19171">
        <ele>1438.75</ele>
        <time>2015-01-18T14:07:50Z</time>
      </trkpt>
      <trkpt lat="44.13765" lon="6.19173">
        <ele>1436.83</ele>
        <time>2015-01-18T14:07:53Z</time>
      </trkpt>
      <trkpt lat="44.13757" lon="6.19176">
        <ele>1435.87</ele>
        <time>2015-01-18T14:08:06Z</time>
      </trkpt>
      <trkpt lat="44.13754" lon="6.19177">
        <ele>1433.46</ele>
        <time>2015-01-18T14:08:12Z</time>
      </trkpt>
      <trkpt lat="44.13754" lon="6.19178">
        <ele>1432.98</ele>
        <time>2015-01-18T14:08:16Z</time>
      </trkpt>
      <trkpt lat="44.13747" lon="6.19181">
        <ele>1430.1</ele>
        <time>2015-01-18T14:08:28Z</time>
      </trkpt>
      <trkpt lat="44.13744" lon="6.19186">
        <ele>1428.66</ele>
        <time>2015-01-18T14:08:36Z</time>
      </trkpt>
      <trkpt lat="44.13734" lon="6.19196">
        <ele>1426.25</ele>
        <time>2015-01-18T14:08:52Z</time>
      </trkpt>
      <trkpt lat="44.13726" lon="6.19207">
        <ele>1423.37</ele>
        <time>2015-01-18T14:09:08Z</time>
      </trkpt>
      <trkpt lat="44.13722" lon="6.19212">
        <ele>1422.89</ele>
        <time>2015-01-18T14:09:16Z</time>
      </trkpt>
      <trkpt lat="44.13722" lon="6.19213">
        <ele>1423.85</ele>
        <time>2015-01-18T14:09:17Z</time>
      </trkpt>
      <trkpt lat="44.13717" lon="6.1922">
        <ele>1422.41</ele>
        <time>2015-01-18T14:09:33Z</time>
      </trkpt>
      <trkpt lat="44.13717" lon="6.1922">
        <ele>1421.45</ele>
        <time>2015-01-18T14:09:35Z</time>
      </trkpt>
      <trkpt lat="44.13714" lon="6.19224">
        <ele>1421.45</ele>
        <time>2015-01-18T14:09:53Z</time>
      </trkpt>
      <trkpt lat="44.13712" lon="6.19228">
        <ele>1420.97</ele>
        <time>2015-01-18T14:09:57Z</time>
      </trkpt>
      <trkpt lat="44.13707" lon="6.19232">
        <ele>1420</ele>
        <time>2015-01-18T14:10:03Z</time>
      </trkpt>
      <trkpt lat="44.13707" lon="6.19232">
        <ele>1420.97</ele>
        <time>2015-01-18T14:10:10Z</time>
      </trkpt>
      <trkpt lat="44.13701" lon="6.19238">
        <ele>1420.97</ele>
        <time>2015-01-18T14:10:22Z</time>
      </trkpt>
      <trkpt lat="44.13694" lon="6.1924">
        <ele>1420.49</ele>
        <time>2015-01-18T14:10:30Z</time>
      </trkpt>
      <trkpt lat="44.13684" lon="6.19244">
        <ele>1419.04</ele>
        <time>2015-01-18T14:10:43Z</time>
      </trkpt>
      <trkpt lat="44.13673" lon="6.19243">
        <ele>1418.08</ele>
        <time>2015-01-18T14:10:59Z</time>
      </trkpt>
      <trkpt lat="44.13667" lon="6.19242">
        <ele>1414.72</ele>
        <time>2015-01-18T14:11:09Z</time>
      </trkpt>
      <trkpt lat="44.13664" lon="6.19243">
        <ele>1414.24</ele>
        <time>2015-01-18T14:11:16Z</time>
      </trkpt>
      <trkpt lat="44.13653" lon="6.19248">
        <ele>1412.31</ele>
        <time>2015-01-18T14:11:33Z</time>
      </trkpt>
      <trkpt lat="44.13645" lon="6.19249">
        <ele>1409.91</ele>
        <time>2015-01-18T14:11:46Z</time>
      </trkpt>
      <trkpt lat="44.13638" lon="6.19251">
        <ele>1406.55</ele>
        <time>2015-01-18T14:12:00Z</time>
      </trkpt>
      <trkpt lat="44.13634" lon="6.19251">
        <ele>1405.58</ele>
        <time>2015-01-18T14:12:07Z</time>
      </trkpt>
      <trkpt lat="44.13632" lon="6.19252">
        <ele>1405.1</ele>
        <time>2015-01-18T14:12:09Z</time>
      </trkpt>
      <trkpt lat="44.13623" lon="6.19263">
        <ele>1402.7</ele>
        <time>2015-01-18T14:12:22Z</time>
      </trkpt>
      <trkpt lat="44.13615" lon="6.19274">
        <ele>1401.26</ele>
        <time>2015-01-18T14:12:36Z</time>
      </trkpt>
      <trkpt lat="44.13611" lon="6.1928">
        <ele>1399.82</ele>
        <time>2015-01-18T14:12:47Z</time>
      </trkpt>
      <trkpt lat="44.13607" lon="6.19283">
        <ele>1398.86</ele>
        <time>2015-01-18T14:12:54Z</time>
      </trkpt>
      <trkpt lat="44.13598" lon="6.19286">
        <ele>1396.45</ele>
        <time>2015-01-18T14:13:08Z</time>
      </trkpt>
      <trkpt lat="44.13594" lon="6.19289">
        <ele>1395.49</ele>
        <time>2015-01-18T14:13:13Z</time>
      </trkpt>
      <trkpt lat="44.13589" lon="6.19298">
        <ele>1394.53</ele>
        <time>2015-01-18T14:13:22Z</time>
      </trkpt>
      <trkpt lat="44.13579" lon="6.19308">
        <ele>1393.09</ele>
        <time>2015-01-18T14:13:36Z</time>
      </trkpt>
      <trkpt lat="44.13565" lon="6.19322">
        <ele>1392.61</ele>
        <time>2015-01-18T14:13:53Z</time>
      </trkpt>
      <trkpt lat="44.13555" lon="6.19329">
        <ele>1390.68</ele>
        <time>2015-01-18T14:14:06Z</time>
      </trkpt>
      <trkpt lat="44.13543" lon="6.19341">
        <ele>1389.72</ele>
        <time>2015-01-18T14:14:23Z</time>
      </trkpt>
      <trkpt lat="44.13528" lon="6.19349">
        <ele>1387.8</ele>
        <time>2015-01-18T14:14:40Z</time>
      </trkpt>
      <trkpt lat="44.13528" lon="6.19349">
        <ele>1388.76</ele>
        <time>2015-01-18T14:14:41Z</time>
      </trkpt>
      <trkpt lat="44.13511" lon="6.19349">
        <ele>1386.84</ele>
        <time>2015-01-18T14:14:56Z</time>
      </trkpt>
      <trkpt lat="44.1351" lon="6.19349">
        <ele>1387.32</ele>
        <time>2015-01-18T14:14:57Z</time>
      </trkpt>
      <trkpt lat="44.13506" lon="6.19354">
        <ele>1386.36</ele>
        <time>2015-01-18T14:15:03Z</time>
      </trkpt>
      <trkpt lat="44.13491" lon="6.19364">
        <ele>1386.36</ele>
        <time>2015-01-18T14:15:19Z</time>
      </trkpt>
      <trkpt lat="44.1349" lon="6.19367">
        <ele>1386.36</ele>
        <time>2015-01-18T14:15:21Z</time>
      </trkpt>
      <trkpt lat="44.1348" lon="6.19386">
        <ele>1386.36</ele>
        <time>2015-01-18T14:15:38Z</time>
      </trkpt>
      <trkpt lat="44.13472" lon="6.19404">
        <ele>1384.44</ele>
        <time>2015-01-18T14:15:54Z</time>
      </trkpt>
      <trkpt lat="44.13471" lon="6.19406">
        <ele>1383.96</ele>
        <time>2015-01-18T14:16:07Z</time>
      </trkpt>
      <trkpt lat="44.13468" lon="6.19404">
        <ele>1385.88</ele>
        <time>2015-01-18T14:16:20Z</time>
      </trkpt>
      <trkpt lat="44.13465" lon="6.19408">
        <ele>1385.4</ele>
        <time>2015-01-18T14:16:32Z</time>
      </trkpt>
      <trkpt lat="44.13462" lon="6.19411">
        <ele>1385.4</ele>
        <time>2015-01-18T14:16:36Z</time>
      </trkpt>
      <trkpt lat="44.13452" lon="6.19424">
        <ele>1384.92</ele>
        <time>2015-01-18T14:16:49Z</time>
      </trkpt>
      <trkpt lat="44.13439" lon="6.19439">
        <ele>1385.88</ele>
        <time>2015-01-18T14:17:05Z</time>
      </trkpt>
      <trkpt lat="44.13428" lon="6.19457">
        <ele>1383.96</ele>
        <time>2015-01-18T14:17:22Z</time>
      </trkpt>
      <trkpt lat="44.13415" lon="6.19474">
        <ele>1382.99</ele>
        <time>2015-01-18T14:17:41Z</time>
      </trkpt>
      <trkpt lat="44.13401" lon="6.19486">
        <ele>1382.99</ele>
        <time>2015-01-18T14:17:58Z</time>
      </trkpt>
      <trkpt lat="44.13387" lon="6.19498">
        <ele>1383.96</ele>
        <time>2015-01-18T14:18:16Z</time>
      </trkpt>
      <trkpt lat="44.13381" lon="6.19501">
        <ele>1383.47</ele>
        <time>2015-01-18T14:18:32Z</time>
      </trkpt>
      <trkpt lat="44.13374" lon="6.19506">
        <ele>1385.4</ele>
        <time>2015-01-18T14:18:42Z</time>
      </trkpt>
      <trkpt lat="44.13365" lon="6.19519">
        <ele>1385.4</ele>
        <time>2015-01-18T14:18:58Z</time>
      </trkpt>
      <trkpt lat="44.13362" lon="6.19525">
        <ele>1385.88</ele>
        <time>2015-01-18T14:19:14Z</time>
      </trkpt>
      <trkpt lat="44.13361" lon="6.19531">
        <ele>1386.36</ele>
        <time>2015-01-18T14:19:31Z</time>
      </trkpt>
      <trkpt lat="44.1336" lon="6.19533">
        <ele>1386.36</ele>
        <time>2015-01-18T14:19:34Z</time>
      </trkpt>
      <trkpt lat="44.13353" lon="6.19553">
        <ele>1388.76</ele>
        <time>2015-01-18T14:19:52Z</time>
      </trkpt>
      <trkpt lat="44.13344" lon="6.19568">
        <ele>1391.17</ele>
        <time>2015-01-18T14:20:10Z</time>
      </trkpt>
      <trkpt lat="44.13342" lon="6.1957">
        <ele>1391.17</ele>
        <time>2015-01-18T14:20:13Z</time>
      </trkpt>
      <trkpt lat="44.1334" lon="6.19573">
        <ele>1391.65</ele>
        <time>2015-01-18T14:20:16Z</time>
      </trkpt>
      <trkpt lat="44.13338" lon="6.19577">
        <ele>1392.13</ele>
        <time>2015-01-18T14:20:20Z</time>
      </trkpt>
      <trkpt lat="44.13324" lon="6.19589">
        <ele>1391.65</ele>
        <time>2015-01-18T14:20:36Z</time>
      </trkpt>
      <trkpt lat="44.13308" lon="6.196">
        <ele>1391.17</ele>
        <time>2015-01-18T14:20:52Z</time>
      </trkpt>
      <trkpt lat="44.133" lon="6.19603">
        <ele>1391.17</ele>
        <time>2015-01-18T14:21:00Z</time>
      </trkpt>
      <trkpt lat="44.13297" lon="6.19603">
        <ele>1392.13</ele>
        <time>2015-01-18T14:21:04Z</time>
      </trkpt>
      <trkpt lat="44.13283" lon="6.19614">
        <ele>1391.17</ele>
        <time>2015-01-18T14:21:21Z</time>
      </trkpt>
      <trkpt lat="44.13279" lon="6.19615">
        <ele>1391.65</ele>
        <time>2015-01-18T14:21:26Z</time>
      </trkpt>
      <trkpt lat="44.13261" lon="6.19616">
        <ele>1393.09</ele>
        <time>2015-01-18T14:21:43Z</time>
      </trkpt>
      <trkpt lat="44.13257" lon="6.19615">
        <ele>1392.61</ele>
        <time>2015-01-18T14:21:58Z</time>
      </trkpt>
      <trkpt lat="44.13255" lon="6.19616">
        <ele>1393.09</ele>
        <time>2015-01-18T14:22:15Z</time>
      </trkpt>
      <trkpt lat="44.13256" lon="6.19615">
        <ele>1392.13</ele>
        <time>2015-01-18T14:22:33Z</time>
      </trkpt>
      <trkpt lat="44.13247" lon="6.19614">
        <ele>1393.57</ele>
        <time>2015-01-18T14:22:50Z</time>
      </trkpt>
      <trkpt lat="44.13237" lon="6.1962">
        <ele>1394.05</ele>
        <time>2015-01-18T14:23:04Z</time>
      </trkpt>
      <trkpt lat="44.13234" lon="6.19623">
        <ele>1394.53</ele>
        <time>2015-01-18T14:23:07Z</time>
      </trkpt>
      <trkpt lat="44.13216" lon="6.19634">
        <ele>1394.05</ele>
        <time>2015-01-18T14:23:23Z</time>
      </trkpt>
      <trkpt lat="44.132" lon="6.19635">
        <ele>1395.01</ele>
        <time>2015-01-18T14:23:39Z</time>
      </trkpt>
      <trkpt lat="44.13183" lon="6.19637">
        <ele>1394.05</ele>
        <time>2015-01-18T14:23:55Z</time>
      </trkpt>
      <trkpt lat="44.13178" lon="6.19637">
        <ele>1393.57</ele>
        <time>2015-01-18T14:24:10Z</time>
      </trkpt>
      <trkpt lat="44.13174" lon="6.19636">
        <ele>1393.57</ele>
        <time>2015-01-18T14:24:21Z</time>
      </trkpt>
      <trkpt lat="44.13167" lon="6.19632">
        <ele>1395.01</ele>
        <time>2015-01-18T14:24:27Z</time>
      </trkpt>
      <trkpt lat="44.13157" lon="6.19626">
        <ele>1395.97</ele>
        <time>2015-01-18T14:24:41Z</time>
      </trkpt>
      <trkpt lat="44.13144" lon="6.19621">
        <ele>1397.41</ele>
        <time>2015-01-18T14:24:55Z</time>
      </trkpt>
      <trkpt lat="44.13139" lon="6.19619">
        <ele>1398.37</ele>
        <time>2015-01-18T14:25:00Z</time>
      </trkpt>
      <trkpt lat="44.13129" lon="6.1961">
        <ele>1396.93</ele>
        <time>2015-01-18T14:25:15Z</time>
      </trkpt>
      <trkpt lat="44.13126" lon="6.1961">
        <ele>1395.49</ele>
        <time>2015-01-18T14:25:19Z</time>
      </trkpt>
      <trkpt lat="44.13121" lon="6.19611">
        <ele>1394.05</ele>
        <time>2015-01-18T14:25:24Z</time>
      </trkpt>
      <trkpt lat="44.13104" lon="6.19606">
        <ele>1393.57</ele>
        <time>2015-01-18T14:25:39Z</time>
      </trkpt>
      <trkpt lat="44.13088" lon="6.19606">
        <ele>1392.61</ele>
        <time>2015-01-18T14:25:55Z</time>
      </trkpt>
      <trkpt lat="44.13076" lon="6.19605">
        <ele>1391.17</ele>
        <time>2015-01-18T14:26:06Z</time>
      </trkpt>
      <trkpt lat="44.13072" lon="6.19605">
        <ele>1391.17</ele>
        <time>2015-01-18T14:26:09Z</time>
      </trkpt>
      <trkpt lat="44.13057" lon="6.196">
        <ele>1390.68</ele>
        <time>2015-01-18T14:26:24Z</time>
      </trkpt>
      <trkpt lat="44.13053" lon="6.19601">
        <ele>1390.2</ele>
        <time>2015-01-18T14:26:30Z</time>
      </trkpt>
      <trkpt lat="44.13036" lon="6.19611">
        <ele>1390.2</ele>
        <time>2015-01-18T14:26:48Z</time>
      </trkpt>
      <trkpt lat="44.13034" lon="6.19613">
        <ele>1390.2</ele>
        <time>2015-01-18T14:26:51Z</time>
      </trkpt>
      <trkpt lat="44.1302" lon="6.19623">
        <ele>1390.68</ele>
        <time>2015-01-18T14:27:07Z</time>
      </trkpt>
      <trkpt lat="44.13005" lon="6.19625">
        <ele>1391.65</ele>
        <time>2015-01-18T14:27:26Z</time>
      </trkpt>
      <trkpt lat="44.12993" lon="6.19633">
        <ele>1393.09</ele>
        <time>2015-01-18T14:27:38Z</time>
      </trkpt>
      <trkpt lat="44.12988" lon="6.19638">
        <ele>1393.09</ele>
        <time>2015-01-18T14:27:44Z</time>
      </trkpt>
      <trkpt lat="44.12986" lon="6.19641">
        <ele>1392.61</ele>
        <time>2015-01-18T14:27:46Z</time>
      </trkpt>
      <trkpt lat="44.12978" lon="6.19646">
        <ele>1391.65</ele>
        <time>2015-01-18T14:27:55Z</time>
      </trkpt>
      <trkpt lat="44.12965" lon="6.19649">
        <ele>1392.13</ele>
        <time>2015-01-18T14:28:09Z</time>
      </trkpt>
      <trkpt lat="44.12952" lon="6.19655">
        <ele>1392.13</ele>
        <time>2015-01-18T14:28:23Z</time>
      </trkpt>
      <trkpt lat="44.12948" lon="6.1966">
        <ele>1391.65</ele>
        <time>2015-01-18T14:28:30Z</time>
      </trkpt>
      <trkpt lat="44.12933" lon="6.19679">
        <ele>1390.68</ele>
        <time>2015-01-18T14:28:49Z</time>
      </trkpt>
      <trkpt lat="44.12923" lon="6.19696">
        <ele>1391.65</ele>
        <time>2015-01-18T14:29:04Z</time>
      </trkpt>
      <trkpt lat="44.1292" lon="6.19701">
        <ele>1392.61</ele>
        <time>2015-01-18T14:29:09Z</time>
      </trkpt>
      <trkpt lat="44.12919" lon="6.19706">
        <ele>1392.13</ele>
        <time>2015-01-18T14:29:13Z</time>
      </trkpt>
      <trkpt lat="44.12904" lon="6.19716">
        <ele>1392.13</ele>
        <time>2015-01-18T14:29:32Z</time>
      </trkpt>
      <trkpt lat="44.12897" lon="6.19718">
        <ele>1391.65</ele>
        <time>2015-01-18T14:29:39Z</time>
      </trkpt>
      <trkpt lat="44.12886" lon="6.19717">
        <ele>1391.65</ele>
        <time>2015-01-18T14:29:52Z</time>
      </trkpt>
      <trkpt lat="44.12872" lon="6.19714">
        <ele>1389.72</ele>
        <time>2015-01-18T14:30:08Z</time>
      </trkpt>
      <trkpt lat="44.12863" lon="6.1971">
        <ele>1387.8</ele>
        <time>2015-01-18T14:30:22Z</time>
      </trkpt>
      <trkpt lat="44.12862" lon="6.1971">
        <ele>1386.84</ele>
        <time>2015-01-18T14:30:24Z</time>
      </trkpt>
      <trkpt lat="44.12851" lon="6.19715">
        <ele>1383.96</ele>
        <time>2015-01-18T14:30:39Z</time>
      </trkpt>
      <trkpt lat="44.12849" lon="6.19717">
        <ele>1382.99</ele>
        <time>2015-01-18T14:30:43Z</time>
      </trkpt>
      <trkpt lat="44.12843" lon="6.19722">
        <ele>1382.03</ele>
        <time>2015-01-18T14:30:51Z</time>
      </trkpt>
      <trkpt lat="44.1283" lon="6.19729">
        <ele>1379.63</ele>
        <time>2015-01-18T14:31:08Z</time>
      </trkpt>
      <trkpt lat="44.12817" lon="6.19732">
        <ele>1377.71</ele>
        <time>2015-01-18T14:31:23Z</time>
      </trkpt>
      <trkpt lat="44.12804" lon="6.19736">
        <ele>1376.26</ele>
        <time>2015-01-18T14:31:38Z</time>
      </trkpt>
      <trkpt lat="44.12793" lon="6.19742">
        <ele>1373.38</ele>
        <time>2015-01-18T14:31:52Z</time>
      </trkpt>
      <trkpt lat="44.12779" lon="6.19747">
        <ele>1372.9</ele>
        <time>2015-01-18T14:32:08Z</time>
      </trkpt>
      <trkpt lat="44.12768" lon="6.19751">
        <ele>1371.46</ele>
        <time>2015-01-18T14:32:22Z</time>
      </trkpt>
      <trkpt lat="44.12753" lon="6.19756">
        <ele>1368.57</ele>
        <time>2015-01-18T14:32:40Z</time>
      </trkpt>
      <trkpt lat="44.12742" lon="6.19762">
        <ele>1367.61</ele>
        <time>2015-01-18T14:32:55Z</time>
      </trkpt>
      <trkpt lat="44.12736" lon="6.19765">
        <ele>1367.13</ele>
        <time>2015-01-18T14:33:02Z</time>
      </trkpt>
      <trkpt lat="44.12724" lon="6.19769">
        <ele>1365.69</ele>
        <time>2015-01-18T14:33:16Z</time>
      </trkpt>
      <trkpt lat="44.12714" lon="6.19769">
        <ele>1363.77</ele>
        <time>2015-01-18T14:33:31Z</time>
      </trkpt>
      <trkpt lat="44.1271" lon="6.1977">
        <ele>1362.81</ele>
        <time>2015-01-18T14:33:46Z</time>
      </trkpt>
      <trkpt lat="44.12699" lon="6.19773">
        <ele>1361.36</ele>
        <time>2015-01-18T14:34:00Z</time>
      </trkpt>
      <trkpt lat="44.12685" lon="6.19775">
        <ele>1359.44</ele>
        <time>2015-01-18T14:34:16Z</time>
      </trkpt>
      <trkpt lat="44.12682" lon="6.19776">
        <ele>1358.96</ele>
        <time>2015-01-18T14:34:19Z</time>
      </trkpt>
      <trkpt lat="44.12678" lon="6.19775">
        <ele>1357.52</ele>
        <time>2015-01-18T14:34:24Z</time>
      </trkpt>
      <trkpt lat="44.12668" lon="6.19773">
        <ele>1354.63</ele>
        <time>2015-01-18T14:34:39Z</time>
      </trkpt>
      <trkpt lat="44.1266" lon="6.19773">
        <ele>1353.67</ele>
        <time>2015-01-18T14:34:51Z</time>
      </trkpt>
      <trkpt lat="44.12645" lon="6.19773">
        <ele>1351.27</ele>
        <time>2015-01-18T14:35:08Z</time>
      </trkpt>
      <trkpt lat="44.12635" lon="6.19776">
        <ele>1348.87</ele>
        <time>2015-01-18T14:35:20Z</time>
      </trkpt>
      <trkpt lat="44.12627" lon="6.19777">
        <ele>1347.43</ele>
        <time>2015-01-18T14:35:30Z</time>
      </trkpt>
      <trkpt lat="44.12614" lon="6.19778">
        <ele>1345.98</ele>
        <time>2015-01-18T14:35:45Z</time>
      </trkpt>
      <trkpt lat="44.126" lon="6.19781">
        <ele>1344.06</ele>
        <time>2015-01-18T14:36:01Z</time>
      </trkpt>
      <trkpt lat="44.126" lon="6.19781">
        <ele>1344.06</ele>
        <time>2015-01-18T14:36:02Z</time>
      </trkpt>
      <trkpt lat="44.12584" lon="6.19791">
        <ele>1342.62</ele>
        <time>2015-01-18T14:36:19Z</time>
      </trkpt>
      <trkpt lat="44.12576" lon="6.19793">
        <ele>1340.7</ele>
        <time>2015-01-18T14:36:30Z</time>
      </trkpt>
      <trkpt lat="44.12565" lon="6.19802">
        <ele>1339.25</ele>
        <time>2015-01-18T14:36:44Z</time>
      </trkpt>
      <trkpt lat="44.12558" lon="6.19812">
        <ele>1337.33</ele>
        <time>2015-01-18T14:36:55Z</time>
      </trkpt>
      <trkpt lat="44.12555" lon="6.19816">
        <ele>1336.85</ele>
        <time>2015-01-18T14:37:00Z</time>
      </trkpt>
      <trkpt lat="44.1255" lon="6.19821">
        <ele>1335.41</ele>
        <time>2015-01-18T14:37:06Z</time>
      </trkpt>
      <trkpt lat="44.12547" lon="6.19824">
        <ele>1334.93</ele>
        <time>2015-01-18T14:37:11Z</time>
      </trkpt>
      <trkpt lat="44.12535" lon="6.19835">
        <ele>1334.45</ele>
        <time>2015-01-18T14:37:26Z</time>
      </trkpt>
      <trkpt lat="44.12523" lon="6.19845">
        <ele>1332.52</ele>
        <time>2015-01-18T14:37:41Z</time>
      </trkpt>
      <trkpt lat="44.12511" lon="6.19849">
        <ele>1331.56</ele>
        <time>2015-01-18T14:37:53Z</time>
      </trkpt>
      <trkpt lat="44.12495" lon="6.19852">
        <ele>1330.6</ele>
        <time>2015-01-18T14:38:09Z</time>
      </trkpt>
      <trkpt lat="44.12481" lon="6.19853">
        <ele>1329.64</ele>
        <time>2015-01-18T14:38:23Z</time>
      </trkpt>
      <trkpt lat="44.12471" lon="6.19853">
        <ele>1329.16</ele>
        <time>2015-01-18T14:38:32Z</time>
      </trkpt>
      <trkpt lat="44.12462" lon="6.19851">
        <ele>1327.24</ele>
        <time>2015-01-18T14:38:47Z</time>
      </trkpt>
      <trkpt lat="44.12461" lon="6.19851">
        <ele>1327.24</ele>
        <time>2015-01-18T14:38:48Z</time>
      </trkpt>
      <trkpt lat="44.12448" lon="6.19851">
        <ele>1325.31</ele>
        <time>2015-01-18T14:39:03Z</time>
      </trkpt>
      <trkpt lat="44.12439" lon="6.1985">
        <ele>1322.91</ele>
        <time>2015-01-18T14:39:16Z</time>
      </trkpt>
      <trkpt lat="44.12439" lon="6.19849">
        <ele>1323.39</ele>
        <time>2015-01-18T14:39:33Z</time>
      </trkpt>
      <trkpt lat="44.12439" lon="6.19849">
        <ele>1323.39</ele>
        <time>2015-01-18T14:40:00Z</time>
      </trkpt>
      <trkpt lat="44.12435" lon="6.1985">
        <ele>1323.39</ele>
        <time>2015-01-18T14:40:14Z</time>
      </trkpt>
      <trkpt lat="44.1242" lon="6.19853">
        <ele>1320.51</ele>
        <time>2015-01-18T14:40:30Z</time>
      </trkpt>
      <trkpt lat="44.12416" lon="6.19852">
        <ele>1319.55</ele>
        <time>2015-01-18T14:40:35Z</time>
      </trkpt>
      <trkpt lat="44.1241" lon="6.19848">
        <ele>1317.14</ele>
        <time>2015-01-18T14:40:46Z</time>
      </trkpt>
      <trkpt lat="44.12396" lon="6.19846">
        <ele>1314.74</ele>
        <time>2015-01-18T14:41:01Z</time>
      </trkpt>
      <trkpt lat="44.12391" lon="6.19846">
        <ele>1314.26</ele>
        <time>2015-01-18T14:41:08Z</time>
      </trkpt>
      <trkpt lat="44.12388" lon="6.19848">
        <ele>1313.78</ele>
        <time>2015-01-18T14:41:11Z</time>
      </trkpt>
      <trkpt lat="44.1238" lon="6.19856">
        <ele>1312.82</ele>
        <time>2015-01-18T14:41:25Z</time>
      </trkpt>
      <trkpt lat="44.12375" lon="6.19853">
        <ele>1310.41</ele>
        <time>2015-01-18T14:41:37Z</time>
      </trkpt>
      <trkpt lat="44.12373" lon="6.19852">
        <ele>1309.93</ele>
        <time>2015-01-18T14:41:39Z</time>
      </trkpt>
      <trkpt lat="44.12364" lon="6.19849">
        <ele>1308.01</ele>
        <time>2015-01-18T14:41:49Z</time>
      </trkpt>
      <trkpt lat="44.12359" lon="6.19842">
        <ele>1306.09</ele>
        <time>2015-01-18T14:42:00Z</time>
      </trkpt>
      <trkpt lat="44.12354" lon="6.19832">
        <ele>1303.69</ele>
        <time>2015-01-18T14:42:13Z</time>
      </trkpt>
      <trkpt lat="44.12351" lon="6.1983">
        <ele>1303.2</ele>
        <time>2015-01-18T14:42:18Z</time>
      </trkpt>
      <trkpt lat="44.12341" lon="6.19821">
        <ele>1304.17</ele>
        <time>2015-01-18T14:42:32Z</time>
      </trkpt>
      <trkpt lat="44.1234" lon="6.19812">
        <ele>1303.69</ele>
        <time>2015-01-18T14:42:45Z</time>
      </trkpt>
      <trkpt lat="44.12341" lon="6.19808">
        <ele>1302.24</ele>
        <time>2015-01-18T14:42:50Z</time>
      </trkpt>
      <trkpt lat="44.12341" lon="6.19805">
        <ele>1301.76</ele>
        <time>2015-01-18T14:42:52Z</time>
      </trkpt>
      <trkpt lat="44.12341" lon="6.19788">
        <ele>1300.32</ele>
        <time>2015-01-18T14:43:07Z</time>
      </trkpt>
      <trkpt lat="44.12342" lon="6.19776">
        <ele>1296.48</ele>
        <time>2015-01-18T14:43:24Z</time>
      </trkpt>
      <trkpt lat="44.12342" lon="6.19773">
        <ele>1295.99</ele>
        <time>2015-01-18T14:43:26Z</time>
      </trkpt>
      <trkpt lat="44.12341" lon="6.19761">
        <ele>1294.55</ele>
        <time>2015-01-18T14:43:38Z</time>
      </trkpt>
      <trkpt lat="44.12332" lon="6.19744">
        <ele>1292.63</ele>
        <time>2015-01-18T14:43:56Z</time>
      </trkpt>
      <trkpt lat="44.12322" lon="6.19732">
        <ele>1290.23</ele>
        <time>2015-01-18T14:44:11Z</time>
      </trkpt>
      <trkpt lat="44.12306" lon="6.19724">
        <ele>1289.27</ele>
        <time>2015-01-18T14:44:27Z</time>
      </trkpt>
      <trkpt lat="44.12305" lon="6.19723">
        <ele>1288.78</ele>
        <time>2015-01-18T14:44:29Z</time>
      </trkpt>
      <trkpt lat="44.12296" lon="6.19715">
        <ele>1287.34</ele>
        <time>2015-01-18T14:44:41Z</time>
      </trkpt>
      <trkpt lat="44.12293" lon="6.19714">
        <ele>1287.82</ele>
        <time>2015-01-18T14:44:45Z</time>
      </trkpt>
      <trkpt lat="44.12281" lon="6.19697">
        <ele>1286.38</ele>
        <time>2015-01-18T14:45:01Z</time>
      </trkpt>
      <trkpt lat="44.1228" lon="6.19694">
        <ele>1285.9</ele>
        <time>2015-01-18T14:45:03Z</time>
      </trkpt>
      <trkpt lat="44.1227" lon="6.19678">
        <ele>1283.5</ele>
        <time>2015-01-18T14:45:18Z</time>
      </trkpt>
      <trkpt lat="44.12267" lon="6.19676">
        <ele>1281.57</ele>
        <time>2015-01-18T14:45:22Z</time>
      </trkpt>
      <trkpt lat="44.1226" lon="6.19666">
        <ele>1281.09</ele>
        <time>2015-01-18T14:45:32Z</time>
      </trkpt>
      <trkpt lat="44.12249" lon="6.19666">
        <ele>1278.69</ele>
        <time>2015-01-18T14:45:47Z</time>
      </trkpt>
      <trkpt lat="44.12236" lon="6.19672">
        <ele>1277.25</ele>
        <time>2015-01-18T14:46:02Z</time>
      </trkpt>
      <trkpt lat="44.12224" lon="6.19677">
        <ele>1275.81</ele>
        <time>2015-01-18T14:46:18Z</time>
      </trkpt>
      <trkpt lat="44.12223" lon="6.19678">
        <ele>1275.81</ele>
        <time>2015-01-18T14:46:19Z</time>
      </trkpt>
      <trkpt lat="44.12212" lon="6.1968">
        <ele>1273.88</ele>
        <time>2015-01-18T14:46:33Z</time>
      </trkpt>
      <trkpt lat="44.1221" lon="6.19681">
        <ele>1272.92</ele>
        <time>2015-01-18T14:46:36Z</time>
      </trkpt>
      <trkpt lat="44.12198" lon="6.19691">
        <ele>1271.96</ele>
        <time>2015-01-18T14:46:51Z</time>
      </trkpt>
      <trkpt lat="44.12182" lon="6.19694">
        <ele>1271</ele>
        <time>2015-01-18T14:47:06Z</time>
      </trkpt>
      <trkpt lat="44.12179" lon="6.19693">
        <ele>1271</ele>
        <time>2015-01-18T14:47:09Z</time>
      </trkpt>
      <trkpt lat="44.12168" lon="6.19685">
        <ele>1268.6</ele>
        <time>2015-01-18T14:47:24Z</time>
      </trkpt>
      <trkpt lat="44.12156" lon="6.19681">
        <ele>1266.67</ele>
        <time>2015-01-18T14:47:39Z</time>
      </trkpt>
      <trkpt lat="44.12149" lon="6.19688">
        <ele>1264.27</ele>
        <time>2015-01-18T14:47:53Z</time>
      </trkpt>
      <trkpt lat="44.12144" lon="6.19691">
        <ele>1263.31</ele>
        <time>2015-01-18T14:47:59Z</time>
      </trkpt>
      <trkpt lat="44.12141" lon="6.19693">
        <ele>1262.83</ele>
        <time>2015-01-18T14:48:02Z</time>
      </trkpt>
      <trkpt lat="44.12126" lon="6.19697">
        <ele>1263.79</ele>
        <time>2015-01-18T14:48:17Z</time>
      </trkpt>
      <trkpt lat="44.12114" lon="6.19694">
        <ele>1261.87</ele>
        <time>2015-01-18T14:48:34Z</time>
      </trkpt>
      <trkpt lat="44.12108" lon="6.19693">
        <ele>1260.43</ele>
        <time>2015-01-18T14:48:41Z</time>
      </trkpt>
      <trkpt lat="44.12098" lon="6.197">
        <ele>1258.02</ele>
        <time>2015-01-18T14:48:56Z</time>
      </trkpt>
      <trkpt lat="44.12093" lon="6.19703">
        <ele>1258.02</ele>
        <time>2015-01-18T14:49:01Z</time>
      </trkpt>
      <trkpt lat="44.1208" lon="6.19704">
        <ele>1255.62</ele>
        <time>2015-01-18T14:49:16Z</time>
      </trkpt>
      <trkpt lat="44.12073" lon="6.19697">
        <ele>1253.7</ele>
        <time>2015-01-18T14:49:29Z</time>
      </trkpt>
      <trkpt lat="44.12071" lon="6.19695">
        <ele>1253.22</ele>
        <time>2015-01-18T14:49:33Z</time>
      </trkpt>
      <trkpt lat="44.12055" lon="6.19695">
        <ele>1251.77</ele>
        <time>2015-01-18T14:49:48Z</time>
      </trkpt>
      <trkpt lat="44.12036" lon="6.19698">
        <ele>1251.29</ele>
        <time>2015-01-18T14:50:04Z</time>
      </trkpt>
      <trkpt lat="44.12034" lon="6.197">
        <ele>1250.33</ele>
        <time>2015-01-18T14:50:07Z</time>
      </trkpt>
      <trkpt lat="44.12031" lon="6.19703">
        <ele>1250.81</ele>
        <time>2015-01-18T14:50:10Z</time>
      </trkpt>
      <trkpt lat="44.12024" lon="6.19708">
        <ele>1247.93</ele>
        <time>2015-01-18T14:50:25Z</time>
      </trkpt>
      <trkpt lat="44.12016" lon="6.19714">
        <ele>1245.04</ele>
        <time>2015-01-18T14:50:37Z</time>
      </trkpt>
      <trkpt lat="44.12015" lon="6.19714">
        <ele>1245.04</ele>
        <time>2015-01-18T14:50:38Z</time>
      </trkpt>
      <trkpt lat="44.12006" lon="6.19709">
        <ele>1242.16</ele>
        <time>2015-01-18T14:50:52Z</time>
      </trkpt>
      <trkpt lat="44.12003" lon="6.19706">
        <ele>1241.2</ele>
        <time>2015-01-18T14:50:59Z</time>
      </trkpt>
      <trkpt lat="44.11995" lon="6.19713">
        <ele>1237.83</ele>
        <time>2015-01-18T14:51:12Z</time>
      </trkpt>
      <trkpt lat="44.1199" lon="6.19718">
        <ele>1236.39</ele>
        <time>2015-01-18T14:51:21Z</time>
      </trkpt>
      <trkpt lat="44.11984" lon="6.19721">
        <ele>1234.95</ele>
        <time>2015-01-18T14:51:28Z</time>
      </trkpt>
      <trkpt lat="44.11971" lon="6.19733">
        <ele>1232.55</ele>
        <time>2015-01-18T14:51:44Z</time>
      </trkpt>
      <trkpt lat="44.11969" lon="6.19734">
        <ele>1231.59</ele>
        <time>2015-01-18T14:51:47Z</time>
      </trkpt>
      <trkpt lat="44.11961" lon="6.19735">
        <ele>1230.14</ele>
        <time>2015-01-18T14:51:56Z</time>
      </trkpt>
      <trkpt lat="44.11946" lon="6.19737">
        <ele>1227.26</ele>
        <time>2015-01-18T14:52:11Z</time>
      </trkpt>
      <trkpt lat="44.1193" lon="6.19741">
        <ele>1225.82</ele>
        <time>2015-01-18T14:52:26Z</time>
      </trkpt>
      <trkpt lat="44.1192" lon="6.19745">
        <ele>1223.9</ele>
        <time>2015-01-18T14:52:37Z</time>
      </trkpt>
      <trkpt lat="44.11915" lon="6.19739">
        <ele>1222.93</ele>
        <time>2015-01-18T14:52:44Z</time>
      </trkpt>
      <trkpt lat="44.11907" lon="6.19735">
        <ele>1221.49</ele>
        <time>2015-01-18T14:52:56Z</time>
      </trkpt>
      <trkpt lat="44.1189" lon="6.19741">
        <ele>1218.61</ele>
        <time>2015-01-18T14:53:11Z</time>
      </trkpt>
      <trkpt lat="44.11884" lon="6.19742">
        <ele>1217.65</ele>
        <time>2015-01-18T14:53:18Z</time>
      </trkpt>
      <trkpt lat="44.1188" lon="6.19741">
        <ele>1217.17</ele>
        <time>2015-01-18T14:53:22Z</time>
      </trkpt>
      <trkpt lat="44.1187" lon="6.19732">
        <ele>1213.8</ele>
        <time>2015-01-18T14:53:38Z</time>
      </trkpt>
      <trkpt lat="44.11863" lon="6.19729">
        <ele>1210.92</ele>
        <time>2015-01-18T14:53:48Z</time>
      </trkpt>
      <trkpt lat="44.11855" lon="6.19726">
        <ele>1208.51</ele>
        <time>2015-01-18T14:54:01Z</time>
      </trkpt>
      <trkpt lat="44.11844" lon="6.19725">
        <ele>1205.15</ele>
        <time>2015-01-18T14:54:16Z</time>
      </trkpt>
      <trkpt lat="44.11829" lon="6.19724">
        <ele>1202.27</ele>
        <time>2015-01-18T14:54:33Z</time>
      </trkpt>
      <trkpt lat="44.11818" lon="6.19718">
        <ele>1199.38</ele>
        <time>2015-01-18T14:54:47Z</time>
      </trkpt>
      <trkpt lat="44.11807" lon="6.19713">
        <ele>1196.02</ele>
        <time>2015-01-18T14:55:01Z</time>
      </trkpt>
      <trkpt lat="44.11799" lon="6.19707">
        <ele>1193.13</ele>
        <time>2015-01-18T14:55:13Z</time>
      </trkpt>
      <trkpt lat="44.11795" lon="6.19707">
        <ele>1193.13</ele>
        <time>2015-01-18T14:55:18Z</time>
      </trkpt>
      <trkpt lat="44.1179" lon="6.1971">
        <ele>1191.69</ele>
        <time>2015-01-18T14:55:24Z</time>
      </trkpt>
      <trkpt lat="44.11775" lon="6.19707">
        <ele>1189.29</ele>
        <time>2015-01-18T14:55:41Z</time>
      </trkpt>
      <trkpt lat="44.11773" lon="6.19706">
        <ele>1188.81</ele>
        <time>2015-01-18T14:55:43Z</time>
      </trkpt>
      <trkpt lat="44.11762" lon="6.19701">
        <ele>1185.92</ele>
        <time>2015-01-18T14:55:59Z</time>
      </trkpt>
      <trkpt lat="44.1176" lon="6.19699">
        <ele>1185.44</ele>
        <time>2015-01-18T14:56:02Z</time>
      </trkpt>
      <trkpt lat="44.11754" lon="6.19695">
        <ele>1183.52</ele>
        <time>2015-01-18T14:56:12Z</time>
      </trkpt>
      <trkpt lat="44.11751" lon="6.19683">
        <ele>1181.12</ele>
        <time>2015-01-18T14:56:25Z</time>
      </trkpt>
      <trkpt lat="44.11746" lon="6.19667">
        <ele>1179.19</ele>
        <time>2015-01-18T14:56:39Z</time>
      </trkpt>
      <trkpt lat="44.11744" lon="6.19652">
        <ele>1176.31</ele>
        <time>2015-01-18T14:56:52Z</time>
      </trkpt>
      <trkpt lat="44.11742" lon="6.1964">
        <ele>1174.87</ele>
        <time>2015-01-18T14:57:03Z</time>
      </trkpt>
      <trkpt lat="44.1174" lon="6.19623">
        <ele>1172.47</ele>
        <time>2015-01-18T14:57:18Z</time>
      </trkpt>
      <trkpt lat="44.11739" lon="6.19619">
        <ele>1172.47</ele>
        <time>2015-01-18T14:57:21Z</time>
      </trkpt>
      <trkpt lat="44.11736" lon="6.19609">
        <ele>1171.02</ele>
        <time>2015-01-18T14:57:29Z</time>
      </trkpt>
      <trkpt lat="44.11733" lon="6.19592">
        <ele>1170.06</ele>
        <time>2015-01-18T14:57:41Z</time>
      </trkpt>
      <trkpt lat="44.11727" lon="6.19568">
        <ele>1169.1</ele>
        <time>2015-01-18T14:57:59Z</time>
      </trkpt>
      <trkpt lat="44.11724" lon="6.19556">
        <ele>1169.1</ele>
        <time>2015-01-18T14:58:08Z</time>
      </trkpt>
      <trkpt lat="44.11715" lon="6.19538">
        <ele>1170.06</ele>
        <time>2015-01-18T14:58:24Z</time>
      </trkpt>
      <trkpt lat="44.11705" lon="6.19528">
        <ele>1168.62</ele>
        <time>2015-01-18T14:58:40Z</time>
      </trkpt>
      <trkpt lat="44.11695" lon="6.19517">
        <ele>1166.7</ele>
        <time>2015-01-18T14:58:56Z</time>
      </trkpt>
      <trkpt lat="44.11691" lon="6.19505">
        <ele>1164.29</ele>
        <time>2015-01-18T14:59:08Z</time>
      </trkpt>
      <trkpt lat="44.11683" lon="6.19492">
        <ele>1161.89</ele>
        <time>2015-01-18T14:59:23Z</time>
      </trkpt>
      <trkpt lat="44.11683" lon="6.19487">
        <ele>1161.41</ele>
        <time>2015-01-18T14:59:27Z</time>
      </trkpt>
      <trkpt lat="44.11683" lon="6.19472">
        <ele>1158.53</ele>
        <time>2015-01-18T14:59:44Z</time>
      </trkpt>
      <trkpt lat="44.11678" lon="6.19483">
        <ele>1158.05</ele>
        <time>2015-01-18T14:59:55Z</time>
      </trkpt>
      <trkpt lat="44.11677" lon="6.19485">
        <ele>1157.56</ele>
        <time>2015-01-18T14:59:57Z</time>
      </trkpt>
      <trkpt lat="44.11676" lon="6.19506">
        <ele>1155.64</ele>
        <time>2015-01-18T15:00:14Z</time>
      </trkpt>
      <trkpt lat="44.11675" lon="6.1951">
        <ele>1156.12</ele>
        <time>2015-01-18T15:00:17Z</time>
      </trkpt>
      <trkpt lat="44.11668" lon="6.19526">
        <ele>1153.72</ele>
        <time>2015-01-18T15:00:32Z</time>
      </trkpt>
      <trkpt lat="44.11658" lon="6.1954">
        <ele>1151.8</ele>
        <time>2015-01-18T15:00:49Z</time>
      </trkpt>
      <trkpt lat="44.11645" lon="6.19547">
        <ele>1150.84</ele>
        <time>2015-01-18T15:01:07Z</time>
      </trkpt>
      <trkpt lat="44.11632" lon="6.19537">
        <ele>1148.43</ele>
        <time>2015-01-18T15:01:26Z</time>
      </trkpt>
      <trkpt lat="44.11623" lon="6.19529">
        <ele>1146.03</ele>
        <time>2015-01-18T15:01:41Z</time>
      </trkpt>
      <trkpt lat="44.11622" lon="6.19527">
        <ele>1146.03</ele>
        <time>2015-01-18T15:01:43Z</time>
      </trkpt>
      <trkpt lat="44.11613" lon="6.19523">
        <ele>1144.59</ele>
        <time>2015-01-18T15:01:54Z</time>
      </trkpt>
      <trkpt lat="44.11602" lon="6.1952">
        <ele>1141.7</ele>
        <time>2015-01-18T15:02:10Z</time>
      </trkpt>
      <trkpt lat="44.11593" lon="6.19514">
        <ele>1139.78</ele>
        <time>2015-01-18T15:02:25Z</time>
      </trkpt>
      <trkpt lat="44.11585" lon="6.19512">
        <ele>1137.38</ele>
        <time>2015-01-18T15:02:35Z</time>
      </trkpt>
      <trkpt lat="44.11573" lon="6.19509">
        <ele>1134.97</ele>
        <time>2015-01-18T15:02:50Z</time>
      </trkpt>
      <trkpt lat="44.1156" lon="6.19508">
        <ele>1132.57</ele>
        <time>2015-01-18T15:03:05Z</time>
      </trkpt>
      <trkpt lat="44.11551" lon="6.19508">
        <ele>1130.65</ele>
        <time>2015-01-18T15:03:19Z</time>
      </trkpt>
      <trkpt lat="44.11543" lon="6.19505">
        <ele>1128.24</ele>
        <time>2015-01-18T15:03:35Z</time>
      </trkpt>
      <trkpt lat="44.11533" lon="6.19503">
        <ele>1125.36</ele>
        <time>2015-01-18T15:03:48Z</time>
      </trkpt>
      <trkpt lat="44.11527" lon="6.19501">
        <ele>1123.92</ele>
        <time>2015-01-18T15:03:56Z</time>
      </trkpt>
      <trkpt lat="44.11521" lon="6.19499">
        <ele>1122.96</ele>
        <time>2015-01-18T15:04:03Z</time>
      </trkpt>
      <trkpt lat="44.11509" lon="6.19494">
        <ele>1120.07</ele>
        <time>2015-01-18T15:04:20Z</time>
      </trkpt>
      <trkpt lat="44.11509" lon="6.19494">
        <ele>1120.07</ele>
        <time>2015-01-18T15:04:21Z</time>
      </trkpt>
      <trkpt lat="44.11504" lon="6.19492">
        <ele>1119.11</ele>
        <time>2015-01-18T15:04:34Z</time>
      </trkpt>
      <trkpt lat="44.11492" lon="6.19486">
        <ele>1117.67</ele>
        <time>2015-01-18T15:04:48Z</time>
      </trkpt>
      <trkpt lat="44.11481" lon="6.1949">
        <ele>1115.75</ele>
        <time>2015-01-18T15:05:04Z</time>
      </trkpt>
      <trkpt lat="44.11471" lon="6.19487">
        <ele>1114.31</ele>
        <time>2015-01-18T15:05:19Z</time>
      </trkpt>
      <trkpt lat="44.1146" lon="6.19488">
        <ele>1112.38</ele>
        <time>2015-01-18T15:05:33Z</time>
      </trkpt>
      <trkpt lat="44.11449" lon="6.19489">
        <ele>1111.42</ele>
        <time>2015-01-18T15:05:49Z</time>
      </trkpt>
      <trkpt lat="44.11441" lon="6.19488">
        <ele>1109.98</ele>
        <time>2015-01-18T15:06:02Z</time>
      </trkpt>
      <trkpt lat="44.11435" lon="6.19491">
        <ele>1106.13</ele>
        <time>2015-01-18T15:06:13Z</time>
      </trkpt>
      <trkpt lat="44.11433" lon="6.19493">
        <ele>1106.61</ele>
        <time>2015-01-18T15:06:16Z</time>
      </trkpt>
      <trkpt lat="44.11429" lon="6.19507">
        <ele>1104.21</ele>
        <time>2015-01-18T15:06:31Z</time>
      </trkpt>
      <trkpt lat="44.11426" lon="6.19517">
        <ele>1102.29</ele>
        <time>2015-01-18T15:06:44Z</time>
      </trkpt>
      <trkpt lat="44.11422" lon="6.19521">
        <ele>1101.81</ele>
        <time>2015-01-18T15:06:49Z</time>
      </trkpt>
      <trkpt lat="44.1141" lon="6.19528">
        <ele>1101.33</ele>
        <time>2015-01-18T15:07:04Z</time>
      </trkpt>
      <trkpt lat="44.1141" lon="6.19529">
        <ele>1101.33</ele>
        <time>2015-01-18T15:07:05Z</time>
      </trkpt>
      <trkpt lat="44.11403" lon="6.19533">
        <ele>1098.92</ele>
        <time>2015-01-18T15:07:20Z</time>
      </trkpt>
      <trkpt lat="44.11401" lon="6.19534">
        <ele>1097.96</ele>
        <time>2015-01-18T15:07:38Z</time>
      </trkpt>
      <trkpt lat="44.11395" lon="6.19545">
        <ele>1097.48</ele>
        <time>2015-01-18T15:07:49Z</time>
      </trkpt>
      <trkpt lat="44.1139" lon="6.19547">
        <ele>1096.04</ele>
        <time>2015-01-18T15:07:55Z</time>
      </trkpt>
      <trkpt lat="44.11378" lon="6.1956">
        <ele>1095.56</ele>
        <time>2015-01-18T15:08:11Z</time>
      </trkpt>
      <trkpt lat="44.11377" lon="6.19564">
        <ele>1095.08</ele>
        <time>2015-01-18T15:08:15Z</time>
      </trkpt>
      <trkpt lat="44.11369" lon="6.19577">
        <ele>1094.6</ele>
        <time>2015-01-18T15:08:30Z</time>
      </trkpt>
      <trkpt lat="44.1137" lon="6.19564">
        <ele>1091.71</ele>
        <time>2015-01-18T15:08:43Z</time>
      </trkpt>
      <trkpt lat="44.11374" lon="6.19552">
        <ele>1089.79</ele>
        <time>2015-01-18T15:08:56Z</time>
      </trkpt>
      <trkpt lat="44.11375" lon="6.19538">
        <ele>1087.39</ele>
        <time>2015-01-18T15:09:12Z</time>
      </trkpt>
      <trkpt lat="44.11369" lon="6.19546">
        <ele>1085.95</ele>
        <time>2015-01-18T15:09:26Z</time>
      </trkpt>
      <trkpt lat="44.11362" lon="6.19551">
        <ele>1084.02</ele>
        <time>2015-01-18T15:09:39Z</time>
      </trkpt>
      <trkpt lat="44.11355" lon="6.1956">
        <ele>1082.58</ele>
        <time>2015-01-18T15:09:53Z</time>
      </trkpt>
      <trkpt lat="44.11348" lon="6.19571">
        <ele>1079.22</ele>
        <time>2015-01-18T15:10:08Z</time>
      </trkpt>
      <trkpt lat="44.11345" lon="6.19577">
        <ele>1078.74</ele>
        <time>2015-01-18T15:10:15Z</time>
      </trkpt>
      <trkpt lat="44.11342" lon="6.1959">
        <ele>1077.29</ele>
        <time>2015-01-18T15:10:28Z</time>
      </trkpt>
      <trkpt lat="44.11334" lon="6.19591">
        <ele>1075.85</ele>
        <time>2015-01-18T15:10:36Z</time>
      </trkpt>
      <trkpt lat="44.11322" lon="6.19583">
        <ele>1073.45</ele>
        <time>2015-01-18T15:10:51Z</time>
      </trkpt>
      <trkpt lat="44.1131" lon="6.19581">
        <ele>1072.97</ele>
        <time>2015-01-18T15:11:06Z</time>
      </trkpt>
      <trkpt lat="44.11301" lon="6.19576">
        <ele>1069.6</ele>
        <time>2015-01-18T15:11:21Z</time>
      </trkpt>
      <trkpt lat="44.1129" lon="6.19577">
        <ele>1067.2</ele>
        <time>2015-01-18T15:11:37Z</time>
      </trkpt>
      <trkpt lat="44.11279" lon="6.19581">
        <ele>1064.8</ele>
        <time>2015-01-18T15:11:52Z</time>
      </trkpt>
      <trkpt lat="44.11276" lon="6.19583">
        <ele>1064.8</ele>
        <time>2015-01-18T15:11:56Z</time>
      </trkpt>
      <trkpt lat="44.11263" lon="6.19582">
        <ele>1061.43</ele>
        <time>2015-01-18T15:12:13Z</time>
      </trkpt>
      <trkpt lat="44.11254" lon="6.19586">
        <ele>1059.99</ele>
        <time>2015-01-18T15:12:26Z</time>
      </trkpt>
      <trkpt lat="44.11239" lon="6.19587">
        <ele>1057.59</ele>
        <time>2015-01-18T15:12:43Z</time>
      </trkpt>
      <trkpt lat="44.11229" lon="6.19594">
        <ele>1056.15</ele>
        <time>2015-01-18T15:12:59Z</time>
      </trkpt>
      <trkpt lat="44.11219" lon="6.19598">
        <ele>1055.18</ele>
        <time>2015-01-18T15:13:14Z</time>
      </trkpt>
      <trkpt lat="44.11212" lon="6.196">
        <ele>1053.26</ele>
        <time>2015-01-18T15:13:29Z</time>
      </trkpt>
      <trkpt lat="44.11204" lon="6.19602">
        <ele>1051.34</ele>
        <time>2015-01-18T15:13:46Z</time>
      </trkpt>
      <trkpt lat="44.11195" lon="6.19607">
        <ele>1049.9</ele>
        <time>2015-01-18T15:13:59Z</time>
      </trkpt>
      <trkpt lat="44.11181" lon="6.19614">
        <ele>1047.97</ele>
        <time>2015-01-18T15:14:18Z</time>
      </trkpt>
      <trkpt lat="44.11175" lon="6.19619">
        <ele>1047.49</ele>
        <time>2015-01-18T15:14:28Z</time>
      </trkpt>
      <trkpt lat="44.11166" lon="6.19625">
        <ele>1046.05</ele>
        <time>2015-01-18T15:14:41Z</time>
      </trkpt>
      <trkpt lat="44.11158" lon="6.19627">
        <ele>1043.65</ele>
        <time>2015-01-18T15:14:50Z</time>
      </trkpt>
      <trkpt lat="44.11147" lon="6.19627">
        <ele>1041.25</ele>
        <time>2015-01-18T15:15:05Z</time>
      </trkpt>
      <trkpt lat="44.11136" lon="6.19622">
        <ele>1039.8</ele>
        <time>2015-01-18T15:15:19Z</time>
      </trkpt>
      <trkpt lat="44.11125" lon="6.19618">
        <ele>1037.4</ele>
        <time>2015-01-18T15:15:33Z</time>
      </trkpt>
      <trkpt lat="44.11119" lon="6.19616">
        <ele>1036.92</ele>
        <time>2015-01-18T15:15:45Z</time>
      </trkpt>
      <trkpt lat="44.11111" lon="6.19626">
        <ele>1034.52</ele>
        <time>2015-01-18T15:15:58Z</time>
      </trkpt>
      <trkpt lat="44.11103" lon="6.19637">
        <ele>1031.63</ele>
        <time>2015-01-18T15:16:13Z</time>
      </trkpt>
      <trkpt lat="44.11096" lon="6.19625">
        <ele>1030.19</ele>
        <time>2015-01-18T15:16:27Z</time>
      </trkpt>
      <trkpt lat="44.11092" lon="6.19615">
        <ele>1027.79</ele>
        <time>2015-01-18T15:16:41Z</time>
      </trkpt>
      <trkpt lat="44.11084" lon="6.19628">
        <ele>1025.38</ele>
        <time>2015-01-18T15:16:56Z</time>
      </trkpt>
      <trkpt lat="44.11082" lon="6.19636">
        <ele>1024.42</ele>
        <time>2015-01-18T15:17:03Z</time>
      </trkpt>
      <trkpt lat="44.11082" lon="6.19645">
        <ele>1023.46</ele>
        <time>2015-01-18T15:17:10Z</time>
      </trkpt>
      <trkpt lat="44.11078" lon="6.19665">
        <ele>1020.58</ele>
        <time>2015-01-18T15:17:28Z</time>
      </trkpt>
      <trkpt lat="44.1108" lon="6.19667">
        <ele>1020.1</ele>
        <time>2015-01-18T15:17:31Z</time>
      </trkpt>
      <trkpt lat="44.11083" lon="6.19676">
        <ele>1019.13</ele>
        <time>2015-01-18T15:17:40Z</time>
      </trkpt>
      <trkpt lat="44.11082" lon="6.19695">
        <ele>1016.73</ele>
        <time>2015-01-18T15:17:56Z</time>
      </trkpt>
      <trkpt lat="44.11083" lon="6.19706">
        <ele>1015.29</ele>
        <time>2015-01-18T15:18:07Z</time>
      </trkpt>
      <trkpt lat="44.11085" lon="6.19724">
        <ele>1014.33</ele>
        <time>2015-01-18T15:18:22Z</time>
      </trkpt>
      <trkpt lat="44.11086" lon="6.19729">
        <ele>1013.85</ele>
        <time>2015-01-18T15:18:26Z</time>
      </trkpt>
      <trkpt lat="44.11086" lon="6.19751">
        <ele>1012.41</ele>
        <time>2015-01-18T15:18:43Z</time>
      </trkpt>
      <trkpt lat="44.11087" lon="6.1976">
        <ele>1011.93</ele>
        <time>2015-01-18T15:18:52Z</time>
      </trkpt>
      <trkpt lat="44.11082" lon="6.19779">
        <ele>1011.44</ele>
        <time>2015-01-18T15:19:09Z</time>
      </trkpt>
      <trkpt lat="44.11073" lon="6.19791">
        <ele>1009.52</ele>
        <time>2015-01-18T15:19:26Z</time>
      </trkpt>
      <trkpt lat="44.11065" lon="6.19801">
        <ele>1007.6</ele>
        <time>2015-01-18T15:19:39Z</time>
      </trkpt>
      <trkpt lat="44.11065" lon="6.19802">
        <ele>1007.6</ele>
        <time>2015-01-18T15:19:40Z</time>
      </trkpt>
      <trkpt lat="44.11055" lon="6.1982">
        <ele>1007.12</ele>
        <time>2015-01-18T15:19:56Z</time>
      </trkpt>
      <trkpt lat="44.11043" lon="6.19838">
        <ele>1006.64</ele>
        <time>2015-01-18T15:20:13Z</time>
      </trkpt>
      <trkpt lat="44.11035" lon="6.19848">
        <ele>1007.6</ele>
        <time>2015-01-18T15:20:27Z</time>
      </trkpt>
      <trkpt lat="44.11023" lon="6.19867">
        <ele>1008.08</ele>
        <time>2015-01-18T15:20:45Z</time>
      </trkpt>
      <trkpt lat="44.11013" lon="6.19876">
        <ele>1006.64</ele>
        <time>2015-01-18T15:21:00Z</time>
      </trkpt>
      <trkpt lat="44.11003" lon="6.1987">
        <ele>1003.75</ele>
        <time>2015-01-18T15:21:14Z</time>
      </trkpt>
      <trkpt lat="44.10994" lon="6.19865">
        <ele>1001.35</ele>
        <time>2015-01-18T15:21:29Z</time>
      </trkpt>
      <trkpt lat="44.10985" lon="6.19867">
        <ele>998.95</ele>
        <time>2015-01-18T15:21:42Z</time>
      </trkpt>
      <trkpt lat="44.10975" lon="6.19872">
        <ele>996.54</ele>
        <time>2015-01-18T15:21:56Z</time>
      </trkpt>
      <trkpt lat="44.10968" lon="6.19867">
        <ele>995.1</ele>
        <time>2015-01-18T15:22:06Z</time>
      </trkpt>
      <trkpt lat="44.10958" lon="6.19872">
        <ele>992.7</ele>
        <time>2015-01-18T15:22:18Z</time>
      </trkpt>
      <trkpt lat="44.10957" lon="6.19878">
        <ele>992.22</ele>
        <time>2015-01-18T15:22:22Z</time>
      </trkpt>
      <trkpt lat="44.10952" lon="6.19892">
        <ele>989.81</ele>
        <time>2015-01-18T15:22:35Z</time>
      </trkpt>
      <trkpt lat="44.1095" lon="6.1991">
        <ele>985.97</ele>
        <time>2015-01-18T15:22:52Z</time>
      </trkpt>
      <trkpt lat="44.10941" lon="6.19911">
        <ele>985.01</ele>
        <time>2015-01-18T15:23:04Z</time>
      </trkpt>
      <trkpt lat="44.1094" lon="6.19911">
        <ele>984.53</ele>
        <time>2015-01-18T15:23:05Z</time>
      </trkpt>
      <trkpt lat="44.10929" lon="6.19913">
        <ele>981.16</ele>
        <time>2015-01-18T15:23:20Z</time>
      </trkpt>
      <trkpt lat="44.10918" lon="6.1992">
        <ele>979.72</ele>
        <time>2015-01-18T15:23:35Z</time>
      </trkpt>
      <trkpt lat="44.10912" lon="6.19923">
        <ele>977.32</ele>
        <time>2015-01-18T15:23:45Z</time>
      </trkpt>
      <trkpt lat="44.10903" lon="6.19928">
        <ele>976.36</ele>
        <time>2015-01-18T15:23:56Z</time>
      </trkpt>
      <trkpt lat="44.10896" lon="6.19938">
        <ele>973.95</ele>
        <time>2015-01-18T15:24:08Z</time>
      </trkpt>
      <trkpt lat="44.10894" lon="6.19941">
        <ele>973.95</ele>
        <time>2015-01-18T15:24:11Z</time>
      </trkpt>
      <trkpt lat="44.10885" lon="6.19942">
        <ele>972.03</ele>
        <time>2015-01-18T15:24:24Z</time>
      </trkpt>
      <trkpt lat="44.10878" lon="6.19956">
        <ele>971.07</ele>
        <time>2015-01-18T15:24:38Z</time>
      </trkpt>
      <trkpt lat="44.10875" lon="6.1996">
        <ele>970.11</ele>
        <time>2015-01-18T15:24:42Z</time>
      </trkpt>
      <trkpt lat="44.10868" lon="6.19967">
        <ele>969.15</ele>
        <time>2015-01-18T15:24:54Z</time>
      </trkpt>
      <trkpt lat="44.1086" lon="6.19981">
        <ele>966.26</ele>
        <time>2015-01-18T15:25:09Z</time>
      </trkpt>
      <trkpt lat="44.10859" lon="6.19985">
        <ele>966.74</ele>
        <time>2015-01-18T15:25:12Z</time>
      </trkpt>
      <trkpt lat="44.10856" lon="6.19996">
        <ele>965.78</ele>
        <time>2015-01-18T15:25:22Z</time>
      </trkpt>
      <trkpt lat="44.10851" lon="6.20009">
        <ele>964.82</ele>
        <time>2015-01-18T15:25:33Z</time>
      </trkpt>
      <trkpt lat="44.10845" lon="6.20021">
        <ele>964.34</ele>
        <time>2015-01-18T15:25:44Z</time>
      </trkpt>
      <trkpt lat="44.10838" lon="6.20027">
        <ele>965.78</ele>
        <time>2015-01-18T15:25:52Z</time>
      </trkpt>
      <trkpt lat="44.10833" lon="6.20031">
        <ele>965.3</ele>
        <time>2015-01-18T15:25:58Z</time>
      </trkpt>
      <trkpt lat="44.10825" lon="6.20042">
        <ele>967.7</ele>
        <time>2015-01-18T15:26:13Z</time>
      </trkpt>
      <trkpt lat="44.10817" lon="6.20049">
        <ele>969.15</ele>
        <time>2015-01-18T15:26:24Z</time>
      </trkpt>
      <trkpt lat="44.1081" lon="6.20054">
        <ele>969.63</ele>
        <time>2015-01-18T15:26:33Z</time>
      </trkpt>
      <trkpt lat="44.10808" lon="6.20056">
        <ele>970.11</ele>
        <time>2015-01-18T15:26:36Z</time>
      </trkpt>
      <trkpt lat="44.10806" lon="6.20063">
        <ele>970.59</ele>
        <time>2015-01-18T15:26:43Z</time>
      </trkpt>
      <trkpt lat="44.10802" lon="6.20086">
        <ele>970.11</ele>
        <time>2015-01-18T15:27:00Z</time>
      </trkpt>
      <trkpt lat="44.10799" lon="6.20097">
        <ele>969.63</ele>
        <time>2015-01-18T15:27:11Z</time>
      </trkpt>
      <trkpt lat="44.10799" lon="6.20101">
        <ele>969.63</ele>
        <time>2015-01-18T15:27:14Z</time>
      </trkpt>
      <trkpt lat="44.10791" lon="6.20122">
        <ele>968.18</ele>
        <time>2015-01-18T15:27:30Z</time>
      </trkpt>
      <trkpt lat="44.10791" lon="6.20124">
        <ele>968.18</ele>
        <time>2015-01-18T15:27:32Z</time>
      </trkpt>
      <trkpt lat="44.10782" lon="6.20147">
        <ele>966.74</ele>
        <time>2015-01-18T15:27:52Z</time>
      </trkpt>
      <trkpt lat="44.10781" lon="6.20151">
        <ele>966.74</ele>
        <time>2015-01-18T15:27:56Z</time>
      </trkpt>
      <trkpt lat="44.10769" lon="6.20167">
        <ele>965.3</ele>
        <time>2015-01-18T15:28:13Z</time>
      </trkpt>
      <trkpt lat="44.10768" lon="6.20171">
        <ele>965.3</ele>
        <time>2015-01-18T15:28:16Z</time>
      </trkpt>
      <trkpt lat="44.10759" lon="6.20192">
        <ele>964.82</ele>
        <time>2015-01-18T15:28:35Z</time>
      </trkpt>
      <trkpt lat="44.1075" lon="6.2021">
        <ele>961.94</ele>
        <time>2015-01-18T15:28:51Z</time>
      </trkpt>
      <trkpt lat="44.10743" lon="6.20229">
        <ele>961.46</ele>
        <time>2015-01-18T15:29:07Z</time>
      </trkpt>
      <trkpt lat="44.10739" lon="6.20252">
        <ele>960.49</ele>
        <time>2015-01-18T15:29:23Z</time>
      </trkpt>
      <trkpt lat="44.10738" lon="6.20261">
        <ele>960.01</ele>
        <time>2015-01-18T15:29:29Z</time>
      </trkpt>
      <trkpt lat="44.10738" lon="6.2027">
        <ele>960.01</ele>
        <time>2015-01-18T15:29:35Z</time>
      </trkpt>
      <trkpt lat="44.10739" lon="6.20279">
        <ele>959.53</ele>
        <time>2015-01-18T15:29:42Z</time>
      </trkpt>
      <trkpt lat="44.1074" lon="6.20305">
        <ele>957.61</ele>
        <time>2015-01-18T15:30:00Z</time>
      </trkpt>
      <trkpt lat="44.10737" lon="6.2032">
        <ele>955.69</ele>
        <time>2015-01-18T15:30:12Z</time>
      </trkpt>
      <trkpt lat="44.10736" lon="6.20322">
        <ele>955.21</ele>
        <time>2015-01-18T15:30:14Z</time>
      </trkpt>
      <trkpt lat="44.10729" lon="6.20341">
        <ele>952.32</ele>
        <time>2015-01-18T15:30:30Z</time>
      </trkpt>
      <trkpt lat="44.10722" lon="6.20357">
        <ele>950.88</ele>
        <time>2015-01-18T15:30:44Z</time>
      </trkpt>
      <trkpt lat="44.10725" lon="6.20376">
        <ele>950.88</ele>
        <time>2015-01-18T15:30:58Z</time>
      </trkpt>
      <trkpt lat="44.10727" lon="6.20397">
        <ele>950.88</ele>
        <time>2015-01-18T15:31:12Z</time>
      </trkpt>
      <trkpt lat="44.10732" lon="6.20412">
        <ele>949.44</ele>
        <time>2015-01-18T15:31:27Z</time>
      </trkpt>
      <trkpt lat="44.10732" lon="6.20419">
        <ele>948.48</ele>
        <time>2015-01-18T15:31:32Z</time>
      </trkpt>
      <trkpt lat="44.1073" lon="6.20428">
        <ele>948.48</ele>
        <time>2015-01-18T15:31:38Z</time>
      </trkpt>
      <trkpt lat="44.10716" lon="6.20441">
        <ele>947.04</ele>
        <time>2015-01-18T15:31:53Z</time>
      </trkpt>
      <trkpt lat="44.10709" lon="6.20462">
        <ele>947.52</ele>
        <time>2015-01-18T15:32:09Z</time>
      </trkpt>
      <trkpt lat="44.10708" lon="6.20471">
        <ele>947.52</ele>
        <time>2015-01-18T15:32:16Z</time>
      </trkpt>
      <trkpt lat="44.10708" lon="6.20479">
        <ele>948.48</ele>
        <time>2015-01-18T15:32:22Z</time>
      </trkpt>
      <trkpt lat="44.10708" lon="6.20483">
        <ele>948.48</ele>
        <time>2015-01-18T15:32:25Z</time>
      </trkpt>
      <trkpt lat="44.10704" lon="6.20506">
        <ele>948</ele>
        <time>2015-01-18T15:32:42Z</time>
      </trkpt>
      <trkpt lat="44.10703" lon="6.20511">
        <ele>948</ele>
        <time>2015-01-18T15:32:46Z</time>
      </trkpt>
      <trkpt lat="44.107" lon="6.2053">
        <ele>948</ele>
        <time>2015-01-18T15:33:02Z</time>
      </trkpt>
      <trkpt lat="44.107" lon="6.20531">
        <ele>948</ele>
        <time>2015-01-18T15:33:03Z</time>
      </trkpt>
      <trkpt lat="44.10696" lon="6.20544">
        <ele>947.04</ele>
        <time>2015-01-18T15:33:15Z</time>
      </trkpt>
      <trkpt lat="44.10688" lon="6.20561">
        <ele>944.63</ele>
        <time>2015-01-18T15:33:29Z</time>
      </trkpt>
      <trkpt lat="44.10687" lon="6.20565">
        <ele>944.15</ele>
        <time>2015-01-18T15:33:34Z</time>
      </trkpt>
      <trkpt lat="44.1068" lon="6.20576">
        <ele>943.19</ele>
        <time>2015-01-18T15:33:46Z</time>
      </trkpt>
      <trkpt lat="44.10673" lon="6.20591">
        <ele>941.27</ele>
        <time>2015-01-18T15:34:01Z</time>
      </trkpt>
      <trkpt lat="44.10668" lon="6.20606">
        <ele>941.27</ele>
        <time>2015-01-18T15:34:14Z</time>
      </trkpt>
      <trkpt lat="44.10665" lon="6.20616">
        <ele>942.23</ele>
        <time>2015-01-18T15:34:23Z</time>
      </trkpt>
      <trkpt lat="44.10661" lon="6.20624">
        <ele>941.75</ele>
        <time>2015-01-18T15:34:31Z</time>
      </trkpt>
      <trkpt lat="44.10659" lon="6.2063">
        <ele>941.75</ele>
        <time>2015-01-18T15:34:47Z</time>
      </trkpt>
      <trkpt lat="44.10659" lon="6.2063">
        <ele>941.75</ele>
        <time>2015-01-18T15:35:13Z</time>
      </trkpt>
      <trkpt lat="44.10659" lon="6.20629">
        <ele>941.75</ele>
        <time>2015-01-18T15:35:48Z</time>
      </trkpt>
      <trkpt lat="44.10659" lon="6.20629">
        <ele>941.75</ele>
        <time>2015-01-18T15:36:18Z</time>
      </trkpt>
      <trkpt lat="44.10659" lon="6.20629">
        <ele>941.75</ele>
        <time>2015-01-18T15:36:49Z</time>
      </trkpt>
      <trkpt lat="44.10659" lon="6.20629">
        <ele>948</ele>
        <time>2015-01-18T15:37:19Z</time>
      </trkpt>
      <trkpt lat="44.10659" lon="6.20629">
        <ele>946.07</ele>
        <time>2015-01-18T15:37:20Z</time>
      </trkpt>
      <trkpt lat="44.10659" lon="6.20629">
        <ele>942.23</ele>
        <time>2015-01-18T15:37:23Z</time>
      </trkpt>
      <trkpt lat="44.10659" lon="6.20629">
        <ele>943.67</ele>
        <time>2015-01-18T15:37:26Z</time>
      </trkpt>
      <trkpt lat="44.10659" lon="6.20629">
        <ele>947.04</ele>
        <time>2015-01-18T15:37:34Z</time>
      </trkpt>
      <trkpt lat="44.10659" lon="6.20629">
        <ele>943.67</ele>
        <time>2015-01-18T15:37:35Z</time>
      </trkpt>
    </trkseg>
  </trk>
</gpx>